     2              OBSERVATION DATA    G (GPS)             RINEX VERSION / TYPE
ASRINEXO V2.9.9 LH AIUB 01-FEB- 1 16:26                     PGM / RUN BY / DATE
BERN ASHTECH Z-12                                           COMMENT
BIT 2 OF LLI (+4) FLAGS DATA COLLECTED UNDER "AS" CONDITION COMMENT
USNB                                                        MARKER NAME
                                                            OBSERVER / AGENCY
? ASHTECH Z-XII3 1D15                                       REC # / TYPE / VERS
? CHOKE RING                                                ANT # / TYPE
  1112191.3300 -4842909.4100  3985504.7200                  APPROX POSITION XYZ
        0.0000        0.0000        0.0000                  ANTENNA: DELTA H/E/N
     1     1                                                WAVELENGTH FACT L1/2
     5    C1    L1    L2    P1    P2                        # / TYPES OF OBSERV
  2000     4    22     0     0   30.000000                  TIME OF FIRST OBS
                                                            END OF HEADER
 00  4 22  0  0 30.0000000  0  6 06 26 17 24 23 10
  21909072.760   -16394777.021 8 -12760530.63547  21909077.241    21909089.2574
  19962100.434   -24199210.275 9 -18556409.78048  19962103.837    19962112.8324
  20936083.444   -20657015.091 9 -16079830.40147  20936087.366    20936098.4394
  24369260.600    -1247266.174 7   -948912.51544  24369254.555    24369269.4594
  23114000.088    -9590613.975 8  -7459500.51646  23114000.485    23114012.4864
  23099301.759   -10377360.480 8  -7780006.96946  23099307.461    23099321.5924
 00  4 22  0  1  0.0000000  0  7 06 09 26 17 24 23 10
  21922284.127   -16325357.127 8 -12706437.30847  21922287.663    21922298.7404
  24388093.236      -65622.38217
  19964520.407   -24186497.794 9 -18546503.92948  19964522.946    19964531.9904
  20923980.801   -20720621.181 9 -16129393.51247  20923984.024    20923994.8634
  24387287.102    -1152484.244 7   -875056.69945  24387290.825    24387307.9784
  23102557.523    -9650725.275 8  -7506340.40246  23102561.143    23102573.2364
  23113530.643   -10302624.262 8  -7721771.02046  23113529.674    23113543.2584
 00  4 22  0  1 30.0000000  0  7 06 09 26 17 24 23 10
  21935571.147   -16255531.034 8 -12652027.43147  21935575.489    21935586.6474
  24368248.717     -169935.331 7   -119951.55255  24368248.727    24368265.0824
  19967051.009   -24173198.269 9 -18536140.63748  19967053.748    19967062.9254
  20911934.070   -20783924.808 9 -16178720.92848  20911937.706    20911948.3154
  24405349.711    -1057513.950 7   -801054.01844  24405361.222    24405379.2124
  23091139.348    -9710742.533 8  -7553107.00346  23091140.316    23091152.0734
  23127760.626   -10227812.470 8  -7663476.17546  23127765.765    23127779.1964
 00  4 22  0  2  0.0000000  0  6 06 09 26 17 23 10
  21948939.048   -16185300.741 8 -12597302.59847  21948939.413    21948951.1744
  24348382.709     -274326.757 7   -201295.20745  24348384.499    24348401.8094
  19969695.937   -24159304.327 9 -18525314.16348  19969697.420    19969707.1354
  20899942.974   -20846932.659 9 -16227817.87547  20899947.456    20899958.0744
  23079737.936    -9770653.646 8  -7599790.88046  23079739.515    23079751.5424
  23142017.286   -10152918.802 8  -7605117.51646  23142017.715    23142030.2154
 00  4 22  0  2 30.0000000  0  6 06 09 26 17 23 10
  21962377.337   -16114664.292 8 -12542261.28547  21962381.662    21962393.5164
  24328493.361     -378772.995 7   -282681.62445  24328508.251    24328524.5084
  19972456.730   -24144791.457 9 -18514005.40548  19972459.026    19972468.6354
  20888013.571   -20909628.972 9 -16276672.06747  20888016.586    20888027.1534
  23068356.865    -9830457.863 8  -7646391.49046  23068358.897    23068372.2424
  23156281.291   -10077944.682 8  -7546696.17046  23156284.415    23156298.0524
 00  4 22  0  3  0.0000000  0  6 06 09 26 17 23 10
  21975895.564   -16043635.518 8 -12486914.26047  21975898.015    21975910.1194
  24308624.390     -483252.516 7   -364093.89045  24308626.332    24308643.6934
  19975334.457   -24129662.974 9 -18502216.95748  19975337.834    19975347.0714
  20876145.527   -20972001.674 9 -16325274.08848  20876147.704    20876158.3234
  23056993.872    -9890144.109 8  -7692900.14746  23057000.129    23057013.5624
  23170565.568   -10002900.826 8  -7488220.49346  23170565.480    23170579.9684
 00  4 22  0  3 30.0000000  0  6 06 09 26 17 23 10
  21989484.662   -15972214.171 8 -12431261.36347  21989488.782    21989500.6344
  24288748.093     -587733.997 7   -445507.70245  24288743.517    24288761.2954
  19978326.695   -24113938.372 9 -18489964.00148  19978330.408    19978339.6314
  20864337.954   -21034045.337 9 -16373619.72848  20864341.242    20864351.5574
  23045663.411    -9949702.530 8  -7739309.22246  23045666.583    23045679.6734
  23184856.929    -9927789.711 8  -7429692.42446  23184858.910    23184872.2864
 00  4 22  0  4  0.0000000  0  6 06 09 26 17 23 10
  22003155.636   -15900388.240 8 -12375293.20047  22003156.413    22003169.1704
  24268861.503     -692193.199 7   -526904.18645  24268865.866    24268882.0664
  19981429.658   -24097634.341 9 -18477259.53848  19981432.422    19981442.0824
  20852597.044   -21095755.612 9 -16421705.57948  20852597.934    20852608.5944
  23034359.564   -10009119.692 8  -7785608.24146  23034360.806    23034373.2324
  23199157.218    -9852636.647 8  -7371131.65046  23199159.927    23199173.0114
 00  4 22  0  4 30.0000000  0  6 06 09 26 17 23 10
  22016901.768   -15828162.779 8 -12319013.70047  22016901.490    22016912.9754
  24248997.999     -796618.807 7   -608274.49845  24248994.045    24249011.9914
  19984637.995   -24080770.592 9 -18464118.93148  19984641.612    19984651.2294
  20840918.427   -21157119.753 9 -16469521.71448  20840920.870    20840931.2624
  23023079.052   -10068397.152 8  -7831798.37346  23023080.842    23023092.7754
  23213462.507    -9777464.360 8  -7312555.88246  23213465.022    23213476.8234
 00  4 22  0  5  0.0000000  0  6 06 09 26 17 23 10
  22030715.141   -15755546.582 8 -12262429.73747  22030719.506    22030731.1824
  24229125.080     -901025.711 7   -689630.20145  24229124.555    24229143.2224
  19987951.554   -24063364.720 9 -18450555.89448  19987954.201    19987963.4304
  20829304.603   -21218147.064 9 -16517075.39048  20829307.876    20829318.2104
  23011827.233   -10127531.148 8  -7877876.73546  23011827.383    23011840.2654
  23227772.341    -9702258.713 8  -7253954.09446  23227775.663    23227788.2774
 00  4 22  0  5 30.0000000  0  6 06 09 26 17 23 10
  22044610.987   -15682533.873 8 -12205536.80347  22044613.745    22044625.5514
  24209256.816    -1005433.373 7   -770986.51945  24209256.618    24209275.4424
  19991368.094   -24045410.451 9 -18436565.53048  19991370.634    19991379.8014
  20817754.815   -21278843.170 9 -16564370.99248  20817757.350    20817767.8004
  23000598.187   -10186530.916 8  -7923850.47846  23000599.081    23000612.7374
  23242097.857    -9627005.367 8  -7195315.18646  23242095.941    23242109.3214
 00  4 22  0  6  0.0000000  0  6 06 09 26 17 23 10
  22058581.282   -15609134.242 8 -12148342.38247  22058581.544    22058593.2714
  24189388.655    -1109855.137 7   -852353.81645  24189386.061    24189402.9544
  19994891.235   -24026898.782 9 -18422140.83748  19994893.357    19994902.5874
  20806268.233   -21339205.437 9 -16611406.45948  20806270.668    20806281.4344
  22989394.461   -10245405.688 8  -7969726.81446  22989395.783    22989409.9354
  23256421.160    -9551700.427 8  -7136636.06046  23256426.434    23256439.9184
 00  4 22  0  6 30.0000000  0  6 06 09 26 17 23 10
  22072617.355   -15535356.895 8 -12090853.64847  22072619.630    22072632.7964
  24169503.361    -1214305.077 7   -933743.10045  24169508.221    24169527.0164
  19998520.343   -24007819.217 9 -18407273.62248  19998524.213    19998533.2164
  20794848.726   -21399222.231 9 -16658172.72748  20794849.877    20794860.3644
  22978210.205   -10304172.866 8  -8015519.31646  22978212.934    22978225.7914
  23270764.027    -9476327.912 8  -7077904.31746  23270767.827    23270782.7714
 00  4 22  0  7  0.0000000  0  6 06 09 26 17 23 10
  22086730.421   -15461195.230 8 -12033065.44647  22086732.385    22086744.8194
  24149636.644    -1318783.567 8  -1015154.58645  24149628.370    24149643.9854
  20002265.653   -23988151.281 9 -18391947.94448  20002266.810    20002275.9654
  20783491.029   -21458893.034 9 -16704669.39848  20783494.813    20783505.2314
  22967044.079   -10362831.389 8  -8061227.14046  22967050.480    22967063.0224
  23285124.542    -9400874.909 8  -7019109.83546  23285126.671    23285140.2794
 00  4 22  0  7 30.0000000  0  6 06 09 26 17 23 10
  22100916.367   -15386642.375 8 -11974972.41547  22100919.712    22100931.5054
  24129747.001    -1423277.401 8  -1096578.09345  24129742.754    24129759.6504
  20006120.651   -23967887.427 9 -18376157.90948  20006122.982    20006132.3674
  20772203.049   -21518215.523 9 -16750894.65748  20772206.078    20772216.5354
  22955901.262   -10421387.803 8  -8106855.40546  22955907.788    22955920.6264
  23299497.805    -9325360.951 8  -6960267.82346  23299497.993    23299510.2964
 00  4 22  0  8  0.0000000  0  6 06 09 26 17 23 10
  22115175.989   -15311706.397 8 -11916580.83847  22115179.970    22115191.6734
  24109850.114    -1527772.535 8  -1178002.62045  24109859.508    24109874.5044
  20010088.846   -23947025.280 9 -18359901.67548  20010092.831    20010101.8084
  20760982.179   -21577188.449 9 -16796847.53048  20760984.675    20760994.1294
  22944779.724   -10479847.500 8  -8152408.28746  22944782.809    22944795.9204
  23313874.800    -9249788.787 8  -6901380.45946  23313878.207    23313891.4774
 00  4 22  0  8 30.0000000  0  6 06 09 26 17 23 10
  22129511.400   -15236382.231 8 -11857886.79547  22129514.061    22129526.2544
  24089978.134    -1632269.556 8  -1259428.54945  24089972.645    24089989.3674
  20014174.316   -23925566.733 9 -18343180.71448  20014176.106    20014184.8184
  20749827.468   -21635813.478 9 -16842529.32548  20749828.355    20749838.1344
  22933676.203   -10538204.009 8  -8197880.74446  22933677.307    22933690.7804
  23328271.051    -9174162.552 8  -6842450.98146  23328268.809    23328283.8574
 00  4 22  0  9  0.0000000  0  6 06 09 26 17 23 10
  22143914.629   -15160674.889 8 -11798894.19647  22143920.739    22143932.1664
  24070086.206    -1736757.938 8  -1340847.79545  24070089.863    24070105.5854
  20018366.855   -23903520.708 9 -18326001.98248  20018371.217    20018380.5314
  20738735.253   -21694093.261 9 -16887942.08848  20738738.069    20738747.7684
  22922591.070   -10596448.828 8  -8243266.18546  22922593.436    22922607.3124
  23342662.336    -9098494.678 8  -6783489.07446  23342668.345    23342682.8654
 00  4 22  0  9 30.0000000  0  6 06 09 26 17 23 10
  22158394.092   -15084601.411 8 -11739616.25046  22158397.278    22158407.8714
  24050205.083    -1841228.326 8  -1422253.03345  24050209.761    24050225.3144
  20022673.688   -23880904.984 9 -18308379.32548  20022675.408    20022684.4414
  20727708.074   -21752036.424 9 -16933092.55248  20727711.592    20727721.5634
  22911530.452   -10654585.186 8  -8288567.11346  22911531.099    22911544.0034
  23357076.745    -9022781.411 8  -6724491.80646  23357077.072    23357090.8404
 00  4 22  0 10  0.0000000  0  6 06 09 26 17 23 10
  22172940.152   -15008172.247 8 -11680061.15446  22172941.289    22172952.2174
  24030328.713    -1945674.218 8  -1503639.14645  24030333.086    24030350.6084
  20027080.963   -23857728.688 9 -18290319.86348  20027085.261    20027094.4804
  20716746.662   -21809631.904 9 -16977972.09748  20716751.697    20716761.7124
  22900486.472   -10712605.946 8  -8333777.97046  22900490.812    22900502.1284
  23371494.658    -8947019.225 8  -6665456.41146  23371494.374    23371507.1164
 00  4 22  0 10 30.0000000  0  6 06 09 26 17 23 10
  22187552.112   -14931386.990 8 -11620228.60246  22187553.185    22187564.2924
  24010457.164    -2050090.154 8  -1585001.91745  24010463.471    24010479.6804
  20031596.029   -23834002.804 9 -18271832.14848  20031600.006    20031609.2844
  20705856.578   -21866866.516 9 -17022570.43848  20705860.108    20705870.3274
  22889469.129   -10770508.363 8  -8378896.59946  22889471.920    22889484.3314
  23385918.512    -8871207.195 8  -6606382.15746  23385920.857    23385932.9594
 00  4 22  0 11  0.0000000  0  6 06 09 26 17 23 10
  22202229.179   -14854252.553 8 -11560123.95047  22202231.356    22202242.7934
  23990598.939    -2154462.495 8  -1666330.71145  23990601.982    23990617.4264
  20036217.356   -23809726.521 9 -18252915.54448  20036220.055    20036228.9354
  20695034.533   -21923738.139 9 -17066885.93748  20695037.833    20695048.1684
  22878474.432   -10828295.099 8  -8423925.10146  22878475.456    22878487.8334
  23400356.455    -8795331.427 8  -6547258.23646  23400359.550    23400372.9224
 00  4 22  0 11 30.0000000  0  6 06 09 26 17 23 10
  22216974.294   -14776760.864 8 -11499740.90747  22216977.614    22216990.0104
  23970746.836    -2258791.149 8  -1747625.46745  23970748.072    23970765.8614
  20040942.797   -23784900.626 9 -18233570.68148  20040944.017    20040953.0924
  20684282.550   -21980243.267 9 -17110915.86148  20684285.116    20684295.0554
  22867497.388   -10885965.402 8  -8468862.84146  22867500.136    22867512.9014
  23414811.279    -8719383.823 8  -6488078.36346  23414811.212    23414824.4084
 00  4 22  0 12  0.0000000  0  6 06 09 26 17 23 10
  22231788.227   -14698908.299 8 -11439076.64447  22231792.472    22231804.1474
  23950899.764    -2363084.974 8  -1828893.06945  23950901.957    23950919.1804
  20045770.715   -23759523.304 9 -18213796.13048  20045773.520    20045782.4554
  20673604.776   -22036357.667 9 -17154641.32848  20673606.386    20673616.9144
  22856539.872   -10943521.907 8  -8513711.92746  22856547.497    22856559.9584
  23429265.934    -8643379.057 8  -6428853.92146  23429274.058    23429287.7984
 00  4 22  0 12 30.0000000  0  6 06 09 26 17 23 10
  22246669.922   -14620696.151 8 -11378132.20446  22246675.017    22246687.5574
  23931063.454    -2467350.925 8  -1910138.94445  23931060.326    23931076.9954
  20050705.724   -23733595.443 9 -18193592.58448  20050707.442    20050716.3984
  20662997.383   -22092091.981 9 -17198070.61348  20663000.635    20663010.8014
  22845615.720   -11000967.527 8  -8558474.62346  22845615.971    22845627.4824
  23443749.389    -8567311.502 8  -6369580.57046  23443749.233    23443763.1714
 00  4 22  0 13  0.0000000  0  6 06 09 26 17 23 10
  22261620.934   -14542134.365 8 -11316915.33146  22261624.956    22261636.9704
  23911224.485    -2571581.697 8  -1991357.46545  23911226.059    23911241.7224
  20055741.578   -23707119.810 9 -18172962.21648  20055745.274    20055754.2084
  20652465.241   -22147448.442 9 -17241205.47648  20652466.781    20652476.8934
  22834704.750   -11058299.692 8  -8603148.89946  22834706.756    22834717.3384
  23458227.128    -8491182.395 8  -6310259.24346  23458236.386    23458250.4554
 00  4 22  0 13 30.0000000  0  6 06 09 26 17 23 10
  22276636.985   -14463229.755 8 -11255431.31846  22276640.517    22276652.0914
  23891392.220    -2675776.283 8  -2072547.76845  23891397.278    23891413.8924
  20060882.765   -23680104.608 9 -18151911.38848  20060886.230    20060895.3544
  20642000.377   -22202423.547 9 -17284043.17248  20642004.845    20642015.4154
  22823817.932   -11115513.999 8  -8647731.36846  22823819.152    22823831.5744
  23472731.737    -8415002.251 8  -6250898.16046  23472732.282    23472747.4404
 00  4 22  0 14  0.0000000  0  6 06 09 26 17 23 10
  22291717.141   -14384001.382 8 -11193695.00046  22291717.876    22291729.4184
  23871577.934    -2779926.784 8  -2153703.70645  23871578.795    23871594.7734
  20066127.391   -23652545.359 9 -18130436.63348  20066130.576    20066139.5434
  20631612.883   -22257020.166 9 -17326585.94048  20631616.098    20631626.4064
  22812947.666   -11172616.281 8  -8692226.54546  22812952.336    22812964.3664
  23487235.703    -8338760.302 8  -6191488.90946  23487241.030    23487255.3584
 00  4 22  0 14 30.0000000  0  6 06 09 26 17 23 10
  22306852.750   -14304450.123 8 -11131707.09847  22306855.459    22306868.1214
  23851768.177    -2884018.567 8  -2234813.88445  23851770.709    23851786.7414
  20071477.272   -23624442.008 9 -18108537.91248  20071478.588    20071487.1824
  20621293.017   -22311252.224 9 -17368844.63648  20621295.729    20621306.0134
  22802107.324   -11229601.293 8  -8736630.32146  22802108.709    22802120.2304
  23501762.648    -8262441.293 8  -6132019.61046  23501765.789    23501778.1584
 00  4 22  0 15  0.0000000  0  6 06 09 26 17 23 10
  22322048.378   -14224586.982 8 -11069476.17746  22322052.612    22322064.6614
  23831973.555    -2988044.589 8  -2315872.79745  23831975.027    23831990.3094
  20076928.195   -23595791.509 9 -18086212.83448  20076930.246    20076938.7854
  20611044.978   -22365105.953 9 -17410808.53048  20611047.624    20611057.9104
  22791282.336   -11286470.695 8  -8780944.05046  22791286.132    22791298.5084
  23516294.915    -8186059.592 8  -6072501.44846  23516300.171    23516313.0094
 00  4 22  0 15 30.0000000  0  6 06 09 26 17 23 10
  22337306.201   -14144417.750 8 -11007006.75246  22337308.174    22337320.9634
  23812185.937    -3092014.988 8  -2396888.40945  23812189.340    23812205.8244
  20082485.193   -23566584.810 9 -18063454.35548  20082488.123    20082497.4404
  20600869.243   -22418577.593 9 -17452474.69048  20600872.276    20600882.5074
  22780482.077   -11343227.322 8  -8825169.89846  22780485.846    22780497.6064
  23530841.770    -8109626.086 8  -6012942.94346  23530844.289    23530858.3664
 00  4 22  0 16  0.0000000  0  6 06 09 26 17 23 10
  22352615.758   -14063944.415 8 -10944300.38246  22352621.772    22352634.9074
  23792413.092    -3195931.758 8  -2477862.22345  23792415.252    23792430.5204
  20088150.364   -23536819.047 9 -18040260.24448  20088152.734    20088161.4774
  20590768.412   -22471660.160 9 -17493837.67948  20590770.979    20590781.1064
  22769702.456   -11399883.502 8  -8869317.47546  22769704.612    22769716.3264
  23545397.022    -8033141.662 8  -5953344.78745  23545398.857    23545412.2354
 00  4 22  0 16 30.0000000  0  6 06 09 26 17 23 10
  22367993.251   -13983152.801 8 -10881345.99546  22367996.034    22368009.3584
  23772651.832    -3299794.686 8  -2558794.06445  23772649.630    23772665.6654
  20093919.627   -23506498.668 9 -18016633.96248  20093921.996    20093930.9764
  20580741.352   -22524348.347 9 -17534893.35348  20580744.309    20580754.8024
  22758937.807   -11456429.489 8  -8913379.19947  22758944.065    22758956.7454
  23559959.506    -7956626.654 8  -5893722.79146  23559960.295    23559973.2574
 00  4 22  0 17  0.0000000  0  6 06 09 26 17 23 10
  22383422.910   -13902042.391 8 -10818143.20046  22383430.619    22383443.5194
  23752888.421    -3403606.874 8  -2639686.37045  23752894.540    23752910.8684
  20099796.209   -23475621.121 9 -17992573.52648  20099797.917    20099806.8694
  20570789.725   -22576643.128 9 -17575642.48648  20570793.435    20570803.4974
  22748202.175   -11512860.220 8  -8957351.10147  22748205.766    22748217.7064
  23574521.589    -7880085.980 8  -5834080.74446  23574525.108    23574537.9914
 00  4 22  0 17 30.0000000  0  6 06 09 26 17 23 10
  22398928.252   -13820594.777 8 -10754677.64446  22398930.184    22398942.8744
  23733162.470    -3507352.772 8  -2720527.02545  23733152.202    23733168.0904
  20105775.378   -23444195.146 9 -17968085.74448  20105777.989    20105787.1494
  20560913.831   -22628550.780 9 -17616089.95348  20560915.555    20560925.4264
  22737489.734   -11569173.846 8  -9001231.76647  22737489.872    22737501.9504
  23589094.797    -7803502.791 8  -5774405.62645  23589098.383    23589111.7704
 00  4 22  0 18  0.0000000  0  6 06 09 26 17 23 10
  22414495.458   -13738792.471 8 -10690935.70446  22414496.942    22414509.6564
  23713420.826    -3611026.868 8  -2801311.74446  23713424.057    23713440.2444
  20111859.168   -23412228.010 9 -17943176.27448  20111861.015    20111870.0984
  20551106.756   -22680068.545 9 -17656233.61148  20551111.995    20551121.8394
  22726794.765   -11625359.886 8  -9045013.00047  22726797.597    22726809.6174
  23603676.038    -7726871.367 8  -5714692.89045  23603680.697    23603694.4864
 00  4 22  0 18 30.0000000  0  6 06 09 26 17 23 10
  22430122.400   -13656641.612 8 -10626922.17346  22430129.409    22430141.9384
  23693706.328    -3714628.141 8  -2882039.71446  23693708.995    23693724.6614
  20118046.377   -23379717.710 9 -17917843.56348  20118047.622    20118056.9044
  20541380.804   -22731199.166 9 -17696075.59448  20541382.484    20541391.9294
  22716127.083   -11681412.933 8  -9088690.60447  22716130.598    22716143.1674
  23618273.303    -7650194.119 8  -5654944.45346  23618272.839    23618285.8634
 00  4 22  0 19  0.0000000  0  6 06 09 26 17 23 10
  22445825.540   -13574160.601 8 -10562651.35246  22445826.209    22445838.1904
  23674006.212    -3818150.663 8  -2962706.31946  23674009.298    23674024.4264
  20124333.176   -23346672.914 9 -17892094.36148  20124336.045    20124344.7344
  20531724.904   -22781930.529 9 -17735606.46848  20531728.518    20531738.1174
  22705484.519   -11737344.901 8  -9132273.88746  22705487.494    22705499.1174
  23632876.251    -7573462.394 8  -5595153.57945  23632874.365    23632886.9884
 00  4 22  0 19 30.0000000  0  6 06 09 26 17 23 10
  22461580.496   -13491361.785 8 -10498132.89346  22461581.703    22461594.3044
  23654317.672    -3921600.606 8  -3043316.36946  23654323.144    23654338.9604
  20130720.400   -23313099.977 9 -17865933.61748  20130724.647    20130733.7294
  20522151.629   -22832242.690 9 -17774810.69648  20522154.303    20522164.0754
  22694863.006   -11793169.670 8  -9175773.61746  22694864.019    22694876.3354
  23647484.241    -7496678.435 8  -5535321.99346  23647486.225    23647498.3564
 00  4 22  0 20  0.0000000  0  6 06 09 26 17 23 10
  22477392.125   -13408266.412 8 -10433383.37146  22477393.874    22477407.6924
  23634649.809    -4024989.709 8  -3123879.02946  23634649.001    23634664.2684
  20137212.977   -23278990.820 9 -17839355.04048  20137215.525    20137224.5704
  20512658.557   -22882133.490 9 -17813686.59848  20512660.842    20512669.7814
  22684258.832   -11848897.010 8  -9219197.44547  22684260.070    22684272.6384
  23662103.586    -7419853.490 8  -5475458.45446  23662104.866    23662118.8334
 00  4 22  0 20 30.0000000  0  6 06 09 26 17 23 10
  22493257.017   -13324895.008 8 -10368418.76446  22493259.217    22493272.3314
  23614990.034    -4128298.163 8  -3204378.84246  23614989.363    23615004.5394
  20143803.932   -23244349.302 9 -17812361.63048  20143807.495    20143816.3344
  20503242.738   -22931606.766 9 -17852237.15348  20503245.859    20503255.3214
  22673669.597   -11904533.708 8  -9262550.64647  22673672.056    22673684.1334
  23676732.782    -7342981.784 8  -5415558.51145  23676732.041    23676747.7074
 00  4 22  0 21  0.0000000  0  6 06 09 26 17 23 10
  22509179.998   -13241237.550 8 -10303231.23646  22509179.892    22509191.9244
  23595343.228    -4231523.304 8  -3284813.71146  23595345.481    23595361.5544
  20150497.424   -23209179.927 9 -17784956.90748  20150500.153    20150508.9404
  20493907.784   -22980663.102 9 -17890462.82148  20493911.075    20493920.5484
  22663094.967   -11960078.499 8  -9305832.22547  22663102.417    22663114.3744
  23691368.332    -7266060.899 8  -5355620.24745  23691371.048    23691383.7564
 00  4 22  0 21 30.0000000  0  6 06 09 26 17 23 10
  22525149.694   -13157287.087 8 -10237815.41246  22525154.991    22525167.6574
  23575715.870    -4334675.862 8  -3365192.04746  23575716.540    23575732.3024
  20157291.348   -23173478.076 9 -17757137.26948  20157293.827    20157302.4654
  20484649.877   -23029315.071 9 -17928373.39348  20484652.433    20484662.2044
  22652548.661   -12015524.048 8  -9349036.47847  22652551.124    22652563.5164
  23706020.817    -7189087.924 8  -5295641.34545  23706018.670    23706030.9194
 00  4 22  0 22  0.0000000  0  6 06 09 26 17 23 10
  22541184.658   -13073042.084 8 -10172170.04946  22541186.508    22541198.9174
  23556100.689    -4437737.588 8  -3445499.60946  23556104.807    23556118.9774
  20164187.843   -23137243.392 9 -17728902.42948  20164189.017    20164197.3654
  20475465.281   -23077576.006 9 -17965979.26748  20475468.842    20475478.2024
  22642021.814   -12070859.543 8  -9392154.94647  22642021.012    22642033.0444
  23720671.176    -7112065.027 7  -5235623.58345  23720673.079    23720688.0844
 00  4 22  0 22 30.0000000  0  6 06 09 26 17 23 10
  22557274.121   -12988494.171 8 -10106288.65946  22557274.814    22557287.5614
  23536506.293    -4540710.262 8  -3525737.75746  23536509.282    23536524.1354
  20171178.043   -23100495.328 9 -17700267.56048  20171181.700    20171190.7334
  20466355.835   -23125440.034 9 -18003275.86948  20466360.405    20466370.1274
  22631513.444   -12126073.844 8  -9435178.98447  22631514.220    22631526.3344
  23735341.558    -7034985.766 8  -5175561.94645  23735343.479    23735356.4024
 00  4 22  0 23  0.0000000  0  6 06 09 26 17 23 10
  22573414.672   -12903644.409 8 -10040172.07146  22573421.535    22573434.2054
  23516924.923    -4643601.587 8  -3605912.56146  23516928.885    23516943.6934
  20178266.774   -23063243.811 9 -17671240.39148  20178270.489    20178279.3914
  20457325.493   -23172899.202 9 -18040256.99048  20457328.762    20457339.0874
  22621025.853   -12181170.246 8  -9478111.16547  22621029.480    22621041.5014
  23750015.771    -6957859.868 8  -5115463.89245  23750019.665    23750033.3754
 00  4 22  0 23 30.0000000  0  6 06 09 26 17 23 10
  22589615.321   -12818515.386 8  -9973837.89046  22589621.063    22589632.7974
  23497366.816    -4746385.096 8  -3686003.35046  23497369.705    23497385.6714
  20185448.978   -23025502.543 9 -17641831.59848  20185452.722    20185461.3034
  20448373.708   -23219942.934 9 -18076914.39448  20448376.715    20448387.1524
  22610568.245   -12236146.813 8  -9520949.94247  22610568.287    22610579.3484
  23764706.038    -6880693.750 8  -5055334.48845  23764704.065    23764717.8294
 00  4 22  0 24  0.0000000  0  6 06 09 26 17 23 10
  22605873.658   -12733110.427 8  -9907288.68646  22605873.563    22605885.3714
  23477830.289    -4849037.183 8  -3765991.70346  23477836.272    23477850.4224
  20192725.097   -22987274.112 9 -17612043.20048  20192727.373    20192736.2044
  20439501.999   -23266565.445 9 -18113243.57848  20439504.810    20439514.4014
  22600125.349   -12291002.784 8  -9563694.75547  22600129.263    22600141.1954
  23779386.851    -6803496.678 8  -4995181.03745  23779392.819    23779407.4644
 00  4 22  0 24 30.0000000  0  6 06 09 26 17 23 10
  22622175.499   -12647439.533 8  -9840532.25446  22622175.596    22622188.5674
  23458323.520    -4951558.103 8  -3845877.87746  23458326.777    23458340.8314
  20200092.981   -22948552.302 9 -17581870.35048  20200095.965    20200104.5864
  20430709.990   -23312761.506 9 -18149240.46248  20430713.950    20430723.7744
  22589707.868   -12345744.792 8  -9606350.76947  22589712.163    22589724.1764
  23794091.031    -6726268.481 8  -4935003.30245  23794089.334    23794103.6224
 00  4 22  0 25  0.0000000  0  6 06 09 26 17 23 10
  22638523.788   -12561518.655 8  -9773581.04546  22638525.923    22638538.8464
  23438839.564    -5053930.729 8  -3925648.44446  23438845.202    23438859.7584
  20207557.998   -22909324.084 9 -17551302.89748  20207560.295    20207569.2334
  20422003.014   -23358525.367 9 -18184900.56348  20422005.744    20422015.7444
  22579311.824   -12400377.331 8  -9648921.47647  22579314.990    22579327.2824
  23808784.205    -6649012.166 8  -4874803.63645  23808791.495    23808804.0304
 00  4 22  0 25 30.0000000  0  6 06 09 26 17 23 10
  22654922.444   -12475342.025 8  -9706430.55946  22654924.641    22654937.7184
  23419390.678    -5156160.604 8  -4005307.81146  23419390.492    23419406.0174
  20215121.924   -22869576.368 9 -17520330.64248  20215124.199    20215133.1804
  20413375.988   -23403860.137 9 -18220226.31448  20413378.660    20413388.9974
  22568940.605   -12454899.159 8  -9691405.93047  22568940.631    22568952.0324
  23823497.895    -6571717.548 8  -4814574.13445  23823500.260    23823513.7294
 00  4 22  0 26  0.0000000  0  6 06 09 26 17 23 10
  22671371.171   -12388894.856 8  -9639069.24746  22671376.221    22671388.6874
  23399960.131    -5258266.449 8  -4084870.53646  23399961.023    23399975.2404
  20222785.939   -22829295.545 9 -17488942.97648  20222789.260    20222798.0954
  20404829.097   -23448771.213 9 -18255221.90548  20404832.208    20404842.1564
  22558584.082   -12509311.307 8  -9733804.92247  22558586.502    22558597.3754
  23838214.538    -6494369.198 8  -4754302.80445  23838218.683    23838233.5274
 00  4 22  0 26 30.0000000  0  6 06 09 26 17 23 10
  22687869.677   -12302183.842 8  -9571502.34646  22687876.515    22687889.0084
  23380549.519    -5360253.435 8  -4164340.64946  23380553.201    23380567.0054
  20230549.561   -22788496.792 9 -17457151.73248  20230553.017    20230561.8944
  20396366.232   -23493243.563 9 -18289875.63548  20396369.402    20396378.8944
  22548249.284   -12563614.891 8  -9776119.29347  22548252.184    22548263.4924
  23852950.726    -6416946.236 8  -4693973.36745  23852950.997    23852966.9584
 00  4 22  0 27  0.0000000  0  6 06 09 26 17 23 10
  22704426.904   -12215198.325 8  -9503721.53446  22704429.063    22704441.3824
  23361166.329    -5462123.211 8  -4243719.44446  23361167.904    23361182.0584
  20238410.579   -22747201.146 9 -17424973.30748  20238411.883    20238420.3224
  20387990.560   -23537268.442 9 -18324180.68748  20387991.760    20388001.4954
  22537938.482   -12617809.289 8  -9818348.58247  22537939.623    22537951.0894
  23867696.667    -6339442.067 8  -4633580.60745  23867701.488    23867714.5884
 00  4 22  0 27 30.0000000  0  6 06 09 26 17 23 10
  22721033.050   -12127929.743 8  -9435720.13746  22721035.580    22721047.9314
  23341809.145    -5563881.157 8  -4323011.09246  23341804.364    23341817.9954
  20246360.269   -22705409.850 9 -17392408.64948  20246364.101    20246373.0824
  20379694.584   -23580850.903 9 -18358140.99248  20379698.078    20379707.9174
  22527646.209   -12671888.630 8  -9860488.22347  22527648.865    22527660.1254
  23882468.229    -6261848.743 8  -4573118.33845  23882467.405    23882479.9354
 00  4 22  0 28  0.0000000  0  6 06 09 26 17 23 10
  22737694.351   -12040390.170 8  -9367507.61146  22737693.173    22737707.0854
  23322460.497    -5665513.777 8  -4402205.06446  23322463.430    23322477.8664
  20254406.542   -22663128.507 9 -17359462.14248  20254409.964    20254419.1104
  20371489.493   -23623973.510 9 -18391742.97548  20371492.508    20371501.7584
  22517376.407   -12725856.927 8  -9902541.34047  22517379.170    22517390.2614
  23897239.826    -6184181.744 8  -4512598.65645  23897245.474    23897260.5474
 00  4 22  0 28 30.0000000  0  6 06 09 26 17 23 10
  22754399.336   -11952589.908 8  -9299091.94346  22754401.499    22754415.0874
  23303153.170    -5767024.093 8  -4481303.74146  23303147.143    23303161.1934
  20262544.417   -22620364.630 9 -17326139.63648  20262547.900    20262556.8724
  20363370.532   -23666633.169 9 -18424984.22048  20363374.299    20363384.0214
  22507126.383   -12779718.772 8  -9944511.50147  22507128.608    22507140.8394
  23912032.875    -6106457.728 8  -4452034.62745  23912035.685    23912052.3984
 00  4 22  0 29  0.0000000  0  6 06 09 26 17 23 10
  22771150.629   -11864532.943 8  -9230476.26046  22771158.175    22771172.9164
  23283847.318    -5868415.868 8  -4560310.08346  23283852.346    23283866.0104
  20270777.936   -22577098.027 9 -17292425.39648  20270781.090    20270790.1444
  20355338.175   -23708848.218 9 -18457879.00848  20355341.025    20355350.8574
  22496896.133   -12833478.382 8  -9986402.00447  22496898.498    22496910.6694
  23926828.529    -6028706.311 8  -4391449.25445  23926833.249    23926846.0124
 00  4 22  0 29 30.0000000  0  6 06 09 26 17 23 10
  22787952.301   -11776234.732 8  -9161672.57846  22787960.096    22787974.9884
  23264576.460    -5969682.753 8  -4639219.11546  23264582.137    23264595.9084
  20279110.122   -22533318.562 9 -17258311.52248  20279112.010    20279120.8474
  20347388.312   -23750628.593 9 -18490435.09148  20347390.693    20347400.0744
  22486687.395   -12887132.860 8 -10028210.59447  22486688.976    22486700.2434
  23941625.937    -5950939.984 8  -4330852.16545  23941631.050    23941644.7634
 00  4 22  0 30  0.0000000  0  6 06 09 26 17 23 10
  22804809.121   -11687704.052 8  -9092687.77046  22804808.026    22804822.3874
  23245332.864    -6070819.241 8  -4718026.54146  23245335.762    23245350.0694
  20287534.722   -22489034.755 9 -17223804.65548  20287538.719    20287547.8724
  20339519.627   -23791970.708 9 -18522649.68148  20339523.205    20339532.6784
  22476493.127   -12940683.138 8 -10069937.97647  22476497.375    22476509.4994
  23956429.090    -5873171.118 8  -4270253.08445  23956430.917    23956443.0174
 00  4 22  0 30 30.0000000  0  6 06 09 26 17 23 10
  22821694.995   -11598943.801 8  -9023524.05946  22821699.219    22821711.9174
  23226109.211    -6171831.548 8  -4796737.19746  23226114.381    23226128.2474
  20296058.875   -22444252.139 9 -17188909.11148  20296060.159    20296069.3234
  20331731.856   -23832897.852 9 -18554540.90548  20331735.205    20331744.8094
  22466327.169   -12994122.006 8 -10111578.54747  22466328.875    22466340.5714
  23971229.607    -5795383.592 8  -4209639.56545  23971231.723    23971246.8824
 00  4 22  0 31  0.0000000  0  6 06 09 26 17 23 10
  22838633.688   -11509958.936 8  -8954185.31946  22838632.214    22838645.5594
  23206918.277    -6272699.247 8  -4875335.19446  23206919.392    23206933.6904
  20304675.178   -22398972.365 9 -17153626.16248  20304676.801    20304685.7694
  20324024.652   -23873400.275 9 -18586101.18648  20324027.652    20324037.4604
  22456181.429   -13047436.329 8 -10153122.07947  22456183.157    22456194.6844
  23986031.832    -5717570.400 8  -4149006.02445  23986039.908    23986053.8514
 00  4 22  0 31 30.0000000  0  6 06 09 26 17 23 10
  22855609.338   -11420746.610 8  -8884669.35446  22855609.006    22855623.1784
  23187748.755    -6373406.794 8  -4953808.39646  23187755.112    23187769.3874
  20313382.077   -22353211.063 9 -17117967.99948  20313384.950    20313394.1034
  20316402.838   -23913456.471 9 -18617313.75148  20316405.168    20316414.7044
  22446059.230   -13100616.387 8 -10194560.99747  22446063.588    22446073.8494
  24000857.643    -5639715.117 8  -4088339.63845  24000856.247    24000869.5184
 00  4 22  0 32  0.0000000  0  6 06 09 26 17 23 10
  22872623.599   -11331311.294 8  -8814979.61646  22872628.012    22872641.2854
  23168621.874    -6473946.442 8  -5032150.79746  23168622.789    23168637.0754
  20322182.398   -22306969.826 9 -17081935.85348  20322184.950    20322193.2244
  20308868.678   -23953054.214 9 -18648169.08348  20308870.321    20308879.5844
  22435965.253   -13153664.902 8 -10235897.41747  22435968.378    22435979.2654
  24015680.130    -5561806.518 8  -4027631.68645  24015680.577    24015694.5944
 00  4 22  0 32 30.0000000  0  6 06 09 26 17 23 10
  22889682.903   -11241655.748 8  -8745118.29346  22889688.974    22889702.5054
  23149525.442    -6574298.544 8  -5110347.02146  23149526.367    23149540.2124
  20331071.208   -22260254.161 9 -17045534.03248  20331074.308    20331083.3884
  20301420.467   -23992181.054 9 -18678657.47248  20301423.953    20301433.5674
  22425893.368   -13206588.076 8 -10277136.15747  22425897.649    22425908.9254
  24030518.830    -5483838.233 8  -3966877.26145  24030516.462    24030531.9174
 00  4 22  0 33  0.0000000  0  6 06 09 26 17 23 10
  22906792.346   -11151779.005 8  -8675084.60246  22906792.144    22906804.3854
  23130462.344    -6674446.268 8  -5188384.00246  23130468.732    23130482.5734
  20340049.160   -22213073.170 9 -17008769.61548  20340052.265    20340061.2724
  20294068.341   -24030818.284 9 -18708764.34648  20294071.910    20294081.1634
  22415845.546   -13259406.303 9 -10318293.12147  22415847.209    22415858.0644
  24045364.710    -5405816.036 8  -3906080.89645  24045365.756    24045379.5354
 00  4 22  0 33 30.0000000  0  6 06 09 26 17 23 10
  22923935.761   -11061681.953 8  -8604879.20646  22923936.967    22923949.3204
  23111442.366    -6774395.402 8  -5266266.21046  23111449.126    23111462.5084
  20349114.046   -22165435.609 9 -16971649.43148  20349117.554    20349126.3624
  20286808.217   -24068973.847 9 -18738495.90548  20286811.171    20286820.4764
  22405810.964   -13312143.340 9 -10359386.83647  22405812.258    22405822.2264
  24060223.919    -5327740.063 8  -3845242.57545  24060223.529    24060237.4654
 00  4 22  0 34  0.0000000  0  6 06 09 26 17 23 10
  22941120.518   -10971363.127 8  -8534501.03446  22941124.654    22941138.3454
  23092461.035    -6874152.592 8  -5343998.87146  23092465.726    23092478.9984
  20358264.687   -22117347.532 9 -16934178.20548  20358268.593    20358277.0544
  20279637.224   -24106657.793 9 -18767859.96648  20279640.029    20279649.7614
  22395785.115   -13364809.533 8 -10400425.36747  22395789.302    22395799.2864
  24075082.028    -5249612.172 7  -3784363.78445  24075088.585    24075103.8454
 00  4 22  0 34 30.0000000  0  6 06 09 26 17 23 10
  22958354.498   -10880803.600 8  -8463935.30746  22958357.699    22958371.3654
  23073515.935    -6973734.209 8  -5421594.73646  23073515.784    23073529.2974
  20367499.566   -22068827.889 9 -16896370.68348  20367501.384    20367510.5254
  20272555.078   -24143871.182 9 -18796857.36548  20272558.611    20272568.1354
  22385775.375   -13417411.705 8 -10441413.98947  22385779.123    22385789.4754
  24089960.377    -5171436.768 7  -3723447.99045  24089964.463    24089980.7174
 00  4 22  0 35  0.0000000  0  6 06 09 26 17 23 10
  22975636.366   -10789998.982 8  -8393178.60346  22975637.500    22975649.8984
  23054590.360    -7073166.957 8  -5499074.60046  23054593.808    23054608.0484
  20376813.441   -22019877.159 9 -16858227.25048  20376816.354    20376825.3704
  20265562.475   -24180624.626 9 -18825496.35548  20265564.591    20265574.0214
  22375781.163   -13469946.799 8 -10482350.34247  22375781.941    22375792.3914
  24104847.603    -5093214.702 8  -3662495.84445  24104852.339    24104866.0064
 00  4 22  0 35 30.0000000  0  6 06 09 26 17 23 10
  22992958.609   -10698949.931 8  -8322231.43846  22992962.992    22992977.1174
  23035697.644    -7172450.629 8  -5576438.30346  23035700.064    23035714.4854
  20386210.263   -21970493.231 9 -16819746.25948  20386213.787    20386222.7994
  20258657.320   -24216914.046 9 -18853773.78448  20258658.897    20258668.1914
  22365799.423   -13522383.653 8 -10523210.14547  22365802.909    22365813.8954
  24119747.067    -5014945.854 8  -3601507.20445  24119745.380    24119761.8054
 00  4 22  0 36  0.0000000  0  6 06 09 26 17 23 10
  23010329.682   -10607666.885 8  -8251101.91746  23010333.537    23010346.9574
  23016834.067    -7271569.657 8  -5653673.67346  23016838.459    23016852.7584
  20395691.778   -21920670.475 9 -16780923.32048  20395695.022    20395703.9314
  20251840.436   -24252732.398 9 -18881684.14448  20251842.679    20251852.3894
  22355842.857   -13574700.033 8 -10563976.06147  22355847.343    22355858.0584
  24134651.959    -4936624.915 8  -3540478.02545  24134649.972    24134664.3944
 00  4 22  0 36 30.0000000  0  6 06 09 26 17 23 10
  23027746.608   -10516179.330 8  -8179813.03246  23027743.122    23027757.8884
  22998005.865    -7370511.140 8  -5730770.71146  22998011.619    22998023.8194
  20405259.543   -21870398.368 9 -16741750.24248  20405261.292    20405270.5384
  20245114.531   -24288071.240 9 -18909220.85948  20245118.038    20245127.5204
  22345912.646   -13626889.735 8 -10604643.28747  22345916.200    22345927.7304
  24149556.745    -4858252.291 8  -3479408.59345  24149562.568    24149578.3914
 00  4 22  0 37  0.0000000  0  6 06 09 26 17 23 10
  23045179.905   -10424518.299 8  -8108388.99046  23045186.788    23045200.0134
  22979226.894    -7469237.185 8  -5807699.90746  22979223.630    22979235.9504
  20414912.125   -21819662.745 9 -16702215.99748  20414915.941    20414925.0284
  20238484.084   -24322918.063 9 -18936374.19248  20238486.655    20238496.3344
  22336010.023   -13678937.697 8 -10645200.05847  22336012.261    22336022.6374
  24164486.936    -4779831.565 8  -3418301.63545  24164487.364    24164499.7444
 00  4 22  0 37 30.0000000  0  6 06 09 26 17 23 10
  23062656.533   -10332702.329 8  -8036844.21546  23062659.353    23062671.7244
  22960474.398    -7567730.287 8  -5884447.57046  22960479.973    22960494.0024
  20424660.088   -21768450.823 9 -16662310.59948  20424661.342    20424670.4014
  20231947.385   -24357265.424 9 -18963138.33248  20231950.979    20231959.8454
  22326127.723   -13730843.471 8 -10685646.03747  22326134.582    22326145.4094
  24179420.440    -4701361.908 8  -3357156.51845  24179419.212    24179432.7954
 00  4 22  0 38  0.0000000  0  6 06 09 26 17 23 10
  23080152.445   -10240742.281 8  -7965187.16646  23080158.905    23080171.5714
  22941773.195    -7665994.164 8  -5961016.61946  22941781.727    22941795.2974
  20434496.162   -21716753.817 9 -16622027.21648  20434499.130    20434507.7424
  20225506.395   -24391121.597 9 -18989519.73148  20225508.161    20225517.5484
  22316280.555   -13782626.803 8 -10725996.60447  22316280.542    22316291.6554
  24194353.172    -4622853.690 8  -3295981.37045  24194359.042    24194372.7814
 00  4 22  0 38 30.0000000  0  6 06 09 26 17 23 10
  23097681.257   -10148637.682 8  -7893417.48446  23097684.941    23097697.4564
  22923123.822    -7764039.340 8  -6037415.22446  22923123.567    22923137.4914
  20444424.673   -21664579.212 9 -16581371.68048  20444427.340    20444436.4794
  20219156.800   -24424478.324 9 -19015511.94848  20219160.395    20219169.8274
  22306443.752   -13834299.661 8 -10766261.09347  22306447.008    22306458.3774
  24209292.333    -4544311.872 7  -3234780.05545  24209304.910    24209319.9374
 00  4 22  0 39  0.0000000  0  6 06 09 26 17 23 10
  23115242.755   -10056365.036 8  -7821516.83346  23115244.086    23115255.3844
  22904501.579    -7861880.706 8  -6113655.03746  22904505.428    22904518.0164
  20454444.704   -21611926.400 9 -16540343.51348  20454446.692    20454455.9204
  20212903.320   -24457347.543 9 -19041124.30448  20212905.864    20212915.1064
  22296630.707   -13885864.420 8 -10806441.35047  22296634.593    22296644.8274
  24224254.902    -4465735.094 7  -3173551.52745  24224256.847    24224270.7284
 00  4 22  0 39 30.0000000  0  6 06 09 26 17 23 10
  23132838.176    -9963909.486 8  -7749473.67246  23132837.791    23132850.7114
  22885925.483    -7959542.630 8  -6189755.03146  22885921.573    22885933.9754
  20464553.552   -21558795.495 9 -16498942.80748  20464557.137    20464566.3294
  20206738.992   -24489741.929 9 -19066366.65248  20206741.285    20206750.3514
  22286840.622   -13937323.360 9 -10846539.14347  22286842.179    22286853.3814
  24239211.565    -4387115.304 8  -3112289.39345  24239218.480    24239232.1954
 00  4 22  0 40  0.0000000  0  6 06 09 26 17 23 10
  23150465.421    -9871249.832 8  -7677271.46946  23150470.172    23150483.4014
  22867366.790    -8057017.866 8  -6265709.55946  22867371.063    22867384.1554
  20474752.904   -21505204.405 9 -16457183.51048  20474755.421    20474764.3894
  20200666.716   -24521651.065 9 -19091230.88848  20200669.337    20200678.6014
  22277067.260   -13988675.188 8 -10886553.47547  22277070.810    22277082.0684
  24254190.626    -4308457.012 8  -3050997.32845  24254187.085    24254199.8624
 00  4 22  0 40 30.0000000  0  6 06 09 26 17 23 10
  23168136.830    -9778368.656 8  -7604896.64546  23168144.565    23168158.4454
  22848851.418    -8154307.934 8  -6341519.80246  22848857.612    22848870.6154
  20485035.283   -21451171.642 9 -16415080.05248  20485037.846    20485046.6494
  20194687.549   -24553066.463 9 -19115710.38948  20194690.954    20194700.6214
  22267322.115   -14039913.358 9 -10926479.24847  22267320.619    22267331.7264
  24269164.839    -4229753.333 7  -2989669.88245  24269162.428    24269178.5034
 00  4 22  0 41  0.0000000  0  6 06 09 26 17 23 10
  23185859.388    -9685258.036 8  -7532343.08446  23185863.382    23185877.6634
  22830377.514    -8251404.633 8  -6417179.33346  22830380.755    22830393.0954
  20495400.259   -21396699.036 9 -16372633.87148  20495403.149    20495412.1434
  20188804.108   -24583995.732 9 -19139811.09048  20188805.375    20188814.9494
  22257590.410   -14091038.717 9 -10966317.10547  22257592.002    22257602.4194
  24284148.414    -4151004.970 7  -2928307.61545  24284149.046    24284164.1804
 00  4 22  0 41 30.0000000  0  6 06 09 26 17 23 10
  23203616.944    -9591930.259 8  -7459620.29046  23203623.215    23203636.1684
  22811951.367    -8348279.105 8  -6492665.73146  22811945.723    22811958.6114
  20505847.059   -21341805.536 9 -16329859.70548  20505849.415    20505858.1304
  20183013.382   -24614418.271 9 -19163516.93748  20183016.168    20183025.2294
  22247879.731   -14142056.959 9 -11006071.50347  22247883.064    22247893.5254
  24299145.775    -4072211.919 8  -2866910.54945  24299143.296    24299158.2134
 00  4 22  0 42  0.0000000  0  6 06 09 26 17 23 10
  23221416.282    -9498407.436 8  -7386745.44146  23221420.170    23221432.5214
  22793549.625    -8444911.437 8  -6567963.45546  22793558.050    22793569.9644
  20516369.836   -21286504.469 9 -16286767.95948  20516372.819    20516381.6054
  20177321.201   -24644336.898 9 -19186830.13348  20177323.104    20177332.4904
  22238190.777   -14192974.705 9 -11045747.59647  22238193.546    22238204.4314
  24314142.680    -3993382.678 8  -2805485.22745  24314143.674    24314157.9584
 00  4 22  0 42 30.0000000  0  6 06 09 26 17 23 10
  23239245.440    -9404725.109 8  -7313746.33546  23239247.308    23239260.2224
  22775206.785    -8541296.288 8  -6643068.32746  22775215.293    22775228.7264
  20526971.706   -21230793.229 9 -16243356.60448  20526974.423    20526983.1944
  20171720.548   -24673762.870 9 -19209759.42748  20171723.035    20171732.6364
  22228524.997   -14243790.015 9 -11085343.86147  22228523.972    22228534.3334
  24329154.476    -3914504.276 7  -2744021.65545  24329153.817    24329167.4704
 00  4 22  0 43  0.0000000  0  6 06 09 26 17 23 10
  23257102.033    -9310907.848 8  -7240642.11546  23257099.689    23257113.8474
  22756912.761    -8637415.557 8  -6717966.27146  22756924.952    22756937.3094
  20537653.946   -21174660.254 9 -16199616.61548  20537655.778    20537664.7324
  20166215.109   -24702694.108 9 -19232303.22048  20166217.678    20166226.9264
  22218872.425   -14294504.891 9 -11124861.89147  22218873.451    22218884.1274
  24344164.377    -3835578.124 7  -2682520.87745  24344172.491    24344187.8034
 00  4 22  0 43 30.0000000  0  6 06 09 26 17 23 10
  23274976.719    -9216977.850 8  -7167450.06646  23274975.568    23274988.9214
  22738689.851    -8733265.245 8  -6792654.14046  22738684.558    22738697.3014
  20548414.691   -21118108.409 9 -16155550.23948  20548417.474    20548426.4334
  20160802.928   -24731124.006 9 -19254456.34848  20160807.437    20160816.9794
  22209243.236   -14345108.907 9 -11164293.51947  22209242.770    22209254.0654
  24359196.994    -3756606.057 7  -2620984.29445  24359200.768    24359214.9224
 00  4 22  0 44  0.0000000  0  6 06 09 26 17 23 10
  23292869.439    -9122933.725 8  -7094169.07146  23292870.881    23292885.2524
  22720490.697    -8828865.117 8  -6867147.32646  22720492.188    22720504.9274
  20559254.479   -21061138.892 9 -16111158.40548  20559258.274    20559267.0624
  20155489.668   -24759060.718 9 -19276225.18148  20155491.477    20155500.9324
  22199630.844   -14395602.347 9 -11203638.97147  22199634.557    22199645.7654
  24374234.768    -3677592.660 7  -2559415.50545  24374236.638    24374251.3994
 00  4 22  0 44 30.0000000  0  6 06 09 26 17 23 10
  23310786.615    -9028753.745 8  -7020782.18346  23310792.359    23310807.0784
  22702339.545    -8924231.716 8  -6941458.78046  22702345.473    22702357.1514
  20570175.450   -21003752.128 9 -16066441.43348  20570178.276    20570187.3784
  20150268.865   -24786485.135 9 -19297594.81548  20150272.572    20150282.1494
  22190042.151   -14445999.344 9 -11242909.28547  22190044.945    22190055.6544
  24389275.279    -3598539.533 7  -2497815.77245  24389279.042    24389295.4034
 00  4 22  0 45  0.0000000  0  6 06 09 26 17 23 10
  23328745.521    -8934424.640 8  -6947279.12646  23328742.619    23328757.0504
  22684239.873    -9019375.565 8  -7015596.66646  22684239.724    22684252.7324
  20581171.422   -20945952.190 9 -16021402.51048  20581177.235    20581186.2984
  20145150.542   -24813388.588 9 -19318558.50648  20145153.002    20145162.2054
  22180467.911   -14496306.624 9 -11282109.69647  22180471.326    22180482.8324
  24404328.022    -3519461.522 7  -2436196.65645  24404326.902    24404342.9494
 00  4 22  0 45 30.0000000  0  6 06 09 26 17 23 10
  23346726.601    -8839929.124 8  -6873646.38846  23346725.419    23346739.2594
  22666171.611    -9114303.682 8  -7089566.40446  22666174.886    22666187.5414
  20592251.118   -20887747.244 9 -15976048.00048  20592253.716    20592262.5274
  20140130.547   -24839767.952 9 -19339113.81148  20140133.123    20140142.5684
  22170911.411   -14546519.133 8 -11321236.24647  22170915.373    22170926.9494
  24419382.120    -3440351.471 7  -2374552.57345  24419381.471    24419396.0554
 00  4 22  0 46  0.0000000  0  6 06 09 26 17 23 10
  23364739.345    -8745256.246 8  -6799875.44046  23364740.971    23364754.1984
  22648143.137    -9209016.693 8  -7163368.54346  22648152.013    22648164.3024
  20603406.680   -20829123.260 9 -15930366.96448  20603409.136    20603417.9224
  20135210.818   -24865618.672 9 -19359257.19148  20135214.079    20135223.1674
  22161374.131   -14596639.559 8 -11360291.05047  22161377.595    22161388.8004
  24434446.317    -3361208.030 7  -2312882.46545  24434442.523    24434457.8064
 00  4 22  0 46 30.0000000  0  6 06 09 26 17 23 10
  23382784.843    -8650417.878 8  -6725975.54846  23382787.728    23382802.2024
  22630168.586    -9303501.008 8  -7236992.49946  22630171.503    22630183.7024
  20614643.898   -20770067.777 9 -15884349.68548  20614647.079    20614655.9844
  20130393.190   -24890933.679 9 -19378983.12848  20130396.730    20130405.4724
  22151859.351   -14646643.265 9 -11399254.90647  22151862.727    22151873.7894
  24449511.037    -3282023.805 7  -2251180.58945  24449511.967    24449526.2804
 00  4 22  0 47  0.0000000  0  6 06 09 26 17 23 10
  23400858.619    -8555428.477 8  -6651957.99246  23400863.127    23400878.4054
  22612242.181    -9397729.515 8  -7310417.13546  22612240.772    22612253.0114
  20625965.363   -20710574.262 9 -15837991.08448  20625968.387    20625977.0504
  20125677.567   -24915723.788 9 -19398300.05448  20125679.307    20125688.1544
  22142369.977   -14696502.265 8 -11438106.00247  22142374.785    22142385.6894
  24464586.872    -3202786.681 7  -2189437.49245  24464590.014    24464605.8464
 00  4 22  0 47 30.0000000  0  6 06 09 26 17 23 10
  23418966.170    -8460298.047 8  -6577830.53846  23418966.868    23418981.4284
  22594357.124    -9491685.695 8  -7383629.58846  22594362.158    22594372.7984
  20637369.324   -20650653.104 9 -15791299.26948  20637370.974    20637379.6634
  20121057.195   -24939998.089 9 -19417215.05448  20121059.958    20121069.0074
  22132912.170   -14746216.481 9 -11476844.27947  22132913.949    22132924.4894
  24479671.157    -3123504.078 7  -2127658.93045  24479677.841    24479691.3124
 00  4 22  0 48  0.0000000  0  6 06 09 26 17 23 10
  23437089.726    -8365051.537 8  -6503612.60546  23437092.460    23437105.2294
  22576532.819    -9585361.942 8  -7456623.88046  22576535.135    22576547.2994
  20648851.348   -20590316.375 9 -15744283.63348  20648852.918    20648861.6554
  20116533.705   -24963766.505 9 -19435735.85648  20116536.842    20116546.0344
  22123477.369   -14795789.629 9 -11515472.61847  22123480.564    22123491.1354
  24494769.821    -3044192.317 7  -2065857.67945  24494768.265    24494784.0204
 00  4 22  0 48 30.0000000  0  6 06 09 26 17 23 10
  23455230.416    -8269689.611 8  -6429304.72846  23455239.159    23455251.7214
  22558766.050    -9678752.104 8  -7529395.23146  22558763.523    22558775.9654
  20660404.458   -20529586.770 9 -15696961.85748  20660409.122    20660418.1514
  20112107.626   -24987032.126 9 -19453864.87448  20112109.596    20112118.4954
  22114070.373   -14845231.399 9 -11553998.60447  22114072.887    22114082.1374
  24509856.080    -2964853.243 7  -2004035.12045  24509868.052    24509881.2304
 00  4 22  0 49  0.0000000  0  6 06 09 26 17 23 10
  23473413.266    -8174207.213 8  -6354902.99645  23473409.308    23473421.0514
  22541042.088    -9771852.024 8  -7601940.42046  22541047.210    22541060.1124
  20672034.971   -20468480.586 9 -15649346.64048  20672037.431    20672046.4644
  20107776.845   -25009785.964 9 -19471595.10148  20107779.799    20107788.9234
  22104682.509   -14894573.545 9 -11592446.98147  22104683.879    22104692.6174
  24524960.399    -2885492.632 7  -1942195.77545  24524969.573    24524983.3864
 00  4 22  0 49 30.0000000  0  6 06 09 26 17 23 10
  23491595.140    -8078605.724 8  -6280408.47845  23491600.087    23491614.5214
  22523379.703    -9864675.659 8  -7674270.35546  22523383.833    22523394.9714
  20683733.243   -20407007.992 9 -15601445.89848  20683735.178    20683744.5404
  20103546.466   -25032015.376 9 -19488916.69348  20103549.642    20103558.9764
  22095306.746   -14943835.452 9 -11630832.83047  22095308.954    22095319.0294
  24540080.534    -2806112.697 7  -1880341.38345  24540074.464    24540089.7174
 00  4 22  0 50  0.0000000  0  6 06 09 26 17 23 10
  23509814.695    -7982879.361 8  -6205816.65645  23509816.878    23509832.1044
  22505774.864    -9957229.719 8  -7746390.23246  22505771.265    22505782.6464
  20695504.168   -20345158.284 9 -15553251.31648  20695505.084    20695513.7934
  20099420.247   -25053703.558 9 -19505816.54148  20099422.539    20099431.4924
  22085945.331   -14993016.647 8 -11669155.75847  22085949.144    22085960.9884
  24555195.689    -2726682.255 7  -1818447.69045  24555190.900    24555205.1094
 00  4 22  0 50 30.0000000  0  6 06 09 26 17 23 10
  23528051.158    -7887026.342 8  -6131126.14245  23528056.930    23528070.8674
  22488202.200   -10049508.858 8  -7818295.85346  22488209.236    22488222.4064
  20707346.034   -20282923.805 9 -15504756.92548  20707348.137    20707356.8164
  20095397.285   -25074840.589 9 -19522286.92248  20095400.436    20095409.1064
  22076599.685   -15042124.967 9 -11707421.90547  22076604.310    22076615.5194
  24570311.720    -2647179.218 7  -1756497.35945  24570318.484    24570335.6174
 00  4 22  0 51  0.0000000  0  6 06 09 26 17 23 10
  23546316.617    -7791065.956 8  -6056351.95845  23546318.531    23546331.5424
  22470696.753   -10141500.089 8  -7889977.15246  22470704.358    22470716.1374
  20719263.716   -20220302.258 9 -15455960.91648  20719264.138    20719272.7214
  20091477.878   -25095431.941 9 -19538332.10148  20091481.745    20091490.9994
  22067270.787   -15091153.588 9 -11745625.95047  22067274.701    22067285.4074
  24585468.235    -2567594.822 7  -1694483.64245  24585464.209    24585477.5364
 00  4 22  0 51 30.0000000  0  6 06 09 26 17 23 10
  23564597.698    -7695007.228 8  -5981501.15646  23564597.470    23564610.9794
  22453254.537   -10233206.761 8  -7961436.72646  22453254.055    22453265.1184
  20731250.809   -20157292.112 9 -15406862.10048  20731254.419    20731263.4044
  20087661.574   -25115492.288 9 -19553963.50648  20087664.121    20087673.6944
  22057957.626   -15140090.030 9 -11783758.17447  22057962.274    22057972.7794
  24600616.399    -2487934.143 7  -1632410.48544  24600619.154    24600638.2624
 00  4 22  0 52  0.0000000  0  6 06 09 26 17 23 10
  23582888.574    -7598855.516 8  -5906577.87246  23582896.101    23582908.4944
  22435853.985   -10324619.580 8  -8032667.32346  22435857.692    22435870.1294
  20743315.762   -20093894.231 9 -15357461.15148  20743318.343    20743327.6494
  20083944.344   -25135026.277 9 -19569184.76048  20083946.990    20083956.3214
  22048669.620   -15188923.161 9 -11821809.87947  22048669.403    22048680.5384
  24615792.116    -2408202.965 7  -1570282.41545  24615795.955    24615810.5804
 00  4 22  0 52 30.0000000  0  6 06 09 26 17 23 10
  23601209.447    -7502619.422 8  -5831588.86646  23601208.662    23601222.7594
  22418522.681   -10415722.587 8  -8103656.53246  22418521.344    22418533.2954
  20755453.341   -20030119.946 9 -15307766.91447  20755454.516    20755463.4764
  20080326.038   -25154036.651 9 -19583998.00548  20080329.319    20080338.8134
  22039395.491   -15237644.722 8 -11859774.63347  22039397.114    22039409.2504
  24630974.303    -2328426.163 7  -1508118.79945  24630975.343    24630991.0484
 00  4 22  0 53  0.0000000  0  6 06 09 26 17 23 10
  23619539.366    -7406289.646 8  -5756526.87946  23619539.938    23619552.5724
  22401238.207   -10506525.343 8  -8174411.76646  22401242.075    22401253.9924
  20767660.943   -19965974.319 9 -15257783.31447  20767661.320    20767669.8444
  20076811.003   -25172517.179 9 -19598398.39248  20076812.672    20076822.2884
  22030147.028   -15286235.223 9 -11897637.27547  22030151.128    22030162.2214
  24646172.113    -2248623.648 7  -1445935.11645  24646162.376    24646176.3684
 00  4 22  0 53 30.0000000  0  6 06 09 26 17 23 10
  23637889.825    -7309855.485 8  -5681383.54845  23637890.278    23637904.3104
  22384017.238   -10597037.314 8  -8244940.40146  22384018.176    22384029.6144
  20779936.417   -19901454.942 9 -15207508.48547  20779938.743    20779947.4474
  20073395.411   -25190465.534 9 -19612384.09348  20073397.226    20073406.5424
  22020930.936   -15334687.287 9 -11935392.06847  22020932.340    22020941.3864
  24661349.275    -2168806.030 7  -1383739.71045  24661350.253    24661365.1124
 00  4 22  0 54  0.0000000  0  6 06 09 26 17 23 10
  23656254.865    -7213318.936 8  -5606160.40845  23656261.097    23656274.2984
  22366850.412   -10687245.259 8  -8315232.15146  22366851.968    22366863.6654
  20792281.763   -19836565.777 9 -15156945.50347  20792286.564    20792295.2524
  20070081.097   -25207878.910 9 -19625952.92648  20070083.524    20070092.8964
  22011735.533   -15382993.477 9 -11973033.17347  22011738.310    22011749.2984
  24676539.355    -2088969.360 7  -1321529.43444  24676542.156    24676557.4554
 00  4 22  0 54 30.0000000  0  6 06 09 26 17 23 10
  23674651.288    -7116681.389 8  -5530858.56346  23674651.611    23674665.5514
  22349741.819   -10777148.553 8  -8385286.49546  22349743.456    22349755.7334
  20804701.706   -19771312.095 9 -15106098.48547  20804704.138    20804712.6924
  20066869.925   -25224756.054 9 -19639103.92048  20066871.708    20066881.1684
  22002572.925   -15431156.029 9 -12010562.33947  22002573.280    22002584.3484
  24691723.871    -2009114.495 7  -1259304.98644  24691738.453    24691752.1274
 00  4 22  0 55  0.0000000  0  6 06 09 26 17 23 10
  23693064.774    -7019939.374 8  -5455475.36345  23693059.594    23693074.4424
  22332691.194   -10866753.764 8  -8455108.56846  22332692.191    22332703.9524
  20817188.178   -19705687.090 9 -15054962.11747  20817192.402    20817201.1294
  20063759.207   -25241097.002 9 -19651837.09448  20063762.113    20063771.3394
  21993432.493   -15479188.364 9 -12047990.05247  21993434.206    21993444.0704
  24706940.459    -1929240.531 7  -1197065.63245  24706939.135    24706955.0434
 00  4 22  0 55 30.0000000  0  6 06 09 26 17 23 10
  23711475.462    -6923112.220 8  -5380025.80945  23711485.050    23711500.1474
  22315698.013   -10956046.266 8  -8524686.96547  22315700.843    22315712.6444
  20829748.520   -19639692.911 9 -15003538.09947  20829750.418    20829759.6324
  20060752.303   -25256902.565 9 -19664153.09348  20060754.367    20060763.5734
  21984310.146   -15527115.148 9 -12085335.51547  21984313.491    21984323.7364
  24722149.874    -1849336.131 7  -1134802.59645  24722146.870    24722158.8854
 00  4 22  0 56  0.0000000  0  6 06 09 26 17 23 10
  23729925.796    -6826209.185 8  -5304517.12845  23729925.602    23729939.4984
  22298764.755   -11045023.076 8  -8594019.39846  22298767.922    22298779.9914
  20842373.507   -19573337.498 9 -14951832.58847  20842377.401    20842386.2984
  20057849.526   -25272148.738 9 -19676033.19348  20057853.412    20057862.5004
  21975205.834   -15574954.874 9 -12122613.14347  21975210.060    21975219.2074
  24737352.500    -1769396.604 7  -1072512.19944  24737354.634    24737372.2904
 00  4 22  0 56 30.0000000  0  6 06 09 26 17 23 10
  23748376.623    -6729232.241 8  -5228950.85045  23748379.555    23748394.2284
  22281892.569   -11133686.289 8  -8663107.42946  22281896.603    22281908.0994
  20855074.010   -19506616.735 9 -14899842.38847  20855073.856    20855082.7864
  20055057.937   -25286822.687 9 -19687467.40748  20055060.814    20055070.1164
  21966119.540   -15622715.098 9 -12159828.85147  21966121.102    21966130.7794
  24752572.283    -1689419.045 7  -1010192.11544  24752576.647    24752592.1584
 00  4 22  0 57  0.0000000  0  6 06 09 26 17 23 10
  23766837.176    -6632185.220 8  -5153329.93145  23766847.891    23766862.1174
  22265081.241   -11222026.439 8  -8731943.76446  22265085.729    22265097.1674
  20867838.797   -19439524.139 9 -14847562.45747  20867841.621    20867849.8104
  20052373.671   -25300922.973 9 -19698454.61148  20052377.388    20052386.9264
  21957048.510   -15670393.152 9 -12196980.50147  21957048.238    21957058.6144
  24767799.176    -1609402.898 7   -947842.01044  24767802.625    24767819.7694
 00  4 22  0 57 30.0000000  0  6 06 09 26 17 23 10
  23785320.837    -6535074.438 8  -5077659.35145  23785327.262    23785342.4614
  22248338.849   -11310028.172 8  -8800516.40146  22248338.511    22248349.9684
  20880673.164   -19372073.167 9 -14795003.26647  20880676.991    20880685.6614
  20049801.074   -25314449.525 9 -19708994.75448  20049803.909    20049813.1414
  21947989.508   -15717976.534 9 -12234058.37347  21947993.457    21948003.5024
  24783031.024    -1529341.846 7   -885456.88544  24783035.827    24783051.5274
 00  4 22  0 58  0.0000000  0  5 06 09 26 17 23
  23803820.176    -6437886.919 8  -5001928.95645  23803821.481    23803836.6344
  22231653.818   -11397683.728 8  -8868819.28546  22231658.649    22231670.2924
  20893573.731   -19304266.119 9 -14742166.61547  20893579.731    20893588.7844
  20047336.054   -25327400.244 9 -19719086.19248  20047339.299    20047348.7984
  21938958.653   -15765445.776 9 -12271047.34947  21938960.340    21938970.0514
 00  4 22  0 58 30.0000000  0  5 06 09 26 17 23
  23822327.340    -6340618.336 8  -4926135.44745  23822330.702    23822345.8934
  22215046.109   -11484981.911 8  -8936843.69546  22215046.980    22215058.1034
  20906547.461   -19236097.848 9 -14689048.48947  20906551.994    20906560.6454
  20044977.182   -25339795.700 9 -19728744.96248  20044980.198    20044989.6024
  21929948.081   -15812782.425 9 -12307932.98647  21929951.492    21929962.4824
 00  4 22  0 59  0.0000000  0  5 06 09 26 17 23
  23840848.509    -6243272.412 8  -4850281.62945  23840855.361    23840869.3074
  22198496.334   -11571921.442 8  -9004588.64146  22198501.823    22198513.4144
  20919587.100   -19167584.972 9 -14635661.83447  20919589.263    20919598.3284
  20042724.212   -25351643.819 9 -19737977.23948  20042725.701    20042734.8804
  21920964.675   -15859990.056 9 -12344718.10247  21920969.004    21920979.3484
 00  4 22  0 59 30.0000000  0  5 06 09 26 17 23
  23859389.245    -6145859.534 8  -4774375.68045  23859393.310    23859407.9544
  22182021.332   -11658506.286 8  -9072057.22446  22182025.869    22182036.5004
  20932686.369   -19098741.924 9 -14582017.91047  20932689.300    20932698.7624
  20040572.196   -25362937.211 9 -19746777.26048  20040576.700    20040586.0924
  21912003.211   -15907076.090 9 -12381408.46247  21912008.454    21912018.9754
 00  4 22  1  0  0.0000000  0  5 06 09 26 17 23
  23877928.323    -6048380.877 7  -4698418.42745  23877939.855    23877957.2434
  22165611.668   -11744752.332 8  -9139261.79247  22165614.034    22165625.0784
  20945849.595   -19029570.482 9 -14528118.10047  20945852.670    20945861.4834
  20038533.219   -25373671.938 9 -19755141.95948  20038533.902    20038543.2254
  21903069.382   -15954044.573 9 -12418007.22947  21903071.170    21903080.9634
 00  4 22  1  0 30.0000000  0  5 06 09 26 17 23
  23896492.587    -5950846.757 7  -4622418.03445  23896502.506    23896517.5144
  22149260.258   -11830663.628 8  -9206205.52047  22149265.111    22149276.2474
  20959071.432   -18960078.780 9 -14473968.72747  20959076.332    20959085.8114
  20036594.622   -25383854.002 9 -19763076.01248  20036596.260    20036605.3004
  21894151.696   -16000902.781 9 -12454520.04547  21894154.066    21894164.3844
 00  4 22  1  1  0.0000000  0  5 06 09 26 17 23
  23915063.910    -5853269.844 8  -4546384.23745  23915071.491    23915086.0494
  22132981.100   -11916244.015 8  -9272891.37147  22132980.312    22132991.5254
  20972357.568   -18890274.725 9 -14419575.97047  20972359.511    20972369.2904
  20034764.295   -25393471.878 9 -19770570.43848  20034766.128    20034775.1964
  21885252.573   -16047662.196 9 -12490955.88647  21885255.979    21885266.1724
 00  4 22  1  1 30.0000000  0  5 06 09 26 17 23
  23933650.000    -5755644.378 8  -4470312.63745  23933648.327    23933662.4714
  22116753.356   -12001489.212 8  -9339316.06747  22116758.386    22116769.6084
  20985701.038   -18820144.679 9 -14364929.18447  20985705.687    20985714.4264
  20033043.095   -25402520.388 9 -19777621.19448  20033044.487    20033053.2874
  21876373.040   -16094315.682 9 -12527309.17547  21876378.120    21876388.2584
 00  4 22  1  2  0.0000000  0  6 06 03 09 26 17 23
  23952224.258    -5657956.467 7  -4394192.32545  23952236.553    23952253.0204
  24639229.621     -966968.82117   -743929.02855  24639227.865    24639242.0754
  22100601.730   -12086396.134 8  -9405477.15147  22100601.206    22100612.0464
  20999110.171   -18749684.029 9 -14310024.78247  20999113.099    20999122.0764
  20031427.520   -25411007.714 9 -19784234.67248  20031429.546    20031438.0824
  21867518.789   -16140857.428 9 -12563575.39847  21867520.975    21867531.0224
 00  4 22  1  2 30.0000000  0  6 06 03 09 26 17 23
  23970829.081    -5560230.230 8  -4318042.19045  23970834.416    23970851.7284
  24631545.357    -1007340.931 7   -775387.71345  24631544.970    24631557.7024
  22084504.824   -12170956.687 8  -9471368.35147  22084509.852    22084520.3354
  21012587.106   -18678885.236 9 -14254856.90347  21012586.666    21012594.9884
  20029918.337   -25418931.755 9 -19790409.22348  20029921.036    20029929.9164
  21858686.447   -16187279.148 9 -12599748.09247  21858688.066    21858696.9344
 00  4 22  1  3  0.0000000  0  6 06 03 09 26 17 23
  23989430.872    -5462471.866 8  -4241867.06045  23989437.717    23989453.1144
  24623944.433    -1047225.889 7   -806466.81845  24623953.752    24623969.9464
  22068484.700   -12255174.860 8  -9536992.77347  22068483.118    22068493.5724
  21026123.259   -18607738.282 9 -14199417.72747  21026125.410    21026134.1224
  20028518.310   -25426288.588 9 -19796141.79248  20028521.008    20028529.9494
  21849876.525   -16233574.450 9 -12635822.29147  21849878.786    21849887.0484
 00  4 22  1  3 30.0000000  0  6 06 03 09 26 17 23
  24008047.729    -5364676.634 8  -4165663.13545  24008049.119    24008063.2854
  24616448.460    -1086612.200 7   -837157.32445  24616458.393    24616472.7034
  22052517.355   -12339044.882 8  -9602345.92647  22052523.002    22052533.4634
  21039728.512   -18536248.234 9 -14143711.20247  21039729.197    21039737.7554
  20027224.463   -25433080.742 9 -19801434.35448  20027228.741    20027237.5654
  21841093.225   -16279735.079 9 -12671791.52947  21841093.693    21841103.5364
 00  4 22  1  4  0.0000000  0  6 06 03 09 26 17 23
  24026664.533    -5266865.177 8  -4089446.59245  24026661.036    24026675.2964
  24609054.383    -1125504.955 7   -867463.29145  24609057.881    24609073.8624
  22036631.236   -12422555.073 8  -9667418.66447  22036631.483    22036642.4484
  21053392.062   -18464422.447 9 -14087743.06347  21053397.068    21053406.0484
  20026040.582   -25439313.073 9 -19806290.68448  20026042.599    20026051.2754
  21832334.187   -16325762.939 9 -12707657.32347  21832335.444    21832344.7314
 00  4 22  1  4 30.0000000  0  6 06 03 09 26 17 23
  24045271.191    -5169050.746 7  -4013227.70345  24045273.014    24045288.3824
  24601746.031    -1163895.743 7   -897378.09845  24601752.540    24601767.3634
  22020808.247   -12505691.310 8  -9732200.01447  22020811.444    22020822.0814
  21067126.369   -18392259.229 9 -14031511.99347  21067129.538    21067137.9854
  20024959.797   -25444980.809 9 -19810707.06548  20024963.694    20024973.1974
  21823599.404   -16371666.587 9 -12743426.33747  21823599.640    21823609.7304
 00  4 22  1  5  0.0000000  0  6 06 03 09 26 17 23
  24063885.620    -5071203.561 7  -3936983.27945  24063893.855    24063910.1314
  24594540.499    -1201778.227 7   -926896.84545  24594543.866    24594559.3414
  22005062.096   -12588439.149 8  -9796678.72247  22005064.581    22005075.6684
  21080921.968   -18319764.194 9 -13975022.36647  21080924.051    21080933.5734
  20023990.060   -25450083.155 9 -19814682.89648  20023992.955    20024002.3804
  21814880.158   -16417464.581 9 -12779113.02147  21814884.643    21814894.7034
 00  4 22  1  5 30.0000000  0  7 06 03 09 26 17 23 21
  24082524.153    -4973315.526 8  -3860707.05945  24082522.952    24082537.9254
  24587432.044    -1239160.376 7   -956025.65045  24587429.781    24587444.8314
  21989388.247   -12670781.198 8  -9860841.23147  21989395.413    21989406.3344
  21094776.781   -18246948.028 9 -13918282.50147  21094781.050    21094789.5314
  20023127.663   -25454611.589 9 -19818211.53048  20023131.180    20023140.5534
  21806186.049   -16463171.194 9 -12814728.52047  21806187.262    21806196.1644
  24989157.318     -189146.38917   -136952.91055  24989164.727    24989179.2664
 00  4 22  1  6  0.0000000  0  7 06 03 09 26 17 23 21
  24101161.546    -4875390.667 7  -3784402.19245  24101156.800    24101172.8364
  24580409.928    -1276047.758 7   -984768.97045  24580411.200    24580425.9254
  21973804.289   -12752717.318 8  -9924687.42747  21973804.174    21973814.1934
  21108694.429   -18173810.448 9 -13861292.19447  21108698.239    21108707.7324
  20022377.082   -25458558.451 9 -19821286.97948  20022380.097    20022389.4944
  21797503.898   -16508788.713 9 -12850274.59447  21797505.872    21797515.4304
  24974457.192     -266431.819 7   -197175.19145  24974458.146    24974472.5194
 00  4 22  1  6 30.0000000  0  7 06 03 09 26 17 23 21
  24119785.892    -4777420.121 7  -3708061.75145  24119799.454    24119815.2144
  24573483.300    -1312435.281 7  -1013122.79545  24573486.233    24573500.3514
  21958280.439   -12834260.430 8  -9988227.40047  21958285.709    21958296.9444
  21122671.386   -18100357.690 9 -13804056.28447  21122675.877    21122685.6594
  20021739.102   -25461910.661 9 -19823899.06748  20021742.678    20021751.6174
  21788840.291   -16554309.251 9 -12885745.10647  21788843.552    21788853.8154
  24959734.842     -343759.800 7   -257430.57345  24959740.780    24959758.3914
 00  4 22  1  7  0.0000000  0  7 06 03 09 26 17 23 21
  24138441.560    -4679402.174 7  -3631684.29145  24138453.153    24138466.9514
  24566648.753    -1348321.815 7  -1041086.28245  24566658.096    24566671.1084
  21942840.591   -12915418.261 8 -10051467.16147  21942842.033    21942852.3714
  21136710.477   -18026600.409 9 -13746583.09447  21136711.441    21136720.7444
  20021214.779   -25464666.174 9 -19826046.19448  20021218.100    20021227.0894
  21780200.087   -16599713.651 9 -12921125.11947  21780203.633    21780213.4894
  24945007.216     -421135.703 7   -317723.34045  24945017.285    24945031.8974
 00  4 22  1  7 30.0000000  0  7 06 03 09 26 17 23 21
  24157109.114    -4581369.620 8  -3555295.47345  24157107.137    24157123.2534
  24559915.828    -1383707.468 8  -1068659.40445  24559924.068    24559938.6464
  21927469.542   -12996201.668 8 -10114415.14347  21927469.706    21927480.1494
  21150799.778   -17952555.089 9 -13688885.44347  21150802.031    21150811.0814
  20020804.327   -25466826.501 9 -19827729.54148  20020806.759    20020815.9734
  21771585.691   -16644983.415 9 -12956400.21347  21771589.652    21771599.1114
  24930285.867     -498562.050 7   -378055.41045  24930284.161    24930299.0524
 00  4 22  1  8  0.0000000  0  7 06 03 09 26 17 23 21
  24175758.476    -4483351.581 7  -3478917.96245  24175759.370    24175776.2774
  24553285.070    -1418579.360 7  -1095832.22745  24553286.941    24553300.7474
  21912166.475   -13076621.019 8 -10177079.45547  21912166.415    21912176.5444
  21164939.716   -17878222.198 9 -13630963.72147  21164946.722    21164956.2874
  20020505.450   -25468402.703 9 -19828957.72448  20020506.820    20020515.8964
  21763000.561   -16690102.207 9 -12991557.68047  21763003.146    21763013.0234
  24915544.605     -576037.265 7   -438425.56245  24915540.939    24915555.6944
 00  4 22  1  8 30.0000000  0  7 06 03 09 26 17 23 21
  24194404.472    -4385354.214 8  -3402556.56445  24194408.503    24194424.5744
  24546749.453    -1452942.318 7  -1122608.44245  24546747.821    24546761.2934
  21896932.038   -13156671.157 8 -10239456.07247  21896932.888    21896943.3174
  21179143.478   -17803605.139 9 -13572820.56847  21179146.049    21179154.8214
  20020311.488   -25469408.995 9 -19829741.83348  20020315.420    20020324.4204
  21754443.879   -16735074.470 9 -13026600.95647  21754445.168    21754455.1274
  24900786.687     -653558.793 7   -498831.79545  24900789.262    24900802.0234
 00  4 22  1  9  0.0000000  0  7 06 03 09 26 17 23 21
  24213044.760    -4287384.944 7  -3326217.07945  24213049.854    24213068.8064
  24540298.038    -1486808.758 7  -1148997.80045  24540304.083    24540318.1404
  21881769.240   -13236337.974 8 -10301533.99047  21881772.628    21881783.2894
  21193397.740   -17728701.495 9 -13514454.11047  21193400.169    21193408.8344
  20020227.321   -25469860.180 9 -19830093.39448  20020229.774    20020238.5774
  21745908.906   -16779923.731 9 -13061548.38447  21745910.640    21745920.6754
  24886026.341     -731115.658 7   -559265.58345  24886029.739    24886045.4674
 00  4 22  1  9 30.0000000  0  7 06 03 09 26 17 23 21
  24231679.418    -4189453.166 7  -3249906.78245  24231687.735    24231701.8314
  24533948.251    -1520188.006 7  -1175007.53945  24533951.103    24533965.3314
  21866684.300   -13315608.692 8 -10363303.26447  21866687.663    21866698.6714
  21207707.028   -17653512.637 9 -13455865.39747  21207707.940    21207716.8934
  20020245.328   -25469763.713 9 -19830018.20748  20020247.925    20020256.7514
  21737395.489   -16824670.535 9 -13096415.97747  21737395.943    21737405.6604
  24871267.437     -808700.206 7   -619720.90045  24871264.613    24871281.1944
 00  4 22  1 10  0.0000000  0  7 06 03 09 26 17 23 21
  24250308.786    -4091535.157 7  -3173607.18145  24250321.592    24250335.3824
  24527690.173    -1553077.940 7  -1200635.93145  24527691.707    24527704.9354
  21851680.311   -13394469.936 9 -10424753.47447  21851681.223    21851691.7894
  21222068.007   -17578030.911 9 -13397048.48947  21222071.713    21222081.2054
  20020367.615   -25469119.387 9 -19829516.12048  20020370.398    20020379.1574
  21728894.190   -16869323.845 9 -13131210.72447  21728898.073    21728907.9874
  24856492.247     -886301.231 7   -680189.12545  24856498.254    24856513.3154
 00  4 22  1 10 30.0000000  0  7 06 03 09 26 17 23 21
  24268954.188    -3993604.542 7  -3097297.77645  24268954.841    24268972.2874
  24521523.568    -1585477.609 7  -1225882.33245  24521527.816    24521542.3944
  21836751.563   -13472905.800 9 -10485872.21747  21836755.664    21836765.4904
  21236486.561   -17502265.565 9 -13338010.57547  21236489.662    21236498.7234
  20020595.502   -25467915.782 9 -19828578.22548  20020599.531    20020608.3514
  21720413.941   -16913897.679 9 -13165943.54447  21720416.375    21720425.9644
  24841729.708     -963920.211 7   -740671.35645  24841728.541    24841741.5474
 00  4 22  1 11  0.0000000  0  7 06 03 09 26 17 23 21
  24287591.364    -3895660.489 8  -3020977.92645  24287594.417    24287610.5234
  24515456.502    -1617375.842 7  -1250738.03245  24515458.417    24515470.3444
  21821910.319   -13550905.537 9 -10546651.10347  21821912.126    21821922.2634
  21250959.438   -17426220.339 9 -13278754.56847  21250960.685    21250969.5304
  20020938.064   -25466127.419 9 -19827184.68748  20020939.903    20020948.8784
  21711947.458   -16958382.674 9 -13200607.12247  21711950.716    21711961.0674
  24826948.265    -1041556.738 7   -801167.24545  24826956.640    24826965.7194
 00  4 22  1 11 30.0000000  0  8 06 03 09 26 17 29 23 21
  24306228.150    -3797693.817 7  -2944640.43045  24306236.549    24306253.3604
  24509484.067    -1648748.572 8  -1275184.22345  24509487.747    24509500.8484
  21807143.338   -13628475.813 8 -10607095.38647  21807150.707    21807161.0954
  21265479.783   -17349904.758 9 -13219287.90447  21265482.917    21265491.4384
  20021393.588   -25463726.275 9 -19825313.65448  20021396.687    20021405.7994
  24548723.377    -1431808.64617  -1092156.02655  24548721.102    24548739.2054
  21703504.535   -17002753.830 9 -13235181.96647  21703507.235    21703517.4814
  24812175.463    -1119211.518 7   -861677.30945  24812174.397    24812192.1234
 00  4 22  1 12  0.0000000  0  8 06 03 09 26 17 29 23 21
  24324863.515    -3699703.427 7  -2868284.47945  24324884.281    24324899.8694
  24503615.443    -1679590.434 7  -1299216.75245  24503617.846    24503631.2664
  21792469.448   -13705616.854 8 -10667205.14747  21792471.373    21792482.1694
  21280052.758   -17273313.303 9 -13159606.27747  21280058.016    21280066.6114
  20021969.583   -25460693.396 9 -19822950.36348  20021973.735    20021982.9074
  24530751.682    -1526219.850 7  -1165722.87445  24530755.272    24530773.4264
  21695082.993   -17047001.192 9 -13269660.33647  21695086.904    21695097.1674
  24797397.666    -1196887.887 7   -922204.20845  24797393.506    24797409.7054
 00  4 22  1 12 30.0000000  0  8 06 03 09 26 17 29 23 21
  24343526.702    -3601707.407 7  -2791924.13345  24343531.806    24343548.7054
  24497848.507    -1709911.269 7  -1322843.29645  24497849.000    24497861.9534
  21777870.571   -13782323.356 8 -10726976.33647  21777874.452    21777885.0644
  21294682.237   -17196442.598 9 -13099707.04447  21294686.298    21294694.5634
  20022670.849   -25457020.721 9 -19820088.53748  20022672.721    20022681.9014
  24512820.015    -1620493.976 7  -1239182.83945  24512815.715    24512832.5834
  21686689.057   -17091121.832 9 -13304039.98647  21686691.365    21686701.3434
  24782606.546    -1274593.867 7   -982754.23345  24782608.004    24782623.0324
 00  4 22  1 13  0.0000000  0  8 06 03 09 26 17 29 23 21
  24362173.176    -3503724.206 7  -2715573.76045  24362176.061    24362195.5504
  24492170.788    -1739725.890 8  -1346075.41045  24492176.026    24492188.7624
  21763358.151   -13858599.433 8 -10786412.13147  21763359.137    21763369.6854
  21309365.264   -17119286.973 9 -13039585.80347  21309368.152    21309376.4974
  20023487.633   -25452718.349 9 -19816736.03848  20023491.253    20023500.6574
  24494901.689    -1714629.313 7  -1312534.71045  24494903.874    24494918.2434
  21678317.889   -17135109.962 9 -13338316.40347  21678320.580    21678330.7564
  24767808.468    -1352324.217 7  -1043323.14545  24767814.851    24767833.1734
 00  4 22  1 13 30.0000000  0  8 06 03 09 26 17 29 23 21
  24380822.764    -3405762.091 7  -2639239.84845  24380818.681    24380835.8384
  24486597.658    -1769035.727 7  -1368914.19445  24486596.577    24486609.7174
  21748923.998   -13934441.457 8 -10845509.71147  21748926.859    21748937.1824
  21324101.273   -17041845.679 9 -12979241.95947  21324104.874    21324113.8304
  20024420.539   -25447818.499 9 -19812917.97048  20024423.967    20024432.8144
  24477010.835    -1808634.809 7  -1385785.44645  24477013.793    24477029.3764
  21669970.043   -17178973.970 9 -13372496.10847  21669973.146    21669983.4284
  24753020.145    -1430077.478 7  -1103909.95345  24753020.387    24753036.2634
 00  4 22  1 14  0.0000000  0  8 06 03 09 26 17 29 23 21
  24399461.812    -3307846.772 7  -2562942.34545  24399453.509    24399470.4204
  24481111.730    -1797843.226 7  -1391361.56045  24481115.454    24481128.7294
  21734574.269   -14009836.483 8 -10904258.97747  21734579.770    21734590.5754
  21338891.695   -16964122.066 9 -12918678.12747  21338894.848    21338903.9414
  20025462.316   -25442352.500 9 -19808658.74748  20025464.407    20025473.2024
  24459157.893    -1902494.457 7  -1458922.49445  24459151.304    24459167.8684
  21661645.026   -17222723.797 9 -13406586.83347  21661648.323    21661657.9664
  24738226.144    -1507863.640 7  -1164522.38445  24738218.632    24738233.2934
 00  4 22  1 14 30.0000000  0  8 06 03 09 26 17 29 23 21
  24418074.915    -3209984.968 7  -2486686.59445  24418074.405    24418091.6604
  24475727.315    -1826130.177 7  -1413403.28145  24475730.444    24475745.4674
  21720316.096   -14084796.428 9 -10962669.21647  21720315.273    21720325.9444
  21353733.840   -16886124.669 9 -12857900.95447  21353736.685    21353746.5804
  20026608.991   -25436328.606 9 -19803964.80748  20026610.514    20026619.4864
  24441312.708    -1996197.150 7  -1531937.25445  24441318.874    24441336.8144
  21653343.829   -17266356.740 9 -13440586.46947  21653345.535    21653354.8664
  24723402.793    -1585683.035 7  -1225160.71845  24723409.571    24723423.5254
 00  4 22  1 15  0.0000000  0  8 06 03 09 26 17 29 23 21
  24436692.433    -3112181.058 7  -2410475.92745  24436686.142    24436704.4004
  24470446.959    -1853877.454 7  -1435024.50845  24470451.192    24470465.0204
  21706128.995   -14159321.148 9 -11020740.32247  21706133.783    21706144.7934
  21368625.435   -16807863.712 9 -12796918.44347  21368629.097    21368639.1294
  20027860.419   -25429745.024 9 -19798834.74448  20027863.129    20027872.3384
  24423515.598    -2089736.513 7  -1604824.79745  24423519.346    24423535.6304
  21645063.106   -17309872.481 9 -13474494.78147  21645064.771    21645074.1634
  24708588.438    -1663534.978 7  -1285824.40045  24708594.338    24708607.9244
 00  4 22  1 15 30.0000000  0  8 06 03 09 26 17 29 23 21
  24455282.262    -3014435.120 7  -2334310.46745  24455287.628    24455304.0724
  24465270.973    -1881071.646 7  -1456214.75245  24465277.574    24465290.2884
  21692034.751   -14233412.932 9 -11078474.07347  21692035.106    21692045.1864
  21383567.636   -16729347.032 9 -12735736.63847  21383570.424    21383580.2094
  20029223.473   -25422589.027 9 -19793258.63548  20029225.202    20029234.0364
  24405742.192    -2183100.272 7  -1677575.49445  24405754.041    24405769.3214
  21636804.046   -17353258.427 9 -13508301.92947  21636807.476    21636818.0234
  24693773.020    -1741427.140 7  -1346519.40745  24693770.377    24693786.8774
 00  4 22  1 16  0.0000000  0  8 06 03 09 26 17 29 23 21
  24473870.628    -2916750.658 7  -2258192.89945  24473875.513    24473891.9254
  24460198.659    -1907724.066 7  -1476982.73445  24460202.028    24460218.9434
  21678010.671   -14307081.765 9 -11135878.25447  21678015.295    21678025.7594
  21398557.158   -16650579.603 9 -12674359.45247  21398560.082    21398569.0844
  20030699.671   -25414829.931 9 -19787212.57848  20030701.841    20030710.4524
  24388024.287    -2276273.570 7  -1750177.76245  24388023.647    24388040.0974
  21628574.998   -17396508.540 9 -13542003.23247  21628578.119    21628587.4354
  24678934.343    -1819358.691 7  -1407245.11745  24678941.361    24678958.1054
 00  4 22  1 16 30.0000000  0  8 06 03 09 26 17 29 23 21
  24492439.272    -2819107.896 7  -2182107.78845  24492456.014    24492473.5064
  24455231.804    -1933855.156 7  -1497344.64845  24455232.959    24455246.1614
  21664075.317   -14380333.952 9 -11192957.75747  21664076.350    21664086.2194
  21413595.050   -16571554.933 9 -12612781.81947  21413597.585    21413607.3114
  20032293.824   -25406452.145 9 -19780684.42848  20032295.791    20032304.6144
  24370324.325    -2369268.163 7  -1822640.79945  24370327.137    24370341.4534
  21620370.552   -17439622.543 9 -13575598.47547  21620373.615    21620382.5424
  24664093.056    -1897319.110 7  -1467993.30345  24664105.493    24664121.5274
 00  4 22  1 17  0.0000000  0  8 06 03 09 26 17 29 23 21
  24511026.454    -2721499.413 7  -2106049.48045  24511033.078    24511047.7384
  24450348.645    -1959489.122 7  -1517319.09045  24450353.628    24450369.2114
  21650216.634   -14453157.612 9 -11249703.37747  21650218.602    21650229.0374
  21428681.875   -16492273.352 9 -12551004.00447  21428685.219    21428694.4634
  20034001.725   -25397465.409 9 -19773681.77348  20034005.528    20034014.6534
  24352662.288    -2462086.561 7  -1894966.54245  24352663.183    24352677.5154
  21612190.517   -17482607.922 9 -13609093.47047  21612193.180    21612202.9084
  24649267.251    -1975304.181 7  -1528760.67545  24649265.319    24649281.8584
 00  4 22  1 17 30.0000000  0  7 03 09 26 17 29 23 21
  24445566.958    -1984629.040 7  -1536908.62745  24445570.939    24445584.6654
  21636439.850   -14525553.541 9 -11306115.69347  21636441.977    21636451.8754
  21443820.040   -16412732.898 9 -12489024.45747  21443820.813    21443830.4324
  20035828.682   -25387879.462 9 -19766212.20348  20035830.027    20035838.7184
  24335034.035    -2554742.553 8  -1967165.77645  24335033.546    24335046.0834
  21604035.816   -17525465.705 9 -13642489.05047  21604037.825    21604047.7894
  24634418.553    -2053312.655 7  -1589546.34345  24634420.659    24634435.6734
 00  4 22  1 18  0.0000000  0  7 03 09 26 17 29 23 21
  24440882.298    -2009270.038 7  -1556109.37345  24440879.494    24440896.8944
  21622745.118   -14597517.758 9 -11362191.62347  21622747.398    21622757.1344
  21459004.177   -16332926.583 9 -12426837.74847  21459007.657    21459016.8364
  20037763.268   -25377702.609 9 -19758282.18548  20037766.531    20037775.4234
  24317420.970    -2647250.004 7  -2039249.17445  24317430.101    24317441.8254
  21595901.520   -17568211.843 9 -13675797.66747  21595903.546    21595912.4794
  24619575.623    -2131342.313 7  -1650348.49445  24619572.333    24619587.6754
 00  4 22  1 18 30.0000000  0  7 03 09 26 17 29 23 21
  24436281.182    -2033398.110 7  -1574910.44445  24436289.134    24436304.5914
  21609135.266   -14669036.380 9 -11417920.32047  21609137.839    21609147.6244
  21474244.766   -16252850.911 9 -12364441.15747  21474245.936    21474254.8684
  20039809.449   -25366949.529 9 -19749903.15548  20039812.829    20039821.7514
  24299857.777    -2739617.208 7  -2111223.34845  24299851.706    24299865.5114
  21587787.893   -17610839.988 9 -13709014.36747  21587791.308    21587800.6044
  24604714.853    -2209401.179 7  -1711173.43145  24604719.021    24604734.0744
 00  4 22  1 19  0.0000000  0  7 03 09 26 17 29 23 21
  24431797.588    -2057000.013 7  -1593301.50545  24431798.916    24431812.2974
  21595610.366   -14740094.160 8 -11473289.91947  21595615.782    21595626.4064
  21489526.524   -16172512.128 9 -12301839.53447  21489533.514    21489542.9414
  20041967.223   -25355616.447 9 -19741072.17448  20041969.387    20041978.1304
  24282286.691    -2831840.840 7  -2183085.62445  24282300.966    24282315.4254
  21579701.856   -17653345.593 9 -13742135.56447  21579703.307    21579712.2444
  24589859.661    -2287490.567 7  -1772022.11045  24589858.665    24589873.7404
 00  4 22  1 19 30.0000000  0  7 03 09 26 17 29 23 21
  24427404.265    -2080061.404 7  -1611271.36445  24427408.305    24427425.0414
  21582179.419   -14810687.503 9 -11528297.61047  21582181.919    21582192.0274
  21504865.527   -16091917.141 9 -12239038.27447  21504870.090    21504879.8264
  20044236.010   -25343690.225 9 -19731779.01948  20044239.012    20044247.5664
  24264770.018    -2923926.646 7  -2254840.52245  24264776.260    24264792.4794
  21571635.272   -17695722.373 9 -13775156.37247  21571638.917    21571648.5604
  24574981.343    -2365610.859 7  -1832894.88845  24574992.078    24575005.1394
 00  4 22  1 20  0.0000000  0  7 03 09 26 17 29 23 21
  24423119.747    -2102598.516 7  -1628832.70845  24423120.808    24423136.2564
  21568834.957   -14880804.237 9 -11582933.92047  21568839.695    21568849.5264
  21520255.061   -16011067.637 9 -12176038.69047  21520255.559    21520264.5034
  20046620.711   -25331162.027 9 -19722016.78648  20046622.897    20046631.7114
  24247267.664    -3015860.143 7  -2326476.70145  24247281.285    24247297.6644
  21563595.596   -17737975.478 9 -13808080.80947  21563598.299    21563608.2674
  24560116.459    -2443757.131 7  -1893787.88045  24560117.545    24560136.5264
 00  4 22  1 20 30.0000000  0  7 03 09 26 17 29 23 21
  24418926.290    -2124627.171 7  -1645997.89445  24418930.687    24418942.7534
  21555588.495   -14950432.037 9 -11637189.25447  21555590.047    21555599.7074
  21535685.100   -15929975.467 9 -12112850.01047  21535687.063    21535695.6544
  20049119.587   -25318024.702 9 -19711779.90748  20049122.919    20049131.9044
  24229825.670    -3107638.064 7  -2397991.64945  24229817.155    24229831.9274
  21555579.791   -17780102.166 9 -13840906.75347  21555582.180    21555591.5394
  24545241.557    -2521920.874 7  -1954694.54045  24545248.118    24545260.8794
 00  4 22  1 21  0.0000000  0  7 03 09 26 17 29 23 21
  24414833.114    -2146146.432 7  -1662766.10745  24414834.605    24414848.8824
  21542431.770   -15019571.077 9 -11691063.74247  21542432.810    21542442.6044
  21551156.997   -15848657.177 9 -12049485.12547  21551160.921    21551169.6674
  20051737.330   -25304270.957 9 -19701062.70148  20051740.332    20051749.4094
  24212369.454    -3199254.440 7  -2469380.73445  24212382.674    24212397.5514
  21547586.531   -17822107.010 9 -13873637.75347  21547588.964    21547598.2734
  24530367.937    -2600096.236 7  -2015610.23645  24530370.935    24530384.6474
 00  4 22  1 21 30.0000000  0  7 03 09 26 17 29 23 21
  24410834.473    -2167155.418 8  -1679136.70645  24410837.846    24410850.7224
  21529365.538   -15088224.157 9 -11744559.54447  21529368.660    21529378.3374
  21566674.521   -15767117.614 9 -11985947.82947  21566677.464    21566686.5574
  20054470.659   -25289907.690 9 -19689870.54448  20054473.417    20054482.3714
  24194986.180    -3290694.784 7  -2540632.68845  24194984.073    24194997.6194
  21539615.397   -17863994.547 9 -13906277.35247  21539617.516    21539627.4964
  24515485.674    -2678290.668 7  -2076540.80545  24515492.537    24515502.5664
 00  4 22  1 22  0.0000000  0  7 03 09 26 17 29 23 21
  24406931.614    -2187664.666 7  -1695117.89645  24406934.407    24406947.3404
  21516397.679   -15156383.316 9 -11797670.48947  21516397.890    21516408.3514
  21582236.226   -15685360.605 9 -11922241.10747  21582235.195    21582244.5944
  20057318.456   -25274940.968 9 -19678208.15848  20057321.483    20057330.1554
  24177614.238    -3381949.857 7  -2611740.24545  24177618.295    24177632.2724
  21531668.317   -17905762.169 9 -13938823.50847  21531669.491    21531679.1274
  24500606.060    -2756504.335 7  -2137486.34345  24500606.960    24500621.2644
 00  4 22  1 22 30.0000000  0  7 03 09 26 17 29 23 21
  24403118.115    -2207661.043 7  -1710699.44045  24403129.415    24403141.7464
  21503517.188   -15224068.546 9 -11850412.13647  21503518.089    21503527.9194
  21597830.170   -15603398.213 9 -11858374.34647  21597832.347    21597841.6514
  20060282.746   -25259370.262 9 -19666075.13348  20060284.575    20060293.0194
  24160273.566    -3473026.043 7  -2682708.37945  24160284.706    24160300.9484
  21523746.274   -17947394.574 9 -13971264.32447  21523747.230    21523756.5374
  24485709.475    -2834744.325 7  -2198452.40245  24485718.313    24485733.4874
 00  4 22  1 23  0.0000000  0  7 03 09 26 17 29 23 21
  24399429.540    -2227131.999 7  -1725871.54045  24399425.096    24399436.4724
  21490723.258   -15291282.638 9 -11902786.66647  21490727.676    21490737.6094
  21613463.628   -15521225.217 9 -11794343.45947  21613469.595    21613478.4844
  20063358.077   -25243201.240 9 -19653475.88848  20063361.399    20063370.0924
  24142989.116    -3563926.709 8  -2753539.78845  24142988.878    24143003.0624
  21515846.581   -17988896.812 9 -14003603.71647  21515849.236    21515858.4804
  24470815.825    -2913021.178 7  -2259447.15945  24470820.626    24470836.5014
 00  4 22  1 23 30.0000000  0  7 03 09 26 17 29 23 21
  24395818.151    -2246080.000 7  -1740636.12145  24395819.610    24395831.8934
  21478025.822   -15358027.724 9 -11954795.72147  21478026.127    21478036.3064
  21629147.407   -15438828.803 9 -11730138.48247  21629149.215    21629158.1644
  20066549.195   -25226435.856 9 -19640411.94848  20066551.702    20066560.7394
  24125717.070    -3654667.393 8  -2824246.56645  24125722.222    24125734.8194
  21507974.132   -18030275.983 9 -14035847.20847  21507975.586    21507984.1434
  24455917.153    -2991331.421 7  -2320467.95745  24455922.013    24455934.8274
 00  4 22  1 24  0.0000000  0  7 03 09 26 17 29 23 21
  24392304.545    -2264503.819 7  -1754992.28545  24392312.455    24392325.8484
  21465413.252   -15424307.873 9 -12006442.49947  21465413.363    21465423.7264
  21644868.083   -15356215.304 9 -11665764.35847  21644869.858    21644878.6054
  20069854.098   -25209070.604 9 -19626880.58248  20069856.093    20069865.0874
  24108483.082    -3745266.675 8  -2894843.17045  24108480.497    24108494.6484
  21500123.073   -18071530.586 9 -14067993.62547  21500124.900    21500133.7124
  24441006.225    -3069676.505 7  -2381515.88045  24441011.479    24441024.5304
 00  4 22  1 24 30.0000000  0  7 03 09 26 17 29 23 21
  24388900.057    -2282390.163 7  -1768929.68045  24388907.891    24388921.4134
  21452886.507   -15490120.685 9 -12057725.12147  21452889.760    21452899.7954
  21660632.116   -15273378.062 9 -11601215.90447  21660633.288    21660642.2384
  20073272.088   -25191103.470 9 -19612880.21048  20073275.181    20073283.7614
  24091253.573    -3835729.323 7  -2965333.25345  24091264.894    24091278.9934
  21492295.717   -18112660.937 9 -14100043.21447  21492297.944    21492307.1434
  24426098.277    -3148060.822 7  -2442594.43945  24426096.480    24426108.2354
 00  4 22  1 25  0.0000000  0  7 03 09 26 17 29 23 21
  24385603.834    -2299731.359 7  -1782442.28545  24385608.330    24385622.8814
  21440459.097   -15555439.793 9 -12108623.04747  21440460.123    21440469.2934
  21676435.659   -15190307.214 9 -11536485.40847  21676441.490    21676450.3834
  20076803.328   -25172542.306 9 -19598416.96648  20076807.340    20076816.0664
  24074082.335    -3926054.970 8  -3035716.54645  24074076.279    24074091.1494
  21484490.837   -18153680.238 9 -14132006.24147  21484492.285    21484501.4674
  24411168.586    -3226478.325 7  -2503698.82045  24411174.128    24411186.3404
 00  4 22  1 25 30.0000000  0  7 03 09 26 17 29 23 21
  24382410.558    -2316534.950 7  -1795535.94845  24382411.955    24382425.4214
  21428121.479   -15620265.502 9 -12159136.49447  21428123.282    21428133.1304
  21692287.188   -15107012.784 8 -11471580.67047  21692291.427    21692300.5314
  20080448.440   -25153385.589 9 -19583489.65548  20080452.412    20080461.6464
  24056909.224    -4016228.015 8  -3105981.00245  24056916.989    24056930.2104
  21476707.628   -18194573.203 9 -14163870.80747  21476710.650    21476719.3424
  24396242.914    -3304932.024 7  -2564831.41445  24396243.859    24396258.5154
 00  4 22  1 26  0.0000000  0  7 03 09 26 17 29 23 21
  24379310.351    -2332812.275 7  -1808219.49445  24379312.518    24379327.4614
  21415881.272   -15684589.010 9 -12209258.63547  21415883.668    21415892.3384
  21708183.977   -15023502.480 8 -11406507.74047  21708182.894    21708191.9564
  20084209.748   -25133632.725 9 -19568097.81548  20084211.318    20084220.4914
  24039790.384    -4106220.833 7  -3176104.96445  24039792.414    24039805.7464
  21468950.583   -18235329.086 9 -14195628.55847  21468954.684    21468963.9384
  24381304.730    -3383423.654 8  -2625993.55945  24381307.199    24381319.7744
 00  4 22  1 26 30.0000000  0  7 03 09 26 17 29 23 21
  24376310.087    -2348562.570 7  -1820492.40445  24376315.588    24376330.5404
  21403742.474   -15748391.164 9 -12258974.51847  21403742.963    21403752.3154
  21724113.348   -14939766.167 8 -11341258.70447  21724117.227    21724126.6814
  20088080.124   -25113285.186 9 -19552242.58748  20088083.455    20088092.3504
  24022706.852    -4196011.707 8  -3246071.58745  24022704.732    24022718.5094
  21461224.994   -18275943.326 9 -14227275.94147  21461225.844    21461235.7304
  24366366.003    -3461948.436 8  -2687181.55045  24366365.057    24366377.7814
 00  4 22  1 27  0.0000000  0  7 03 09 26 17 29 23 21
  24373414.899    -2363788.195 7  -1832356.48745  24373417.902    24373431.9334
  21391697.766   -15811669.434 9 -12308282.18947  21391700.857    21391710.4734
  21740093.513   -14855812.963 8 -11275840.66747  21740093.311    21740102.6734
  20092067.025   -25092339.542 9 -19535921.30748  20092069.212    20092078.1174
  24005654.369    -4285591.874 7  -3315874.00545  24005657.660    24005670.6554
  21453522.595   -18316422.282 9 -14258817.92147  21453523.984    21453532.6074
  24351410.287    -3540503.015 7  -2748392.75045  24351416.565    24351430.0534
 00  4 22  1 27 30.0000000  0  7 03 09 26 17 29 23 21
  24370617.582    -2378504.194 7  -1843823.47745  24370619.726    24370631.6514
  21379755.618   -15874427.334 9 -12357184.35347  21379758.212    21379767.6644
  21756104.535   -14771656.974 8 -11210264.60847  21756107.393    21756116.7064
  20096166.682   -25070788.203 9 -19519128.05148  20096170.214    20096179.3194
  23988650.827    -4374945.433 8  -3385499.87245  23988654.394    23988668.8944
  21445844.077   -18356754.068 9 -14290245.22747  21445848.115    21445857.9394
  24336458.764    -3619094.504 8  -2809632.78245  24336462.122    24336475.4844
 00  4 22  1 28  0.0000000  0  7 03 09 26 17 29 23 21
  24367913.641    -2392699.582 7  -1854884.75945  24367919.289    24367930.4644
  21367914.391   -15936652.684 9 -12405671.56847  21367917.103    21367926.1514
  21772159.554   -14687289.382 8 -11144523.64247  21772161.991    21772171.4034
  20100382.607   -25048634.109 9 -19501865.11748  20100385.960    20100395.1734
  23971689.158    -4464087.447 8  -3454960.90245  23971690.824    23971704.3614
  21438196.256   -18396945.430 9 -14321563.12247  21438199.900    21438209.6364
  24321498.985    -3697712.300 8  -2870893.26945  24321500.686    24321514.2404
 00  4 22  1 28 30.0000000  0  7 03 09 26 17 29 23 21
  24365317.915    -2406360.053 7  -1865529.25945  24365317.177    24365331.6124
  21356173.557   -15998349.376 9 -12453746.83847  21356176.347    21356186.3364
  21788256.311   -14602706.120 9 -11078614.63147  21788258.447    21788267.0924
  20104713.588   -25025878.181 9 -19484133.22248  20104716.252    20104725.6014
  23954760.674    -4553050.535 8  -3524282.56245  23954762.702    23954774.6384
  21430573.638   -18436998.679 9 -14352773.43347  21430577.949    21430587.5374
  24306519.185    -3776342.559 7  -2932163.42545  24306535.506    24306550.8984
 00  4 22  1 29  0.0000000  0  7 03 09 26 17 29 23 21
  24362817.896    -2419496.643 7  -1875765.50945  24362818.044    24362830.4564
  21344528.637   -16059533.287 9 -12501422.52647  21344533.333    21344543.3784
  21804391.590   -14517912.293 9 -11012541.55447  21804394.315    21804403.4724
  20109159.758   -25002515.548 9 -19465928.56948  20109161.933    20109171.2574
  23937862.503    -4641852.395 8  -3593478.55345  23937863.521    23937877.8844
  21422979.154   -18476919.098 9 -14383880.19147  21422981.391    21422991.3724
  24291576.520    -3854975.323 8  -2993435.57245  24291573.926    24291587.4784
 00  4 22  1 29 30.0000000  0  7 03 09 26 17 29 23 21
  24360409.892    -2432117.566 7  -1885600.00645  24360416.233    24360429.8084
  21332981.521   -16120220.465 9 -12548711.14547  21332984.790    21332994.8404
  21820571.343   -14432906.578 9 -10946303.36647  21820569.996    21820579.1184
  20113720.098   -24978552.678 9 -19447256.19648  20113721.963    20113731.2154
  23920983.885    -4730504.730 7  -3662558.04145  23920991.799    23921006.5774
  21415408.716   -18516704.339 9 -14414881.61947  21415410.798    21415420.0704
  24276604.451    -3933607.796 8  -3054707.52245  24276610.429    24276624.4974
 00  4 22  1 30  0.0000000  0  7 03 09 26 17 29 23 21
  24358110.923    -2444225.605 7  -1895034.77145  24358113.191    24358126.2974
  21321525.630   -16180421.060 9 -12595620.63347  21321529.109    21321539.0704
  21836782.884   -14347687.541 8 -10879898.95247  21836786.659    21836795.9354
  20118393.798   -24953984.990 9 -19428112.52748  20118397.012    20118406.1474
  23904150.737    -4819018.165 8  -3731529.24645  23904148.678    23904162.2334
  21407861.456   -18556362.440 9 -14445783.93747  21407863.649    21407873.3754
  24261642.494    -4012220.135 8  -3115963.79345  24261650.913    24261664.6594
 00  4 22  1 30 30.0000000  0  7 03 09 26 17 29 23 21
  24355899.943    -2455835.013 7  -1904081.03245  24355903.828    24355916.6284
  21310162.176   -16240143.078 9 -12642157.20247  21310164.180    21310173.9834
  21853035.669   -14262278.182 8 -10813346.22647  21853039.399    21853048.6334
  20123187.311   -24928796.804 9 -19408485.36348  20123190.227    20123199.1034
  23887332.771    -4907369.052 8  -3800373.86845  23887337.033    23887349.9374
  21400339.341   -18595893.345 9 -14476587.13747  21400341.423    21400350.9194
  24246692.104    -4090814.490 8  -3177206.01645  24246696.683    24246708.1314
 00  4 22  1 31  0.0000000  0  7 03 09 26 17 29 23 21
  24353784.357    -2466953.154 7  -1912744.49545  24353786.737    24353799.9394
  21298891.216   -16299375.638 9 -12688312.36747  21298892.446    21298902.4024
  21869323.000   -14176699.847 8 -10746661.84047  21869324.499    21869333.4594
  20128099.641   -24902984.764 9 -19388372.06948  20128102.371    20128111.1594
  23870558.747    -4995523.939 8  -3869065.80845  23870561.059    23870574.2484
  21392839.473   -18635302.302 9 -14507295.35747  21392841.911    21392851.3034
  24231732.509    -4169419.560 8  -3238456.57645  24231735.708    24231752.0704
 00  4 22  1 31 30.0000000  0  7 03 09 26 17 29 23 21
  24351762.097    -2477573.976 7  -1921020.42445  24351764.332    24351779.5124
  21287715.027   -16358102.441 9 -12734073.42147  21287717.192    21287727.2234
  21885639.119   -14090964.224 9 -10679854.89847  21885639.502    21885648.6614
  20133129.807   -24876549.462 9 -19367773.12048  20133132.598    20133141.7134
  23853823.230    -5083474.477 8  -3937598.49545  23853823.896    23853837.2774
  21385366.147   -18674575.738 9 -14537897.99147  21385368.790    21385377.8524
  24216768.349    -4248051.920 8  -3299728.45945  24216773.587    24216787.1324
 00  4 22  1 32  0.0000000  0  7 03 09 26 17 29 23 21
  24349835.069    -2487686.782 7  -1928900.49945  24349840.421    24349854.8904
  21276645.999   -16416287.535 9 -12779412.37947  21276645.170    21276654.6554
  21901978.998   -14005070.090 8 -10612924.43047  21901984.615    21901993.7074
  20138281.169   -24849483.223 9 -19346682.53448  20138283.127    20138292.1354
  23837131.615    -5171206.964 8  -4005961.22045  23837129.267    23837142.0324
  21377920.173   -18713701.315 9 -14568385.38647  21377923.391    21377932.2454
  24201799.139    -4326716.546 8  -3361025.43745  24201804.894    24201818.1404
 00  4 22  1 32 30.0000000  0  7 03 09 26 17 29 23 21
  24348016.003    -2497278.590 7  -1936374.59845  24348016.695    24348028.6234
  21265680.192   -16473905.947 9 -12824309.77847  21265680.479    21265690.4104
  21918358.022   -13919008.724 8 -10545863.65847  21918361.539    21918370.3694
  20143546.379   -24821804.243 9 -19325114.49648  20143549.969    20143559.1114
  23820472.697    -5258725.363 8  -4074157.12945  23820473.860    23820488.2444
  21370504.641   -18752679.158 9 -14598757.61747  21370505.405    21370514.6784
  24186821.289    -4405437.197 8  -3422366.12945  24186823.220    24186836.0934
 00  4 22  1 33  0.0000000  0  7 03 09 26 17 29 23 21
  24346289.928    -2506337.376 8  -1943433.35345  24346292.007    24346305.5564
  21254822.628   -16530951.337 9 -12868760.65547  21254825.021    21254834.8704
  21934770.468   -13832761.913 8 -10478658.38547  21934774.150    21934782.9814
  20148924.687   -24793535.257 9 -19303086.71648  20148929.648    20148938.5214
  23803855.202    -5346049.838 8  -4142201.92945  23803856.879    23803869.9064
  21363113.979   -18791508.264 9 -14629013.94747  21363116.933    21363125.5714
  24171824.617    -4484220.831 8  -3483755.84745  24171831.747    24171844.7394
 00  4 22  1 33 30.0000000  0  7 03 09 26 17 29 23 21
  24344667.415    -2514847.074 7  -1950064.22845  24344671.671    24344685.6014
  21244076.078   -16587423.294 9 -12912764.70747  21244079.034    21244088.3504
  21951221.439   -13746316.750 8 -10411298.55347  21951224.219    21951232.6934
  20154420.407   -24764675.886 9 -19280598.89148  20154421.743    20154430.3634
  23787273.272    -5433193.971 8  -4210106.19445  23787274.507    23787286.5194
  21355755.770   -18830179.558 9 -14659147.37047  21355758.051    21355766.9404
  24156826.536    -4563046.008 8  -3545177.97645  24156831.656    24156845.0524
 00  4 22  1 34  0.0000000  0  7 03 09 26 17 29 23 21
  24343155.102    -2522803.968 7  -1956264.39445  24343157.776    24343172.1394
  21233436.847   -16643335.554 9 -12956332.63247  21233438.718    21233448.5274
  21967711.709   -13659668.580 8 -10343780.52247  21967712.732    21967721.5154
  20160021.415   -24735237.622 9 -19257659.97348  20160023.568    20160032.1644
  23770727.213    -5520151.082 8  -4277864.78345  23770726.386    23770739.4924
  21348423.226   -18868710.403 9 -14689171.39647  21348425.695    21348434.6414
  24141822.561    -4641907.616 8  -3606628.44745  24141825.298    24141837.7514
 00  4 22  1 34 30.0000000  0  7 03 09 26 17 29 23 21
  24341743.893    -2530216.439 7  -1962040.28945  24341746.663    24341760.3734
  21222896.902   -16698716.499 9 -12999486.55747  21222900.044    21222910.0684
  21984232.144   -13572834.362 8 -10276117.53747  21984236.921    21984245.7704
  20165732.948   -24705223.558 9 -19234272.39348  20165734.996    20165743.7414
  23754211.474    -5606927.628 8  -4345482.64345  23754212.203    23754227.3484
  21341113.978   -18907110.992 9 -14719093.98247  21341117.748    21341127.0134
  24126811.568    -4720806.408 8  -3668107.94445  24126810.883    24126822.7924
 00  4 22  1 35  0.0000000  0  7 03 09 26 17 29 23 21
  24340443.346    -2537079.572 7  -1967388.09945  24340441.852    24340455.4774
  21212456.687   -16753572.611 9 -13042231.51147  21212461.546    21212471.2234
  22000792.391   -13485828.358 8 -10208320.69347  22000793.380    22000802.2514
  20171554.099   -24674624.141 9 -19210428.69048  20171557.644    20171566.7354
  23737733.955    -5693512.237 8  -4412950.97945  23737736.822    23737749.7474
  21333834.869   -18945370.018 9 -14748906.21247  21333837.593    21333847.0144
  24111790.701    -4799735.253 8  -3729610.88245  24111792.014    24111801.9154
 00  4 22  1 35 30.0000000  0  7 03 09 26 17 29 23 21
  24339228.928    -2543410.958 7  -1972321.60045  24339236.552    24339250.3534
  21202118.908   -16807910.106 9 -13084572.33947  21202121.531    21202131.2394
  22017374.954   -13398665.594 8 -10140401.71347  22017379.387    22017388.8224
  20177491.361   -24643426.262 9 -19186118.65748  20177494.698    20177503.5284
  23721293.934    -5779906.076 8  -4480270.62245  23721297.219    23721310.0884
  21326580.597   -18983484.506 9 -14778605.83347  21326584.795    21326593.7274
  24096766.217    -4878683.305 8  -3791128.72345  24096767.451    24096779.9274
 00  4 22  1 36  0.0000000  0  7 03 09 26 17 29 23 21
  24338130.189    -2549235.624 7  -1976860.27345  24338128.715    24338141.6054
  21191877.912   -16861734.994 9 -13126513.73947  21191879.035    21191888.3844
  22033992.322   -13311345.829 8 -10072360.37847  22033996.418    22034005.5184
  20183541.985   -24611632.967 9 -19161344.65748  20183544.825    20183553.5294
  23704884.485    -5866108.753 8  -4547441.35345  23704892.824    23704904.5914
  21319355.912   -19021457.057 9 -14808194.86847  21319358.392    21319367.7244
  24081741.036    -4957649.152 8  -3852660.42245  24081739.746    24081754.3104
 00  4 22  1 36 30.0000000  0  7 03 09 26 17 29 23 21
  24337113.815    -2554555.286 7  -1981005.41045  24337116.747    24337129.9634
  21181734.156   -16915030.261 9 -13168042.44847  21181736.975    21181746.4874
  22050637.732   -13223879.428 8 -10004204.78647  22050640.665    22050649.2454
  20189707.212   -24579232.900 9 -19136097.85648  20189709.964    20189719.3504
  23688518.505    -5952138.643 8  -4614477.42145  23688522.198    23688534.2654
  21312159.522   -19059273.250 9 -14837662.03947  21312162.823    21312171.7674
  24066712.305    -5036614.539 8  -3914191.78945  24066713.875    24066727.3314
 00  4 22  1 37  0.0000000  0  7 03 09 26 17 29 23 21
  24336200.197    -2559368.623 7  -1984755.98945  24336199.938    24336214.4344
  21171696.667   -16967777.932 9 -13209144.45847  21171699.513    21171708.7274
  22067310.600   -13136257.531 8  -9935928.01347  22067313.921    22067323.1884
  20195987.174   -24546232.637 9 -19110383.37848  20195990.006    20195998.5604
  23672180.384    -6038000.453 8  -4681382.49245  23672181.718    23672194.7834
  21304991.562   -19096933.561 9 -14867007.68247  21304996.290    21305005.2144
  24051684.998    -5115564.263 8  -3975710.91645  24051689.759    24051703.3594
 00  4 22  1 37 30.0000000  0  7 03 09 26 17 29 23 21
  24335373.203    -2563692.786 7  -1988125.41445  24335376.154    24335390.9224
  21161759.349   -17019992.365 9 -13249830.95347  21161763.629    21161772.9364
  22084012.260   -13048473.282 8  -9867524.74947  22084019.087    22084028.7504
  20202381.810   -24512629.198 9 -19084198.88948  20202384.774    20202392.8584
  23655867.845    -6123696.368 8  -4748158.28045  23655874.472    23655888.3174
  21297854.023   -19134445.848 9 -14896238.00947  21297857.469    21297866.4534
  24036670.978    -5194483.673 8  -4037206.40246  24036673.796    24036685.7704
 00  4 22  1 38  0.0000000  0  7 03 09 26 17 29 23 21
  24334638.367    -2567517.311 7  -1991105.53445  24334648.776    24334664.0514
  21151928.655   -17071658.798 9 -13290090.42247  21151931.817    21151940.8924
  22100751.717   -12960523.413 8  -9798992.42147  22100755.850    22100764.5134
  20208889.132   -24478427.696 9 -19057548.39148  20208892.909    20208901.4344
  23639596.606    -6209214.082 8  -4814795.27645  23639601.642    23639613.5314
  21290744.051   -19171818.397 9 -14925359.44547  21290745.713    21290754.8234
  24021656.321    -5273371.861 8  -4098677.59346  24021661.571    24021672.9164
 00  4 22  1 38 30.0000000  0  7 03 09 26 17 29 23 21
  24334019.885    -2570828.701 7  -1993685.77645  24334018.820    24334032.5514
  21142203.058   -17122766.032 9 -13329914.16947  21142206.192    21142215.3714
  22117517.752   -12872411.956 8  -9730334.17447  22117523.484    22117532.0414
  20215511.071   -24443636.963 9 -19030438.74248  20215513.604    20215522.2664
  23623360.236    -6294546.188 8  -4881287.62145  23623363.147    23623374.7084
  21283653.900   -19209057.446 9 -14954376.83047  21283659.076    21283668.5374
  24006651.768    -5352237.212 8  -4160130.97546  24006653.418    24006666.0194
 00  4 22  1 39  0.0000000  0  7 03 09 26 17 29 23 21
  24333476.670    -2573627.282 7  -1995866.43345  24333485.606    24333501.3114
  21132580.530   -17173322.102 9 -13369308.44347  21132585.511    21132594.9264
  22134319.189   -12784128.804 8  -9661542.13747  22134322.833    22134331.7994
  20222243.785   -24408251.955 9 -19002866.02548  20222246.796    20222255.7034
  23607164.896    -6379662.258 8  -4947611.63945  23607165.033    23607178.6154
  21276595.205   -19246167.119 9 -14983293.42047  21276597.361    21276606.7664
  23991643.279    -5431105.834 8  -4221586.91446  23991646.373    23991657.6814
 00  4 22  1 39 30.0000000  0  7 03 09 26 17 29 23 21
  24333054.145    -2575915.956 7  -1997649.76645  24333052.080    24333064.8634
  21123061.483   -17223336.620 9 -13408280.72147  21123068.004    21123077.7434
  22151152.582   -12695674.733 8  -9592616.91347  22151154.927    22151164.3514
  20229093.149   -24372260.028 9 -18974820.38048  20229095.951    20229104.5734
  23591006.081    -6464553.813 8  -5013760.66745  23591010.956    23591022.7744
  21269558.933   -19283139.359 9 -15012102.95147  21269561.721    21269571.1244
  23976635.142    -5509999.662 8  -4283062.44646  23976632.620    23976644.4964
 00  4 22  1 40  0.0000000  0  7 03 09 26 17 29 23 21
  24332712.922    -2577679.291 7  -1999023.74445  24332714.230    24332729.1404
  21113657.128   -17272782.339 9 -13446809.78047  21113658.730    21113667.6534
  22168014.234   -12607057.113 8  -9523564.25847  22168018.275    22168027.0934
  20236055.940   -24335664.122 9 -18946304.10948  20236059.962    20236068.7834
  23574899.030    -6549219.996 8  -5079734.07845  23574900.072    23574911.5884
  21262548.969   -19319975.082 9 -15040806.12647  21262552.537    21262561.3914
  23961610.405    -5588941.368 8  -4344575.31246  23961610.736    23961621.8404
 00  4 22  1 40 30.0000000  0  7 03 09 26 17 29 23 21
  24332466.153    -2578905.505 7  -1999979.21945  24332481.131    24332495.1074
  21104356.801   -17321655.014 9 -13484892.30847  21104358.681    21104367.8194
  22184909.354   -12518277.083 8  -9454385.01947  22184912.507    22184922.1564
  20243137.899   -24298456.103 9 -18917310.86848  20243140.580    20243149.1654
  23558828.055    -6633662.345 8  -5145533.10945  23558830.912    23558842.3114
  21255570.291   -19356658.302 9 -15069390.46447  21255572.128    21255580.6844
  23946572.948    -5667942.512 8  -4406134.50246  23946576.273    23946588.8514
 00  4 22  1 41  0.0000000  0  7 03 09 26 17 29 23 21
  24332347.128    -2579599.641 7  -2000520.04645  24332348.564    24332363.1344
  21095162.660   -17369950.622 9 -13522525.17947  21095167.639    21095177.2184
  22201830.932   -12429336.981 8  -9385081.08747  22201836.546    22201846.5804
  20250337.445   -24260623.372 9 -18887830.83948  20250339.773    20250348.5054
  23542801.363    -6717889.144 8  -5211164.12645  23542802.551    23542814.4744
  21248619.526   -19393182.593 9 -15097850.98447  21248621.789    21248630.4644
  23931530.926    -5747000.825 8  -4467738.20745  23931532.046    23931544.9064
 00  4 22  1 41 30.0000000  0  7 03 09 26 17 29 23 21
  24332304.846    -2579767.249 7  -2000650.65945  24332317.513    24332330.0194
  21086084.682   -17417660.054 9 -13559701.28247  21086088.883    21086098.3874
  22218787.240   -12340246.420 8  -9315659.91146  22218790.325    22218800.1814
  20257654.007   -24222172.946 9 -18857869.47748  20257656.517    20257665.6094
  23526812.066    -6801926.764 8  -5276647.76645  23526810.329    23526823.2194
  21241698.595   -19429553.423 9 -15126191.83347  21241700.495    21241709.2364
  23916477.154    -5826104.713 8  -4529377.41745  23916479.036    23916489.8074
 00  4 22  1 42  0.0000000  0  7 03 09 26 17 29 23 21
  24332393.236    -2579399.607 7  -2000364.09945  24332388.980    24332400.3074
  21077121.727   -17464768.697 9 -13596409.25147  21077124.262    21077133.8504
  22235769.942   -12251010.506 8  -9246125.47146  22235771.148    22235780.7984
  20265084.967   -24183117.790 9 -18827436.89748  20265088.311    20265097.3714
  23510852.235    -6885779.231 8  -5341987.21545  23510853.927    23510865.8704
  21234804.576   -19465778.819 9 -15154419.33448  21234807.043    21234815.5514
  23901416.649    -5905245.538 8  -4591045.45245  23901418.241    23901430.6754
 00  4 22  1 42 30.0000000  0  7 03 09 26 17 29 23 21
  24332550.714    -2578520.149 7  -1999678.75745  24332555.525    24332568.4374
  21068268.706   -17511298.398 9 -13632666.09547  21068270.242    21068279.7114
  22252774.590   -12161637.709 8  -9176484.36846  22252778.876    22252788.2284
  20272631.783   -24143457.253 9 -18796532.59148  20272635.074    20272644.6584
  23494928.321    -6969446.017 8  -5407181.92745  23494932.511    23494944.6204
  21227938.904   -19501851.391 9 -15182527.71148  21227942.594    21227951.4714
  23886352.432    -5984409.310 8  -4652731.34645  23886353.756    23886365.2444
 00  4 22  1 43  0.0000000  0  7 03 09 26 17 29 23 21
  24332814.109    -2577155.504 7  -1998615.33845  24332815.753    24332826.2214
  21059522.069   -17557259.668 9 -13668480.00747  21059524.325    21059533.1454
  22269807.839   -12072137.279 8  -9106743.82246  22269810.068    22269819.8344
  20280291.749   -24103201.121 9 -18765164.18648  20280296.032    20280305.1404
  23479040.605    -7052933.009 8  -5472236.54945  23479044.540    23479056.8184
  21221103.259   -19537778.047 9 -15210522.41448  21221106.014    21221115.0354
  23871282.104    -6063588.559 8  -4714429.28345  23871286.142    23871298.7724
 00  4 22  1 43 30.0000000  0  7 03 09 26 17 29 23 21
  24333162.296    -2575305.235 7  -1997173.53345  24333166.581    24333180.0334
  21050883.431   -17602656.311 9 -13703853.94747  21050885.708    21050895.0864
  22286859.325   -11982517.185 8  -9036910.03346  22286864.237    22286874.2954
  20288064.831   -24062358.435 9 -18733338.71548  20288068.223    20288077.1124
  23463193.048    -7136235.992 8  -5537147.74745  23463193.240    23463205.6754
  21214295.486   -19573548.966 9 -15238395.76248  21214299.027    21214307.6854
  23856216.388    -6142776.712 8  -4776134.16045  23856217.000    23856230.0634
 00  4 22  1 44  0.0000000  0  7 03 09 26 17 29 23 21
  24333608.281    -2572968.688 7  -1995352.83945  24333611.980    24333624.9194
  21042351.184   -17647485.315 9 -13738785.57647  21042354.741    21042363.7674
  22303941.194   -11892772.318 8  -8966978.99646  22303942.263    22303951.2144
  20295945.434   -24020944.375 9 -18701068.02448  20295949.272    20295958.0824
  23447377.865    -7219339.366 8  -5601903.40645  23447379.275    23447390.9584
  21207518.293   -19609158.814 9 -15266143.57948  21207522.657    21207531.3384
  23841145.306    -6221970.349 8  -4837843.34645  23841146.734    23841159.3144
 00  4 22  1 44 30.0000000  0  7 03 09 26 17 29 23 21
  24334147.704    -2570152.311 7  -1993158.19645  24334147.981    24334159.3434
  21033929.488   -17691743.960 9 -13773272.77047  21033932.276    21033941.8324
  22321042.436   -11802901.260 8  -8896949.64046  22321043.875    22321053.2344
  20303935.647   -23978958.655 9 -18668351.88448  20303938.636    20303947.5394
  23431595.180    -7302241.085 8  -5666501.92346  23431602.953    23431615.6564
  21200773.550   -19644613.291 9 -15293770.34248  21200775.946    21200784.3264
  23826074.282    -6301162.024 8  -4899551.00346  23826077.843    23826089.2464
 00  4 22  1 45  0.0000000  0  7 03 09 26 17 29 23 21
  24334775.762    -2566830.280 7  -1990569.53545  24334779.440    24334792.5764
  21025622.008   -17735407.416 9 -13807296.17347  21025623.848    21025632.7584
  22338168.999   -11712897.330 8  -8826816.72346  22338171.614    22338180.5994
  20312035.526   -23936398.758 9 -18635188.33248  20312037.642    20312046.2524
  23415865.891    -7384939.535 8  -5730942.03946  23415866.815    23415877.7734
  21194054.485   -19679924.449 9 -15321285.42948  21194056.552    21194064.8144
  23811004.815    -6380350.604 8  -4961256.27745  23811007.439    23811018.4694
 00  4 22  1 45 30.0000000  0  7 03 09 26 17 29 23 21
  24335505.261    -2562982.724 7  -1987571.36045  24335510.727    24335524.2754
  21017423.840   -17778473.041 9 -13840853.72247  21017428.882    21017437.5354
  22355317.716   -11622756.572 8  -8756577.21546  22355324.535    22355334.0734
  20320243.153   -23893263.982 9 -18601576.82148  20320246.005    20320254.5434
  23400167.830    -7467427.316 8  -5795218.03746  23400169.121    23400179.7974
  21187359.740   -19715101.289 9 -15348695.89548  21187362.268    21187371.1504
  23795931.697    -6459535.416 8  -5022958.63345  23795938.497    23795951.2624
 00  4 22  1 46  0.0000000  0  7 03 09 26 17 29 23 21
  24336343.861    -2558610.933 7  -1984164.68145  24336343.294    24336357.0924
  21009345.627   -17820936.134 9 -13873941.79147  21009348.266    21009357.0024
  22372503.778   -11532483.247 8  -8686234.41746  22372503.016    22372511.8914
  20328559.424   -23849558.204 9 -18567520.36548  20328562.860    20328571.5364
  23384506.067    -7549696.367 8  -5859323.59245  23384512.865    23384524.6234
  21180690.688   -19750154.885 9 -15376010.41248  21180691.701    21180700.7804
  23780874.622    -6538718.303 8  -5084659.43346  23780871.365    23780883.7794
 00  4 22  1 46 30.0000000  0  7 03 09 26 17 29 23 21
  24337274.695    -2553708.617 7  -1980344.66845  24337275.616    24337288.2084
  21001379.281   -17862797.177 9 -13906560.71047  21001382.057    21001390.9244
  22389698.550   -11442093.686 8  -8615801.01446  22389703.763    22389712.9184
  20336987.656   -23805261.540 9 -18533003.48448  20336992.137    20337001.2604
  23368902.619    -7631745.826 8  -5923258.03346  23368900.833    23368911.2064
  21174044.206   -19785074.459 9 -15403220.51948  21174047.062    21174055.5804
  23765805.052    -6617896.336 8  -5146356.46946  23765804.524    23765816.1534
 00  4 22  1 47  0.0000000  0  7 03 09 26 17 29 23 21
  24338305.736    -2548287.447 7  -1976120.38245  24338309.344    24338320.4354
  20993526.750   -17904073.968 9 -13938724.37947  20993527.703    20993536.4734
  22406921.398   -11351591.988 8  -8545280.25946  22406925.442    22406935.2584
  20345530.531   -23760370.278 9 -18498023.27848  20345534.548    20345544.0784
  23353325.222    -7713575.667 8  -5987021.31246  23353328.419    23353339.8274
  21167431.082   -19819825.448 9 -15430299.23048  21167434.091    21167443.0644
  23750735.989    -6697076.777 8  -5208055.38946  23750736.471    23750748.9954
 00  4 22  1 47 30.0000000  0  7 03 09 26 17 29 23 21
  24339431.000    -2542364.398 7  -1971504.96245  24339435.475    24339448.2774
  20985776.464   -17944780.142 9 -13970443.41547  20985781.207    20985789.9824
  22424166.448   -11260981.277 8  -8474674.55346  22424168.540    22424178.2324
  20354185.061   -23714899.100 9 -18462591.19448  20354187.430    20354196.5464
  23337793.943    -7795192.103 8  -6050618.30046  23337797.100    23337808.0504
  21160853.157   -19854389.234 9 -15457231.97848  21160856.152    21160865.3844
  23735668.297    -6776264.665 8  -5269760.15846  23735667.797    23735678.6844
 00  4 22  1 48  0.0000000  0  7 03 09 26 17 29 23 21
  24340658.423    -2535946.309 7  -1966503.78245  24340657.016    24340669.9134
  20978144.703   -17984902.141 9 -14001707.25547  20978146.244    20978155.0604
  22441429.342   -11170260.133 8  -8403982.79346  22441431.904    22441441.4754
  20362948.330   -23668843.686 9 -18426703.85248  20362951.527    20362960.3474
  23322297.879    -7876603.292 8  -6114055.36246  23322303.877    23322315.5974
  21154312.377   -19888754.265 9 -15484009.87548  21154316.578    21154325.9574
  23720591.942    -6855459.823 8  -5331470.54846  23720596.882    23720608.8244
 00  4 22  1 48 30.0000000  0  7 03 09 26 17 29 23 21
  24341971.280    -2529041.161 7  -1961123.16245  24341972.041    24341985.4054
  20970619.063   -18024445.052 9 -14032519.84947  20970621.651    20970629.7484
  22458712.542   -11079417.761 8  -8333196.57646  22458718.053    22458728.6164
  20371826.403   -23622190.536 9 -18390350.74548  20371829.408    20371838.4084
  23306846.626    -7957823.554 8  -6177343.63846  23306848.979    23306859.7664
  21147814.693   -19922911.306 9 -15510625.73148  21147817.382    21147826.3434
  23705522.647    -6934662.343 8  -5393186.67546  23705525.463    23705536.6284
 00  4 22  1 49  0.0000000  0  7 03 09 26 17 29 23 21
  24343366.873    -2521664.308 7  -1955374.91145  24343373.401    24343387.4704
  20963203.447   -18063408.369 9 -14062880.81247  20963207.025    20963215.9784
  22476027.569   -10988448.301 8  -8262311.35346  22476029.815    22476039.1894
  20380817.299   -23574944.839 9 -18353535.91848  20380819.868    20380829.0914
  23291424.220    -8038851.410 8  -6240482.03246  23291429.524    23291440.8044
  21141350.982   -19956881.674 9 -15537096.12548  21141353.021    21141361.6744
  23690454.057    -7013874.323 8  -5454910.17346  23690452.185    23690465.1424
 00  4 22  1 49 30.0000000  0  7 03 09 26 17 29 23 21
  24344874.914    -2513799.189 7  -1949246.20845  24344870.785    24344885.2244
  20955901.574   -18101770.024 9 -14092772.94947  20955906.528    20955915.8714
  22493359.327   -10897361.120 8  -8191334.35946  22493363.057    22493372.8124
  20389921.098   -23527104.518 9 -18316257.76548  20389923.908    20389932.9154
  23276048.029    -8119679.310 8  -6303464.58946  23276048.677    23276060.3714
  21134916.020   -19990696.591 9 -15563445.40048  21134917.645    21134926.5964
  23675377.521    -7093086.333 8  -5516633.72246  23675379.424    23675390.1294
 00  4 22  1 50  0.0000000  0  7 03 09 26 17 29 23 21
  24346460.676    -2505441.785 7  -1942733.92345  24346461.067    24346473.2364
  20948718.434   -18139522.962 9 -14122190.75547  20948722.121    20948731.5194
  22510717.179   -10806162.051 8  -8120270.21846  22510717.733    22510727.7294
  20399142.208   -23478648.332 9 -18278499.70548  20399144.527    20399153.5204
  23260703.388    -8200291.468 8  -6366279.06546  23260707.740    23260719.5154
  21128507.142   -20024363.804 9 -15589679.60148  21128511.211    21128520.1254
  23660298.979    -7172296.713 8  -5578355.99046  23660304.902    23660315.3134
 00  4 22  1 50 30.0000000  0  7 03 09 26 17 29 23 21
  24348140.005    -2496585.132 7  -1935832.61945  24348148.642    24348158.5294
  20941649.058   -18176677.541 9 -14151142.30347  20941651.926    20941660.6824
  22528090.947   -10714859.266 8  -8049125.25446  22528092.602    22528101.9474
  20408479.071   -23429577.148 9 -18240262.42048  20408482.443    20408491.5744
  23245408.837    -8280672.563 8  -6428913.47946  23245411.800    23245422.8644
  21122130.900   -20057884.460 9 -15615799.56448  21122132.395    21122141.1454
  23645226.612    -7251509.798 8  -5640080.35446  23645230.546    23645242.0364
 00  4 22  1 51  0.0000000  0  7 03 09 26 17 29 23 21
  24349930.298    -2487211.199 7  -1928528.21145  24349931.343    24349943.9774
  20934695.674   -18213220.337 9 -14179617.13947  20934697.974    20934707.3004
  22545486.368   -10623462.508 8  -7977907.06146  22545483.941    22545493.6994
  20417931.499   -23379908.179 9 -18201559.31548  20417934.021    20417943.0674
  23230158.697    -8360817.727 8  -6491364.07646  23230159.394    23230171.2694
  21115779.777   -20091259.465 9 -15641805.97048  21115781.405    21115790.0064
  23630151.889    -7330732.422 8  -5701812.15546  23630155.339    23630166.7904
 00  4 22  1 51 30.0000000  0  7 03 09 26 17 29 23 21
  24351807.910    -2477302.858 7  -1920807.36745  24351814.039    24351827.8694
  20927858.207   -18249150.968 9 -14207614.97647  20927860.122    20927869.0454
  22562894.069   -10531971.025 8  -7906615.03646  22562894.488    22562904.5194
  20427493.832   -23329651.793 9 -18162398.49648  20427497.167    20427506.7184
  23214945.440    -8440739.257 8  -6553640.40146  23214950.680    23214962.6454
  21109460.485   -20124456.473 9 -15667673.68948  21109463.899    21109473.0524
  23615075.921    -7409969.370 8  -5763555.10646  23615076.686    23615087.8974
 00  4 22  1 52  0.0000000  0  7 03 09 26 17 29 23 21
  24353804.169    -2466871.025 7  -1912678.66145  24353801.405    24353813.7824
  20921134.592   -18284485.027 9 -14235147.94447  20921136.900    20921145.4844
  22580320.722   -10440374.077 8  -7835240.83846  22580325.090    22580334.9794
  20437165.735   -23278827.011 9 -18122794.74748  20437168.914    20437178.3714
  23199781.333    -8520442.328 8  -6615746.51946  23199785.352    23199795.8404
  21103181.284   -20157463.517 9 -15693393.40148  21103183.208    21103191.7354
  23599990.422    -7489223.675 8  -5825311.56746  23599995.306    23600006.3074
 00  4 22  1 52 30.0000000  0  7 03 09 26 17 29 23 21
  24355878.721    -2455925.680 7  -1904149.77745  24355881.257    24355896.5704
  20914525.295   -18319223.817 9 -14262217.06447  20914526.254    20914535.4434
  22597776.001   -10348661.749 8  -7763776.75446  22597777.792    22597787.0574
  20446941.209   -23227458.867 9 -18082767.64648  20446944.186    20446953.4344
  23184653.465    -8599947.282 8  -6677698.24346  23184655.084    23184666.7324
  21096935.418   -20190281.644 9 -15718965.94548  21096938.131    21096946.7984
  23584908.433    -7568492.253 8  -5887079.19046  23584910.553    23584922.7104
 00  4 22  1 53  0.0000000  0  7 03 09 26 17 29 23 21
  24358052.563    -2444489.050 7  -1895238.12745  24358059.446    24358072.3974
  20908025.982   -18353367.505 9 -14288822.46347  20908029.105    20908037.9694
  22615244.202   -10256833.860 8  -7692222.63546  22615252.043    22615261.6174
  20456818.918   -23175554.596 9 -18042322.81648  20456821.459    20456830.3974
  23169558.684    -8679264.630 8  -6739503.75046  23169560.979    23169572.8484
  21090726.325   -20222916.940 9 -15744396.02648  21090727.590    21090736.6804
  23569821.670    -7647762.042 8  -5948847.72246  23569825.592    23569837.0414
 00  4 22  1 53 30.0000000  0  7 03 09 26 17 29 23 21
  24360323.930    -2432577.390 7  -1885956.31345  24360327.437    24360339.3634
  20901640.854   -18386923.850 9 -14314970.20247  20901643.472    20901652.2064
  22632743.645   -10164883.631 8  -7620573.11246  22632748.818    22632759.1394
  20466799.583   -23123107.530 9 -18001455.04348  20466801.926    20466810.6914
  23154501.788    -8758385.036 8  -6801155.80846  23154504.971    23154516.2944
  21084547.560   -20255381.929 9 -15769693.39048  21084549.836    21084558.5784
  23554743.052    -7727024.808 8  -6010610.80046  23554742.500    23554754.2004
 00  4 22  1 54  0.0000000  0  7 03 09 26 17 29 23 21
  24362682.609    -2420200.410 7  -1876311.85045  24362682.864    24362696.3374
  20895370.722   -18419877.889 9 -14340648.61347  20895372.338    20895380.8504
  22650259.894   -10072817.123 8  -7548833.02846  22650269.242    22650278.7404
  20476883.301   -23070106.779 9 -17960155.81548  20476887.341    20476896.5254
  23139483.099    -8837294.021 8  -6862643.12646  23139487.779    23139499.7214
  21078394.988   -20287707.937 9 -15794882.39648  21078398.039    21078407.3074
  23539657.245    -7806270.934 8  -6072360.91946  23539662.084    23539674.0794
 00  4 22  1 54 30.0000000  0  7 03 09 26 17 29 23 21
  24365115.119    -2407361.373 7  -1866307.40445  24365124.218    24365139.7634
  20889216.933   -18452209.221 9 -14365841.81547  20889219.890    20889228.4594
  22667807.564    -9980648.715 8  -7477013.51946  22667808.417    22667817.4604
  20487080.134   -23016532.983 9 -17918410.04948  20487082.315    20487091.5114
  23124507.179    -8915990.976 8  -6923965.25246  23124512.600    23124523.4664
  21072266.590   -20319905.735 9 -15819971.58748  21072270.983    21072279.8484
  23524584.688    -7885497.748 8  -6134095.97646  23524586.218    23524598.1864
 00  4 22  1 55  0.0000000  0  7 03 09 26 17 29 23 21
  24367660.828    -2394039.225 7  -1855926.47245  24367659.571    24367675.2614
  20883184.093   -18483905.060 9 -14390539.82447  20883188.327    20883196.8734
  22685360.856    -9888392.669 8  -7405125.72946  22685363.422    22685373.7324
  20497386.118   -22962373.668 9 -17876208.01548  20497388.490    20497397.4944
  23109575.798    -8994461.498 8  -6985110.91846  23109580.010    23109592.1304
  21066167.691   -20351969.950 9 -15844956.70048  21066169.447    21066177.9584
  23509512.750    -7964701.601 8  -6195813.12546  23509514.086    23509526.3234
 00  4 22  1 55 30.0000000  0  7 03 09 26 17 29 23 21
  24370287.979    -2380221.345 7  -1845159.26945  24370289.310    24370303.4714
  20877277.930   -18514951.674 9 -14414731.93848  20877280.701    20877289.1864
  22702931.452    -9796056.137 8  -7333175.27046  22702934.346    22702944.5014
  20507804.370   -22907619.135 9 -17833542.16848  20507808.018    20507816.9464
  23094688.483    -9072700.141 8  -7046075.89546  23094692.227    23094703.5484
  21060092.583   -20383892.496 9 -15869831.38348  21060094.870    21060103.3544
  23494439.664    -8043899.819 8  -6257525.88646  23494442.500    23494454.9664
 00  4 22  1 56  0.0000000  0  7 03 09 26 17 29 23 21
  24373008.664    -2365906.437 7  -1834004.78644  24373011.873    24373025.9194
  20871493.793   -18545344.492 9 -14438414.59448  20871496.881    20871505.5634
  22720517.977    -9703648.818 8  -7261169.57746  22720519.539    22720528.4854
  20518338.341   -22852268.196 9 -17790411.58448  20518340.931    20518350.2414
  23079847.537    -9150713.175 8  -7106865.09746  23079847.504    23079857.5654
  21054047.831   -20415662.849 9 -15894587.45948  21054049.074    21054057.5204
  23479369.876    -8123093.062 8  -6319234.75746  23479373.124    23479384.9534
 00  4 22  1 56 30.0000000  0  7 03 09 26 17 29 23 21
  24375832.685    -2351095.170 7  -1822463.51545  24375833.702    24375843.6404
  20865832.082   -18575102.133 9 -14461602.31348  20865833.973    20865842.4924
  22738116.040    -9611158.445 8  -7189099.21346  22738119.434    22738129.8824
  20528985.100   -22796323.289 9 -17746818.14848  20528987.099    20528996.0614
  23065038.996    -9228505.065 8  -7167481.97246  23065041.722    23065054.6134
  21048034.535   -20447256.606 9 -15919205.91848  21048037.059    21048045.1304
  23464300.614    -8202290.505 8  -6380946.93546  23464302.403    23464314.3154
 00  4 22  1 57  0.0000000  0  7 03 09 26 17 29 23 21
  24378744.476    -2335783.723 7  -1810532.52645  24378746.507    24378760.0824
  20860288.711   -18604244.433 9 -14484310.54848  20860288.477    20860296.9224
  22755737.437    -9518581.745 8  -7116961.58946  22755736.186    22755746.7054
  20539740.500   -22739795.014 9 -17702770.13948  20539744.099    20539752.9754
  23050278.997    -9306065.797 8  -7227918.67946  23050283.329    23050293.3724
  21042061.412   -20478652.687 9 -15943670.34648  21042062.509    21042070.8344
  23449227.030    -8281506.963 8  -6442673.91046  23449227.423    23449239.2504
 00  4 22  1 57 30.0000000  0  7 03 09 26 17 29 23 21
  24381752.000    -2319993.490 7  -1798228.44244  24381750.600    24381764.0314
  20854855.267   -18632785.104 9 -14506549.98347  20854856.857    20854865.4594
  22773366.245    -9425921.546 8  -7044758.86846  22773369.412    22773379.1894
  20550606.101   -22682692.457 9 -17658274.62748  20550610.198    20550619.2014
  23035563.473    -9383396.978 8  -7288176.56146  23035567.954    23035577.8524
  21036122.942   -20509852.176 9 -15967981.58448  21036125.624    21036134.0674
  23434146.641    -8360741.904 8  -6504415.30446  23434150.641    23434159.7594
 00  4 22  1 58  0.0000000  0  7 03 09 26 17 29 23 21
  24384852.335    -2303723.596 7  -1785550.58244  24384848.805    24384859.4124
  20849538.594   -18660728.384 9 -14528323.91947  20849539.658    20849547.4714
  22791015.027    -9333174.667 8  -6972488.61146  22791018.698    22791028.3754
  20561578.375   -22625044.863 9 -17613354.40548  20561580.123    20561588.9344
  23020890.686    -9460508.351 8  -7348263.14646  23020893.997    23020904.3664
  21030225.209   -20540851.235 9 -15992136.68848  21030226.782    21030234.9844
  23419069.212    -8439978.168 8  -6566157.73046  23419071.672    23419081.5724
 00  4 22  1 58 30.0000000  0  7 03 09 26 17 29 23 21
  24388028.817    -2286974.943 7  -1772499.73145  24388032.694    24388048.0774
  20844331.489   -18688076.525 9 -14549634.12148  20844335.826    20844343.7364
  22808682.363    -9240349.303 8  -6900157.24946  22808683.020    22808692.5124
  20572649.866   -22566864.446 9 -17568018.98248  20572651.474    20572660.1404
  23006259.217    -9537402.537 8  -7408180.48146  23006262.507    23006271.5844
  21024364.461   -20571641.104 9 -16016128.74248  21024367.429    21024375.7584
  23403992.010    -8519214.500 8  -6627900.18346  23403993.437    23404003.9564
 00  4 22  1 59  0.0000000  0  7 03 09 26 17 29 23 21
  24391308.818    -2269757.212 7  -1759083.33245  24391309.597    24391322.5604
  20839246.026   -18714815.236 9 -14570469.43148  20839247.605    20839255.9574
  22826353.200    -9147472.600 8  -6827785.86946  22826356.724    22826366.2544
  20583820.376   -22508164.872 9 -17522279.02848  20583821.540    20583830.4864
  22991670.628    -9614090.056 8  -7467936.78946  22991668.292    22991678.9314
  21018543.017   -20602236.045 9 -16039968.88648  21018545.290    21018553.6914
  23388916.657    -8598441.614 8  -6689635.47746  23388917.439    23388926.3054
 00  4 22  1 59 30.0000000  0  7 03 09 26 17 29 23 21
  24394669.782    -2252073.383 7  -1745303.72845  24394675.347    24394689.9084
  20834275.477   -18740925.551 9 -14590815.07548  20834278.798    20834287.6044
  22844037.837    -9054545.432 8  -6755375.12246  22844040.551    22844048.5474
  20595087.788   -22448942.251 9 -17476131.51948  20595091.050    20595100.4884
  22977106.017    -9690584.988 8  -7527543.00346  22977111.781    22977120.7914
  21012755.727   -20632649.043 9 -16063667.27248  21012757.870    21012766.5724
  23373841.146    -8677643.876 8  -6751351.39546  23373845.057    23373855.5594
 00  4 22  2  0  0.0000000  0  7 03 09 26 17 29 23 21
  24398129.173    -2233921.728 7  -1731159.57644  24398129.452    24398139.4104
  20829428.236   -18766398.185 9 -14610663.83148  20829431.615    20829440.0474
  22861731.776    -8961562.906 8  -6682921.21346  22861734.335    22861743.0024
  20606460.347   -22389184.744 9 -17429567.21448  20606462.445    20606472.0294
  22962592.726    -9766882.034 8  -7586995.07546  22962593.017    22962602.5084
  21007002.909   -20662873.216 9 -16087218.52248  21007006.011    21007015.0734
  23358773.184    -8756827.058 8  -6813052.43546  23358776.497    23358786.5284
 00  4 22  2  0 30.0000000  0  7 03 09 26 17 29 23 21
  24401666.847    -2215309.561 7  -1716656.59144  24401670.170    24401682.6954
  20824703.632   -18791233.003 9 -14630015.57848  20824705.350    20824714.0384
  22879434.443    -8868527.247 8  -6610425.93546  22879438.459    22879447.6524
  20617941.292   -22328859.898 9 -17382560.86748  20617942.231    20617951.2524
  22948111.808    -9842967.904 8  -7646282.59546  22948114.186    22948124.0544
  21001289.567   -20692906.012 9 -16110620.63748  21001291.417    21001299.9214
  23343707.046    -8836005.870 8  -6874750.08546  23343709.188    23343719.4684
 00  4 22  2  1  0.0000000  0  7 03 09 26 17 29 23 21
  24405291.460    -2196240.872 7  -1701797.84445  24405299.988    24405313.5714
  20820102.147   -18815424.363 9 -14648865.93248  20820101.887    20820110.5824
  22897153.386    -8775426.613 8  -6537880.02946  22897154.325    22897164.2844
  20629531.418   -22267955.137 9 -17335102.61748  20629532.103    20629540.8744
  22933675.867    -9918831.696 8  -7705397.06046  22933677.869    22933688.0504
  20995607.713   -20722758.852 9 -16133882.52248  20995610.419    20995619.1314
  23328640.446    -8915183.989 8  -6936447.17046  23328641.774    23328652.2304
 00  4 22  2  1 30.0000000  0  7 03 09 26 17 29 23 21
  24409021.097    -2176707.166 7  -1686576.78345  24409019.450    24409027.0324
  20815615.374   -18838981.634 9 -14667222.19848  20815618.505    20815628.0134
  22914882.555    -8682238.820 8  -6465266.28246  22914887.236    22914896.6304
  20641233.106   -22206465.076 9 -17287188.31348  20641233.520    20641242.1624
  22919281.251    -9994456.382 8  -7764325.22446  22919285.525    22919296.2004
  20989963.253   -20752426.958 9 -16157000.45848  20989964.650    20989973.4384
  23313574.159    -8994361.133 8  -6998143.51546  23313576.100    23313585.2704
 00  4 22  2  2  0.0000000  0  7 03 09 26 17 29 23 21
  24412824.187    -2156702.257 7  -1670988.53745  24412825.214    24412834.7634
  20811250.965   -18861916.499 9 -14685093.46748  20811254.479    20811263.3514
  22932635.932    -8588964.512 8  -6392585.04746  22932636.842    22932646.4224
  20653042.003   -22144390.613 9 -17238818.64147  20653045.667    20653054.3844
  22904937.928   -10069844.218 8  -7823068.79246  22904940.498    22904950.1024
  20984351.215   -20781904.832 9 -16179970.22748  20984354.817    20984364.0854
  23298504.927    -9073537.969 8  -7059839.63746  23298508.420    23298518.3214
 00  4 22  2  2 30.0000000  0  7 03 09 26 17 29 23 21
  24416720.194    -2136228.368 7  -1655034.83545  24416720.852    24416731.5634
  20807002.893   -18884233.615 9 -14702483.37048  20807007.410    20807016.2934
  22950400.254    -8495612.144 8  -6319842.99046  22950401.966    22950411.5534
  20664965.119   -22081739.272 9 -17189999.44947  20664967.271    20664976.8504
  22890636.273   -10145001.270 8  -7881632.56546  22890638.818    22890647.7904
  20978775.693   -20811205.209 9 -16202801.72748  20978779.365    20978788.3414
  23283437.070    -9152708.089 8  -7121530.48846  23283441.151    23283452.8244
 00  4 22  2  3  0.0000000  0  7 03 09 26 17 29 23 21
  24420698.464    -2115276.632 7  -1638708.80245  24420706.612    24420718.6654
  20802875.393   -18905935.745 9 -14719394.05848  20802877.887    20802886.5404
  22968175.399    -8402185.748 8  -6247043.24246  22968180.046    22968189.6894
  20676992.931   -22018530.254 9 -17140745.71047  20676995.493    20677005.3894
  22876378.868   -10219927.979 8  -7940016.88246  22876380.838    22876390.3044
  20973233.615   -20840336.587 9 -16225501.53648  20973235.962    20973245.0614
  23268378.772    -9231854.568 8  -7183202.92746  23268381.897    23268393.0604
 00  4 22  2  3 30.0000000  0  7 03 09 26 17 29 23 21
  24424787.110    -2093838.584 7  -1622003.87344  24424786.151    24424799.0764
  20798864.540   -18927020.547 9 -14735823.71948  20798865.651    20798874.2214
  22985963.947    -8308701.782 8  -6174198.66946  22985969.467    22985978.1134
  20689127.877   -21954763.701 9 -17091057.53647  20689130.545    20689139.7784
  22862161.111   -10294631.272 8  -7998227.07146  22862164.494    22862174.5524
  20967725.849   -20869283.413 9 -16248057.50248  20967727.798    20967736.4444
  23253325.265    -9310973.169 8  -7244853.67046  23253326.142    23253336.3724
 00  4 22  2  4  0.0000000  0  7 03 09 26 17 29 23 21
  24428960.212    -2071914.421 7  -1604920.10544  24428959.710    24428970.6264
  20794971.135   -18947471.308 9 -14751759.33748  20794974.225    20794982.6404
  23003763.393    -8215172.397 8  -6101318.66246  23003767.601    23003776.8904
  20701368.335   -21890445.514 9 -17040939.54548  20701370.361    20701379.1074
  22847989.575   -10369112.291 8  -8056264.05446  22847990.521    22848000.3414
  20962252.954   -20898040.380 9 -16270465.49748  20962255.219    20962264.2484
  23238272.364    -9390067.856 8  -7306485.77946  23238274.267    23238284.5594
 00  4 22  2  4 30.0000000  0  7 03 09 26 17 29 23 21
  24433216.605    -2049510.242 7  -1587462.28245  24433219.814    24433233.1584
  20791203.518   -18967276.284 9 -14767191.74048  20791205.217    20791213.4584
  23021575.408    -8121589.842 8  -6028397.25546  23021575.742    23021585.6754
  20713706.747   -21825592.764 9 -16990404.98447  20713711.152    20713719.7454
  22833859.910   -10443355.273 8  -8114115.57046  22833862.992    22833871.9894
  20956815.429   -20926614.673 9 -16292731.15948  20956817.480    20956826.4424
  23223225.560    -9469142.309 8  -7368102.10546  23223226.552    23223237.0044
 00  4 22  2  5  0.0000000  0  7 03 09 26 17 29 23 21
  24437567.257    -2026626.142 7  -1569630.57645  24437576.630    24437589.3344
  20787557.278   -18986430.459 9 -14782117.02248  20787560.061    20787568.7734
  23039397.060    -8027943.289 8  -5955425.98546  23039396.387    23039405.7194
  20726148.941   -21760214.258 9 -16939460.74747  20726151.965    20726160.9584
  22819778.456   -10517355.795 8  -8171778.14446  22819780.651    22819790.3094
  20951413.625   -20954995.102 9 -16314845.74448  20951417.196    20951425.7394
  23208176.379    -9548198.926 8  -7429704.53346  23208183.477    23208193.1194
 00  4 22  2  5 30.0000000  0  7 03 09 26 17 29 23 21
  24442019.963    -2003281.329 7  -1551439.82045  24442019.306    24442030.7294
  20784036.383   -19004928.923 9 -14796531.36448  20784040.226    20784048.3654
  23057226.264    -7934225.013 8  -5882398.71946  23057230.416    23057239.6794
  20738688.016   -21694314.163 9 -16888110.08547  20738692.400    20738701.7684
  22805740.771   -10591117.682 8  -8229254.79446  22805743.477    22805754.5744
  20946050.382   -20983182.670 9 -16336810.05948  20946053.198    20946061.7564
  23193138.913    -9627245.591 8  -7491299.21346  23193141.393    23193150.9234
 00  4 22  2  6  0.0000000  0  7 03 09 26 17 29 23 21
  24446545.948    -1979486.925 7  -1532898.70145  24446547.745    24446561.0114
  20780641.411   -19022775.560 9 -14810437.79048  20780644.244    20780652.1184
  23075078.409    -7840423.139 8  -5809306.33546  23075079.654    23075090.5324
  20751326.190   -21627909.886 9 -16836366.55747  20751328.951    20751338.0144
  22791751.941   -10664642.323 8  -8286546.57646  22791752.575    22791762.7184
  20940721.745   -21011189.986 9 -16358633.93248  20940723.771    20940732.2494
  23178097.217    -9706278.646 8  -7552883.28346  23178100.307    23178111.5644
 00  4 22  2  6 30.0000000  0  7 03 09 26 17 29 23 21
  24451151.301    -1955256.333 7  -1514017.73845  24451157.399    24451169.8124
  20777364.781   -19039981.753 9 -14823845.16348  20777369.411    20777377.9144
  23092940.916    -7746542.599 8  -5736152.69846  23092944.946    23092955.3544
  20764059.371   -21560996.975 9 -16784226.70047  20764061.887    20764071.6344
  22777803.703   -10737940.880 8  -8343662.20546  22777804.713    22777814.3754
  20935425.275   -21039022.807 9 -16380321.81648  20935427.317    20935435.8734
  23163059.901    -9785299.067 8  -7614457.48246  23163062.699    23163074.2884
 00  4 22  2  7  0.0000000  0  7 03 09 26 17 29 23 21
  24455845.919    -1930600.396 7  -1494805.34045  24455849.606    24455861.5384
  20774213.063   -19056554.782 9 -14836759.18648  20774215.702    20774224.0644
  23110820.634    -7652602.998 8  -5662953.11246  23110820.696    23110830.4344
  20776892.952   -21493558.084 9 -16731677.01447  20776895.156    20776904.6654
  22763893.163   -10811024.352 8  -8400610.21946  22763896.994    22763906.7154
  20930164.533   -21066666.306 9 -16401862.17948  20930167.229    20930175.4324
  23148028.054    -9864297.358 8  -7676014.48646  23148030.833    23148040.6614
 00  4 22  2  7 30.0000000  0  7 03 09 26 17 29 23 21
  24460622.519    -1905517.874 7  -1475260.51445  24460623.449    24460636.9764
  20771182.690   -19072489.896 9 -14849176.11448  20771183.661    20771191.4864
  23128701.384    -7558621.655 8  -5589720.92446  23128704.904    23128715.2254
  20789825.920   -21425591.245 9 -16678715.92547  20789828.764    20789838.2914
  22750027.378   -10883899.534 8  -8457395.94046  22750029.716    22750039.4254
  20924941.579   -21094119.882 9 -16423254.48948  20924942.976    20924951.0734
  23133000.851    -9943260.349 8  -7737544.00846  23133004.287    23133014.2514
 00  4 22  2  8  0.0000000  0  7 03 09 26 17 29 23 21
  24465472.854    -1879996.610 7  -1455373.82045  24465479.767    24465493.4444
  20768269.057   -19087788.918 9 -14861097.38248  20768272.147    20768280.7384
  23146590.181    -7464607.009 8  -5516462.83146  23146595.376    23146605.5604
  20802859.551   -21357092.670 9 -16625340.48947  20802863.905    20802872.7944
  22736197.895   -10956567.870 8  -8514020.45746  22736200.617    22736210.8874
  20919753.728   -21121374.017 9 -16444491.44448  20919756.321    20919764.6794
  23117982.390   -10022191.596 8  -7799048.74046  23117983.824    23117994.6204
 00  4 22  2  8 30.0000000  0  7 03 09 26 17 29 23 21
  24470420.706    -1854043.708 7  -1435150.79245  24470418.720    24470431.1844
  20765477.947   -19102453.589 9 -14872524.36448  20765481.359    20765490.0504
  23164487.886    -7370565.174 8  -5443183.57446  23164490.646    23164501.2764
  20816001.622   -21288034.656 9 -16571529.10347  20816005.050    20816013.9004
  22722409.632   -11029017.800 8  -8570474.83146  22722413.483    22722423.6704
  20914607.396   -21148418.519 9 -16465565.09748  20914610.029    20914618.3394
  23102966.270   -10101088.980 8  -7860527.08646  23102969.794    23102981.2204
 00  4 22  2  9  0.0000000  0  7 03 09 26 17 29 23 21
  24475436.725    -1827652.016 7  -1414585.84645  24475439.374    24475453.5884
  20762809.567   -19116481.762 9 -14883455.37248  20762812.371    20762820.2334
  23182386.227    -7276495.476 8  -5369882.61246  23182391.940    23182402.0564
  20829249.370   -21218422.121 9 -16517285.62447  20829251.757    20829261.2384
  22708668.915   -11101232.378 8  -8626745.79946  22708670.764    22708682.1894
  20909503.386   -21175250.056 9 -16486472.79048  20909504.241    20909512.3134
  23087962.225   -10179947.196 8  -7921974.94246  23087964.606    23087975.5634
 00  4 22  2  9 30.0000000  0  7 03 09 26 17 29 23 21
  24480541.546    -1800811.218 7  -1393670.96645  24480547.046    24480560.2634
  20760259.868   -19129878.902 9 -14893894.66748  20760262.547    20760270.6234
  23200295.707    -7182383.086 8  -5296548.34846  23200300.492    23200310.2734
  20842597.855   -21148268.729 9 -16462620.69747  20842602.023    20842611.3784
  22694975.201   -11173208.049 8  -8682830.60246  22694974.869    22694985.4394
  20904433.786   -21201877.604 9 -16507221.48648  20904436.993    20904445.1134
  23072958.757   -10258786.740 8  -7983408.24746  23072961.616    23072971.6514
 00  4 22  2 10  0.0000000  0  7 03 09 26 17 29 23 21
  24485737.248    -1773532.450 7  -1372414.79345  24485738.636    24485752.8124
  20757829.204   -19142652.358 9 -14903847.96748  20757832.064    20757839.6994
  23218215.104    -7088223.648 8  -5223177.44446  23218218.260    23218230.0424
  20856054.479   -21077567.753 9 -16407529.07447  20856056.567    20856065.6514
  22681320.709   -11244936.823 8  -8738722.99746  22681325.232    22681335.4834
  20899407.360   -21228298.832 9 -16527809.40248  20899408.989    20899417.2714
  23057956.368   -10337622.547 8  -8044838.66646  23057958.644    23057969.6774
 00  4 22  2 10 30.0000000  0  7 03 09 26 17 29 23 21
  24491009.299    -1745823.611 7  -1350823.49845  24491007.817    24491024.3004
  20755519.667   -19154801.203 9 -14913314.56348  20755520.589    20755527.9144
  23236139.225    -6994020.573 8  -5149772.58546  23236145.289    23236155.8934
  20869608.687   -21006329.904 9 -16352019.12047  20869611.722    20869621.3074
  22667719.515   -11316425.728 8  -8794428.50846  22667721.387    22667731.3844
  20894417.341   -21254519.122 9 -16548240.72548  20894419.571    20894427.8244
  23042955.993   -10416444.769 8  -8106258.48146  23042959.755    23042970.4824
 00  4 22  2 11  0.0000000  0  7 03 09 26 17 29 23 21
  24496366.595    -1717672.454 7  -1328887.58345  24496369.415    24496384.1554
  20753325.321   -19166320.059 9 -14922290.25348  20753327.949    20753336.2404
  23254069.239    -6899779.952 8  -5076338.44646  23254078.902    23254089.0094
  20883257.630   -20934597.731 9 -16296123.97247  20883262.193    20883271.7124
  22654153.901   -11387695.151 8  -8849962.99646  22654159.465    22654169.0204
  20889464.200   -21280543.492 9 -16568519.40148  20889467.245    20889475.8134
  23027960.386   -10495261.488 8  -8167673.98146  23027961.467    23027972.7014
 00  4 22  2 11 30.0000000  0  7 03 09 26 17 29 23 21
  24501810.042    -1689070.947 7  -1306600.65244  24501811.231    24501823.9704
  20751254.648   -19177206.497 9 -14930773.15148  20751256.327    20751264.8554
  23272017.337    -6805501.950 8  -5002875.17846  23272020.035    23272029.1124
  20897006.553   -20862365.060 9 -16239838.81947  20897008.051    20897017.2834
  22640634.795   -11458761.515 8  -8905339.25746  22640635.747    22640646.2684
  20884552.442   -21306358.872 9 -16588635.25248  20884554.734    20884563.3264
  23012966.812   -10574068.896 8  -8229082.27546  23012965.808    23012975.9714
 00  4 22  2 12  0.0000000  0  7 03 09 26 17 29 23 21
  24507333.265    -1660025.167 7  -1283967.57944  24507337.551    24507352.0964
  20749305.640   -19187446.738 9 -14938752.50748  20749308.006    20749315.7314
  23289962.431    -6711195.476 8  -4929389.69046  23289965.860    23289975.7184
  20910845.213   -20789630.487 9 -16183162.57347  20910848.851    20910858.1134
  22627148.097   -11529627.897 8  -8960559.66746  22627151.166    22627160.4614
  20879680.103   -21331954.040 9 -16608579.48648  20879683.751    20879692.6704
  22997972.430   -10652845.839 8  -8290466.83346  22997973.914    22997984.5214
 00  4 22  2 12 30.0000000  0  7 03 09 26 17 29 23 21
  24512945.663    -1630520.856 7  -1260977.21144  24512952.407    24512965.1694
  20747479.062   -19197034.290 9 -14946223.28248  20747483.170    20747491.3524
  23307911.339    -6616864.477 8  -4855885.10946  23307916.284    23307926.2384
  20924780.670   -20716400.571 9 -16126100.32947  20924783.796    20924793.4154
  22613699.863   -11600295.820 8  -9015625.45646  22613702.179    22613711.9544
  20874851.620   -21357334.123 9 -16628356.11048  20874854.438    20874862.9054
  22982983.414   -10731584.542 8  -8351821.55746  22982990.406    22983001.2944
 00  4 22  2 13  0.0000000  0  7 03 09 26 17 29 23 21
  24518652.636    -1600552.289 7  -1237625.10244  24518654.714    24518667.8414
  20745779.794   -19205966.430 9 -14953183.35248  20745783.282    20745791.5384
  23325867.770    -6522502.775 8  -4782356.55746  23325872.690    23325882.5184
  20938811.140   -20642662.223 9 -16068641.91047  20938815.549    20938825.5004
  22600293.277   -11670750.760 8  -9070525.30946  22600295.605    22600305.0454
  20870065.919   -21382487.572 9 -16647956.15248  20870067.825    20870076.3254
  22968014.023   -10810286.465 8  -8413147.65546  22968014.320    22968024.8544
 00  4 22  2 13 30.0000000  0  7 03 09 26 17 29 23 21
  24524443.037    -1570130.437 7  -1213919.75444  24524444.992    24524459.3174
  20744204.331   -19214242.113 9 -14959631.89748  20744208.839    20744216.6224
  23343837.489    -6428104.615 8  -4708799.67246  23343836.200    23343847.0764
  20952947.459   -20568389.078 9 -16010766.76847  20952949.556    20952958.8624
  22586931.153   -11740973.506 8  -9125244.21846  22586932.702    22586942.4604
  20865321.884   -21407412.719 9 -16667378.29648  20865324.785    20865333.3134
  22953041.596   -10888949.099 8  -8474443.15146  22953045.161    22953055.9574
 00  4 22  2 14  0.0000000  0  7 03 09 26 17 29 23 21
  24530311.427    -1539280.129 7  -1189880.57944  24530315.156    24530330.0074
  20742757.817   -19221850.396 9 -14965560.39748  20742761.029    20742768.7964
  23361804.090    -6333673.173 8  -4635216.78746  23361806.707    23361816.5044
  20967179.275   -20493598.393 9 -15952488.36247  20967182.340    20967191.3154
  22573614.846   -11810953.627 8  -9179774.07146  22573615.327    22573625.0514
  20860620.381   -21432128.370 9 -16686637.18048  20860621.508    20860629.8984
  22938079.900   -10967574.907 8  -8535709.91446  22938082.938    22938093.5774
 00  4 22  2 14 30.0000000  0  7 03 09 26 17 29 23 21
  24536268.095    -1508003.136 7  -1165508.90244  24536265.129    24536279.1944
  20741435.769   -19228802.131 9 -14970977.30348  20741437.779    20741445.9494
  23379776.291    -6239199.873 8  -4561601.34846  23379783.752    23379793.5364
  20981510.259   -20418294.560 9 -15893810.09847  20981511.898    20981521.0164
  22560342.101   -11880689.502 8  -9234113.58346  22560345.389    22560354.7584
  20855953.907   -21456642.773 9 -16705739.22848  20855956.434    20855964.8934
  22923125.549   -11046168.663 8  -8596951.64646  22923127.081    22923138.0924
 00  4 22  2 15  0.0000000  0  7 03 09 26 17 29 23 21
  24542293.724    -1476307.313 7  -1140810.89444  24542299.217    24542311.1494
  20740237.186   -19235099.659 9 -14975884.43148  20740239.372    20740247.9024
  23397770.127    -6144683.420 8  -4487952.30846  23397770.667    23397779.5904
  20995935.124   -20342487.378 9 -15834739.60847  20995937.704    20995946.9494
  22547117.314   -11950186.134 8  -9288266.68246  22547120.646    22547129.5594
  20851328.806   -21480947.356 9 -16724677.81548  20851331.501    20851339.6174
  22908175.002   -11124735.639 8  -8658172.55746  22908176.873    22908186.2184
 00  4 22  2 15 30.0000000  0  7 03 09 26 17 29 23 21
  24548406.037    -1444205.633 7  -1115796.63044  24548408.541    24548418.1154
  20739164.323   -19240740.321 9 -14980279.72348  20739165.867    20739174.5824
  23415761.491    -6050128.820 8  -4414273.45946  23415763.605    23415773.6074
  21010454.583   -20266188.277 9 -15775285.79347  21010457.096    21010466.0244
  22533936.382   -12019444.354 8  -9342234.05246  22533940.326    22533950.7494
  20846742.199   -21505048.685 9 -16743458.05248  20846745.009    20846753.2224
  22893229.935   -11203274.522 8  -8719371.54746  22893231.448    22893240.3934
 00  4 22  2 16  0.0000000  0  7 03 09 26 17 29 23 21
  24554587.045    -1411702.415 6  -1090469.46444  24554592.557    24554605.0374
  20738214.272   -19245730.528 9 -14984168.16148  20738216.747    20738224.7094
  23433754.100    -5955540.120 8  -4340568.07346  23433762.937    23433774.1014
  21025064.011   -20189407.104 9 -15715456.35847  21025068.142    21025076.7324
  22520796.303   -12088468.265 8  -9396018.78846  22520804.972    22520815.8124
  20842194.439   -21528945.304 9 -16762078.76148  20842197.265    20842205.8464
  22878289.071   -11281774.328 8  -8780540.10546  22878292.425    22878302.3044
 00  4 22  2 16 30.0000000  0  7 03 09 26 17 29 23 21
  24560858.494    -1378779.907 7  -1064815.51544  24560861.828    24560872.7924
  20737385.716   -19250091.962 9 -14987566.65648  20737386.488    20737394.7584
  23451766.480    -5860926.014 8  -4266842.83146  23451766.914    23451777.4094
  21039770.967   -20112132.569 9 -15655242.46847  21039772.360    21039782.0074
  22507715.222   -12157249.269 8  -9449614.22646  22507716.468    22507726.8774
  20837688.014   -21552633.161 9 -16780536.78848  20837689.652    20837698.0854
  22863361.009   -11360234.671 8  -8841677.96546  22863361.412    22863372.4094
 00  4 22  2 17  0.0000000  0  7 03 09 26 17 29 23 21
  24567194.783    -1345451.492 7  -1038845.39044  24567199.738    24567214.8894
  20736675.140   -19253812.795 9 -14990465.98748  20736678.353    20736686.6404
  23469769.553    -5766311.768 8  -4193117.53046  23469772.274    23469782.4754
  21054567.495   -20034370.418 9 -15594648.63647  21054570.222    21054579.6694
  22494678.180   -12225768.755 8  -9503005.89146  22494678.228    22494687.4624
  20833218.870   -21576116.388 9 -16798835.35048  20833220.842    20833229.0274
  22848439.311   -11438650.544 8  -8902781.15946  22848440.048    22848449.9664
 00  4 22  2 17 30.0000000  0  7 03 09 26 17 29 23 21
  24573608.641    -1311727.168 7  -1012566.73344  24573618.292    24573630.6724
  20736088.983   -19256893.385 9 -14992866.41448  20736091.847    20736100.0564
  23487780.504    -5671694.937 8  -4119390.18346  23487776.871    23487787.9084
  21069460.575   -19956116.731 9 -15533671.78847  21069461.262    21069471.1574
  22481685.548   -12294019.364 8  -9556188.10246  22481690.331    22481700.0624
  20828786.941   -21599401.238 9 -16816979.34948  20828790.328    20828798.0304
  22833531.070   -11517008.181 8  -8963839.00146  22833530.130    22833538.9554
 00  4 22  2 18  0.0000000  0  7 03 09 26 17 29 23 21
  24580112.529    -1277598.952 7   -985973.30144  24580113.850    24580126.7884
  20735621.000   -19259350.807 9 -14994781.27048  20735624.368    20735633.0454
  23505773.884    -5577081.384 8  -4045665.37746  23505781.258    23505791.9664
  21084443.661   -19877373.161 9 -15472313.22347  21084445.986    21084455.3014
  22468750.695   -12362005.477 8  -9609164.18046  22468753.272    22468762.5644
  20824395.875   -21622483.800 9 -16834965.71248  20824397.590    20824405.6604
  22818626.964   -11595305.933 8  -9024850.17146  22818629.459    22818639.3404
 00  4 22  2 18 30.0000000  0  7 03 09 26 17 29 23 21
  24586683.493    -1243057.842 7   -959058.18244  24586687.389    24586700.3644
  20735270.123   -19261187.053 9 -14996212.08648  20735274.708    20735283.1124
  23523779.891    -5482473.465 8  -3971945.03846  23523784.838    23523794.7964
  21099522.356   -19798143.426 9 -15410575.82547  21099522.844    21099532.5584
  22455860.520   -12429734.237 8  -9661939.75446  22455864.658    22455873.7154
  20820042.629   -21645352.871 9 -16852785.71848  20820045.625    20820054.2884
  22803738.261   -11673550.239 8  -9085819.70346  22803739.613    22803749.8214
 00  4 22  2 19  0.0000000  0  7 03 09 26 17 29 23 21
  24593327.627    -1208114.225 7   -931829.41744  24593334.614    24593344.5904
  20735046.823   -19262379.337 9 -14997141.10248  20735048.236    20735056.5444
  23541784.388    -5387852.061 8  -3898214.10145  23541789.913    23541800.3954
  21114689.544   -19718431.081 9 -15348462.36747  21114691.691    21114700.6894
  22443021.324   -12497223.456 8  -9714528.67146  22443021.426    22443031.1544
  20815734.940   -21667990.401 9 -16870425.33948  20815737.894    20815746.2264
  22788858.729   -11751739.150 8  -9146746.02546  22788860.686    22788871.0564
 00  4 22  2 19 30.0000000  0  7 03 09 26 17 29 23 21
  24600062.904    -1172754.285 7   -904276.23844  24600063.442    24600076.7114
  20734939.568   -19262937.891 9 -14997576.31848  20734941.656    20734949.9444
  23559794.407    -5293198.582 8  -3824458.28045  23559802.164    23559813.4714
  21129948.080   -19638227.790 9 -15285966.34947  21129953.756    21129963.0214
  22430214.813   -12564493.600 8  -9766946.88846  22430219.744    22430230.1674
  20811473.782   -21690382.545 9 -16887873.78048  20811476.659    20811485.2124
  22773987.543   -11829880.976 8  -9207635.65246  22773991.490    22774000.6694
 00  4 22  2 20  0.0000000  0  7 03 09 26 17 29 23 21
  24606866.561    -1136980.635 7   -876400.72644  24606870.985    24606886.9824
  20734951.905   -19262858.955 9 -14997514.79348  20734956.436    20734964.8224
  23577816.812    -5198521.285 8  -3750683.89745  23577819.484    23577830.2614
  21145306.153   -19557537.733 9 -15223091.04247  21145308.753    21145317.8924
  22417457.706   -12631548.653 8  -9819197.51546  22417460.962    22417470.0544
  20807260.727   -21712531.172 9 -16905132.40748  20807262.042    20807270.3794
  22759122.146   -11907991.458 8  -9268500.85646  22759126.089    22759136.0114
 00  4 22  2 20 30.0000000  0  7 03 09 26 17 29 23 21
  24613757.585    -1100805.931 7   -848212.62844  24613760.321    24613770.3124
  20735096.010   -19262119.282 9 -14996938.41948  20735097.471    20735105.6474
  23595835.315    -5103817.199 8  -3676888.63545  23595841.219    23595851.6634
  21160753.224   -19476361.199 9 -15159836.66847  21160756.601    21160765.5794
  22404737.293   -12698389.811 8  -9871281.46946  22404741.131    22404750.3894
  20803089.404   -21734447.165 9 -16922209.78248  20803091.572    20803099.7664
  22744269.354   -11986074.658 8  -9329344.80546  22744268.306    22744277.7304
 00  4 22  2 21  0.0000000  0  7 03 09 26 17 29 23 21
  24620714.669    -1064246.062 7   -819724.38444  24620714.818    24620720.8654
  20735361.104   -19260711.216 9 -14995841.20848  20735365.257    20735373.7964
  23613867.310    -5009088.770 8  -3603074.34345  23613866.232    23613877.4704
  21176289.986   -19394712.600 9 -15096214.46947  21176293.934    21176303.0714
  22392061.234   -12765013.339 8  -9923195.83546  22392063.945    22392072.5474
  20798961.405   -21756145.116 9 -16939117.26048  20798962.352    20798970.7084
  22729410.111   -12064130.092 8  -9390167.08746  22729414.062    22729424.2444
 00  4 22  2 21 30.0000000  0  7 03 09 26 17 29 23 21
  24627738.076    -1027301.086 7   -790936.17544  24627742.319    24627755.5154
  20735753.461   -19258654.328 9 -14994238.42548  20735756.933    20735764.8644
  23631892.030    -4914349.519 8  -3529251.60745  23631895.378    23631905.0544
  21191916.502   -19312595.107 9 -15032226.89247  21191920.270    21191929.6694
  22379424.533   -12831413.441 8  -9974936.09446  22379427.824    22379436.5424
  20794871.090   -21777633.830 9 -16955861.67648  20794873.484    20794881.6364
  22714563.949   -12142150.529 8  -9450962.07846  22714567.768    22714577.5814
 00  4 22  2 22  0.0000000  0  7 03 09 26 17 29 23 21
  24634856.144     -989963.617 7   -761842.08844  24634843.596    24634861.0654
  20736268.529   -19255946.327 9 -14992128.27548  20736272.415    20736280.1044
  23649923.499    -4819598.378 8  -3455419.59245  23649925.849    23649936.0504
  21207634.089   -19230012.978 9 -14967877.25047  21207635.080    21207644.4364
  22366829.526   -12897587.220 8 -10026499.98546  22366834.526    22366843.9854
  20790821.186   -21798916.363 9 -16972445.44448  20790823.408    20790831.7314
  22699728.252   -12220122.821 8  -9511719.60146  22699729.943    22699738.8824
 00  4 22  2 22 30.0000000  0  7 03 09 26 17 29 23 21
  24642031.177     -952216.378 7   -732428.68644  24642030.271    24642045.2284
  20736909.015   -19252588.129 9 -14989511.47948  20736911.064    20736919.4924
  23667949.902    -4724829.705 8  -3381573.98145  23667960.047    23667969.5044
  21223437.680   -19146961.677 9 -14903162.00747  21223439.065    21223448.0674
  22354280.839   -12963532.679 8 -10077885.95846  22354284.639    22354295.3724
  20786815.535   -21819968.504 9 -16988849.72248  20786817.258    20786825.6294
  22684904.315   -12298024.270 8  -9572421.98246  22684905.849    22684915.1394
 00  4 22  2 23  0.0000000  0  6 09 26 17 29 23 21
  20737668.814   -19248588.435 9 -14986394.82648  20737672.061    20737680.4604
  23685987.512    -4630052.955 7  -3307722.02445  23685993.479    23686005.9894
  21239329.512   -19063438.861 9 -14838079.35247  21239332.818    21239342.6854
  22341778.121   -13029250.489 8 -10129094.55646  22341779.689    22341789.9894
  20782856.046   -21840768.426 9 -17005057.45548  20782859.407    20782867.7404
  22670093.007   -12375848.794 8  -9633064.39746  22670096.390    22670104.6744
 00  4 22  2 23 30.0000000  0  6 09 26 17 29 23 21
  20738551.368   -19243954.516 9 -14982783.97048  20738554.096    20738562.6294
  23704033.240    -4535272.766 8  -3233867.40345  23704031.572    23704042.1924
  21255318.686   -18979419.791 9 -14772610.00247  21255320.923    21255330.6654
  22329315.158   -13094741.512 8 -10180126.41446  22329317.578    22329326.9194
  20778947.959   -21861309.690 9 -17021063.66048  20778950.651    20778958.8194
  22655301.227   -12453592.192 8  -9693643.57046  22655301.814    22655311.9094
 00  4 22  2 24  0.0000000  0  7 09 26 17 29 23 15 21
  20739554.657   -19238679.629 9 -14978673.64748  20739558.077    20739566.1504
  23722062.731    -4440500.969 8  -3160019.35746  23722066.312    23722076.9914
  21271398.490   -18894915.445 9 -14706762.51447  21271401.989    21271411.4494
  22316896.533   -13160005.387 8 -10230981.28846  22316898.239    22316907.5924
  20775086.024   -21881596.067 9 -17036871.26248  20775089.935    20775098.2884
  24239697.165    -1122126.63117   -854347.73055  24239701.325    24239717.0734
  22640516.463   -12531267.239 8  -9754169.48446  22640521.073    22640531.1594
 00  4 22  2 24 30.0000000  0  7 09 26 17 29 23 15 21
  20740680.370   -19232758.817 9 -14974060.00948  20740684.530    20740692.5634
  23740099.637    -4345759.298 8  -3086194.76946  23740095.203    23740105.8884
  21287570.162   -18809933.304 9 -14640542.72347  21287573.326    21287583.2814
  22304516.560   -13225040.170 8 -10281657.63146  22304522.158    22304530.9964
  20771273.988   -21901640.823 9 -17052490.52148  20771275.753    20771283.8044
  24219598.483    -1227734.552 7   -936639.46245  24219605.104    24219618.9754
  22625747.987   -12608887.193 8  -9814652.55846  22625750.302    22625759.5044
 00  4 22  2 25  0.0000000  0  7 09 26 17 29 23 15 21
  20741927.452   -19226199.190 9 -14968948.58248  20741932.656    20741940.9834
  23758111.565    -4251056.406 8  -3012400.42245  23758116.284    23758127.0424
  21303830.545   -18724479.929 9 -14573955.73047  21303834.761    21303844.4224
  22292185.830   -13289845.034 8 -10332154.84246  22292189.682    22292198.9794
  20767500.246   -21921471.662 9 -17067943.10248  20767502.003    20767510.0884
  24199548.103    -1333137.961 7  -1018771.82045  24199548.725    24199561.2584
  22610984.271   -12686467.753 8  -9875104.90646  22610987.031    22610996.4114
 00  4 22  2 25 30.0000000  0  7 09 26 17 29 23 15 21
  20743300.675   -19218998.223 9 -14963337.41748  20743302.960    20743311.4344
  23776131.233    -4156376.718 8  -2938624.11545  23776133.875    23776144.9144
  21320180.033   -18638565.690 9 -14507009.62347  21320184.140    21320193.6874
  22279901.496   -13354412.584 8 -10382467.12246  22279903.215    22279912.3734
  20763764.314   -21941104.113 9 -17083241.10048  20763766.137    20763774.2524
  24179528.038    -1438333.972 7  -1100742.53545  24179530.129    24179543.3104
  22596228.506   -12764005.875 8  -9935524.09346  22596231.591    22596241.1254
 00  4 22  2 26  0.0000000  0  7 09 26 17 29 23 15 21
  20744794.049   -19211151.398 9 -14957222.99148  20744796.226    20744804.2074
  23794138.342    -4061709.877 8  -2864857.80245  23794147.814    23794158.6984
  21336615.363   -18552208.617 9 -14439718.45047  21336616.910    21336626.9234
  22267657.200   -13418737.361 8 -10432590.21346  22267662.220    22267671.9284
  20760064.946   -21960536.311 9 -17098383.04148  20760068.022    20760076.6564
  24159544.209    -1543319.568 7  -1182549.34045  24159550.676    24159564.7054
  22581483.829   -12841499.594 8  -9995908.62646  22581485.769    22581494.5894
 00  4 22  2 26 30.0000000  0  7 09 26 17 29 23 15 21
  20746410.518   -19202655.019 9 -14950602.41748  20746413.110    20746421.5114
  23812161.089    -3967042.397 8  -2791090.98445  23812162.888    23812173.3684
  21353134.969   -18465402.457 9 -14372077.34947  21353135.996    21353145.5284
  22255465.749   -13482814.400 8 -10482520.26646  22255468.871    22255478.9184
  20756408.313   -21979750.591 9 -17113355.23348  20756411.795    20756420.0474
  24139607.913    -1648092.022 7  -1264190.02645  24139613.573    24139627.1584
  22566746.661   -12918935.163 8 -10056247.87046  22566749.747    22566759.5144
 00  4 22  2 27  0.0000000  0  7 09 26 17 29 23 15 21
  20748150.759   -19193514.133 9 -14943479.63448  20748152.399    20748160.9554
  23830176.332    -3872353.660 8  -2717307.69445  23830181.626    23830192.0384
  21369736.956   -18378145.734 9 -14304085.16447  21369740.488    21369749.9624
  22243320.429   -13546642.242 8 -10532256.13947  22243323.863    22243331.8154
  20752798.889   -21998720.598 9 -17128137.08148  20752802.056    20752810.3804
  24119710.795    -1752648.661 7  -1345662.53245  24119715.991    24119730.9764
  22552024.433   -12996306.087 8 -10116536.75246  22552026.048    22552036.2554
 00  4 22  2 27 30.0000000  0  7 09 26 17 29 23 15 21
  20750012.562   -19183729.386 9 -14935855.13448  20750014.420    20750022.6064
  23848200.873    -3777635.612 8  -2643501.55345  23848205.565    23848216.2614
  21386426.578   -18290448.448 9 -14235749.68247  21386428.506    21386438.7454
  22231219.324   -13610221.377 8 -10581798.22946  22231224.123    22231233.0864
  20749240.461   -22017428.139 9 -17142714.44448  20749242.222    20749250.1824
  24099859.752    -1856986.513 7  -1426964.58045  24099861.239    24099875.5214
  22537310.204   -13073608.734 8 -10176772.56346  22537315.897    22537326.3744
 00  4 22  2 28  0.0000000  0  7 09 26 17 29 23 15 21
  20751993.964   -19173315.633 9 -14927740.49748  20751996.250    20752004.3444
  23866227.983    -3682904.817 8  -2569685.43045  23866233.089    23866242.6174
  21403197.996   -18202314.790 9 -14167074.17947  21403199.916    21403209.9054
  22219168.249   -13673559.054 8 -10631152.17846  22219171.308    22219180.0554
  20745732.861   -22035861.431 9 -17157077.94248  20745734.415    20745742.1594
  24080039.509    -1961102.758 7  -1508093.92645  24080048.016    24080061.7404
  22522617.139   -13150845.431 8 -10236956.98346  22522618.364    22522628.6124
 00  4 22  2 28 30.0000000  0  7 09 26 17 29 23 15 21
  20754092.027   -19162281.339 9 -14919142.31848  20754095.699    20754104.3634
  23884253.371    -3588174.672 8  -2495869.82245  23884258.597    23884268.4074
  21420052.753   -18113745.093 9 -14098058.89647  21420054.369    21420063.4434
  22207162.116   -13736662.859 8 -10680323.87547  22207163.333    22207172.1454
  20742275.829   -22054022.569 9 -17171229.33848  20742278.497    20742286.0454
  24060273.125    -2064994.771 7  -1589048.55245  24060277.375    24060292.2134
  22507928.911   -13228021.101 8 -10297093.83246  22507932.028    22507942.2734
 00  4 22  2 29  0.0000000  0  7 09 26 17 29 23 15 21
  20756308.603   -19150627.639 9 -14910061.48748  20756313.296    20756321.8314
  23902282.909    -3493451.793 8  -2422059.87445  23902283.262    23902293.6974
  21436991.059   -18024739.854 9 -14028704.22747  21436991.492    21437001.1104
  22195196.842   -13799536.098 8 -10729315.89747  22195199.125    22195207.8444
  20738867.649   -22071925.440 9 -17185179.57848  20738871.288    20738879.2734
  24040551.305    -2168659.490 7  -1669826.13345  24040551.400    24040564.0244
  22493255.823   -13305142.617 8 -10357188.54846  22493256.845    22493267.1114
 00  4 22  2 29 30.0000000  0  7 09 26 17 29 23 15 21
  20758646.604   -19138355.402 9 -14900498.68548  20758648.466    20758656.9584
  23920297.302    -3398747.488 8  -2348264.43845  23920304.542    23920316.1554
  21454008.684   -17935301.922 8 -13959012.41147  21454010.903    21454020.8814
  22183274.321   -13862178.814 8 -10778128.33447  22183277.999    22183287.0764
  20735508.640   -22089581.468 9 -17198937.46248  20735511.764    20735519.6614
  24020872.146    -2272094.131 7  -1750424.46145  24020868.630    24020880.3684
  22478589.431   -13382203.384 8 -10417235.92147  22478592.725    22478602.8744
 00  4 22  2 30  0.0000000  0  7 09 26 17 29 23 15 21
  20761100.969   -19125451.545 9 -14890443.70348  20761104.287    20761112.4374
  23938314.795    -3304073.865 8  -2274492.90745  23938322.431    23938332.4194
  21471109.958   -17845423.876 8 -13888977.65647  21471114.117    21471124.2894
  22171400.563   -13924595.090 8 -10826764.30447  22171400.430    22171409.5714
  20732196.276   -22106991.699 9 -17212503.80348  20732198.503    20732206.6064
  24001222.900    -2375295.938 7  -1830841.32245  24001229.994    24001243.7594
  22463937.964   -13459202.407 8 -10477235.09647  22463940.029    22463950.5884
 00  4 22  2 30 30.0000000  0  7 09 26 17 29 23 15 21
  20763682.212   -19111888.923 9 -14879875.42048  20763685.048    20763693.1114
  23956335.933    -3209415.181 8  -2200732.96745  23956334.499    23956346.0174
  21488298.336   -17755104.271 8 -13818598.82147  21488301.381    21488311.5104
  22159568.481   -13986775.472 8 -10875216.44047  22159568.472    22159577.0114
  20728928.756   -22124160.522 9 -17225882.11748  20728931.477    20728939.5514
  23981632.964    -2478261.888 8  -1911074.46045  23981636.529    23981649.5314
  22449298.762   -13536129.761 8 -10537178.57947  22449301.498    22449311.4524
 00  4 22  2 31  0.0000000  0  7 09 26 17 29 23 15 21
  20766390.089   -19097651.736 9 -14868781.49148  20766393.996    20766402.4834
  23974337.618    -3114764.930 8  -2126979.59745  23974346.224    23974357.5744
  21505566.407   -17664350.830 8 -13747881.92347  21505571.359    21505581.2864
  22147777.034   -14048714.077 8 -10923480.20047  22147781.803    22147789.3394
  20725708.954   -22141076.885 9 -17239063.68248  20725712.143    20725720.6794
  23962087.378    -2580989.004 8  -1991121.50545  23962088.025    23962100.6044
  22434677.543   -13612968.959 8 -10597053.31447  22434679.411    22434690.3154
 00  4 22  2 31 30.0000000  0  7 09 26 17 29 23 15 21
  20769229.755   -19082741.999 9 -14857163.49248  20769231.378    20769239.7614
  23992355.016    -3020114.230 8  -2053225.92145  23992357.627    23992369.4184
  21522917.989   -17573183.437 8 -13676842.46647  21522919.758    21522929.7214
  22136038.055   -14110417.694 8 -10971560.86847  22136039.750    22136047.7564
  20722538.305   -22157738.649 9 -17252046.83948  20722541.565    20722549.9804
  23942583.580    -2683474.570 8  -2070980.31345  23942586.132    23942598.7644
  22420076.583   -13689714.125 8 -10656854.70947  22420075.312    22420085.6324
 00  4 22  2 32  0.0000000  0  7 09 26 17 29 23 15 21
  20772192.349   -19067158.286 9 -14845020.32947  20772196.772    20772205.3394
  24010370.489    -2925460.450 8  -1979469.85345  24010370.473    24010381.3704
  21540345.638   -17481611.759 8 -13605487.99047  21540345.786    21540355.4274
  22124338.617   -14171890.766 8 -11019461.85047  22124341.628    22124349.6054
  20719416.034   -22174153.032 9 -17264837.27648  20719418.037    20719426.3644
  23923123.061    -2785715.729 8  -2150648.62845  23923128.719    23923143.7124
  22405486.034   -13766362.984 8 -10716581.05247  22405489.480    22405499.7024
 00  4 22  2 32 30.0000000  0  7 09 26 17 29 23 15 21
  20775285.986   -19050918.341 9 -14832365.81447  20775287.036    20775295.2354
  24028381.146    -2830805.679 8  -1905712.98845  24028382.303    24028392.9484
  21557843.719   -17389636.565 8 -13533819.08047  21557847.729    21557857.8084
  22112683.415   -14233133.362 8 -11067183.26147  22112687.975    22112695.0774
  20716339.404   -22190320.727 9 -17277435.47548  20716341.684    20716349.4624
  23903723.226    -2887709.476 8  -2230124.15545  23903721.225    23903733.8914
  22390921.729   -13842915.550 8 -10776232.32247  22390922.209    22390930.8334
 00  4 22  2 33  0.0000000  0  7 09 26 17 29 23 15 21
  20778493.321   -19034054.328 9 -14819225.00347  20778496.405    20778504.3564
  24046388.173    -2736163.308 8  -1831965.78145  24046392.031    24046403.0874
  21575420.634   -17297265.405 8 -13461841.62547  21575425.351    21575435.0494
  22101072.096   -14294153.902 8 -11114731.67447  22101075.860    22101084.4174
  20713309.867   -22206244.924 9 -17289843.93648  20713311.298    20713319.3044
  23884354.948    -2989452.873 7  -2309404.60445  23884358.992    23884373.0384
  22376365.606   -13919387.466 8 -10835820.81847  22376369.623    22376379.5534
 00  4 22  2 33 30.0000000  0  7 09 26 17 29 23 15 21
  20781819.140   -19016583.823 9 -14805611.60147  20781821.123    20781828.9734
  24064391.615    -2641540.882 8  -1758234.05945  24064398.104    24064409.2814
  21593078.984   -17204492.533 8 -13389551.14247  21593079.596    21593089.4724
  22089505.551   -14354944.535 8 -11162100.91947  22089507.568    22089516.5934
  20710325.821   -22221925.578 9 -17302062.67448  20710327.396    20710335.7414
  23865046.382    -3090943.129 8  -2388487.73145  23865047.617    23865058.2454
  22361827.584   -13995794.693 8 -10895358.82547  22361830.327    22361839.9944
 00  4 22  2 34  0.0000000  0  7 09 26 17 29 23 15 21
  20785254.433   -18998513.933 9 -14791531.15047  20785259.056    20785267.6004
  24082395.818    -2546958.163 8  -1684533.31745  24082396.715    24082407.5314
  21610812.922   -17111297.872 8 -13316932.00747  21610814.002    21610824.2034
  22077982.146   -14415497.677 8 -11209285.10147  22077984.474    22077993.0234
  20707387.219   -22237358.087 9 -17314088.02348  20707390.522    20707399.1074
  23845784.554    -3192177.358 8  -2467371.38145  23845783.605    23845792.4594
  22347300.974   -14072141.598 8 -10954849.85447  22347301.514    22347311.4424
 00  4 22  2 34 30.0000000  0  7 09 26 17 29 23 15 21
  20788807.263   -18979840.937 9 -14776980.75047  20788811.974    20788821.0784
  24100387.113    -2452413.919 8  -1610862.55845  24100387.472    24100398.8164
  21628622.368   -17017680.891 8 -13243983.77747  21628628.713    21628638.6924
  22066505.287   -14475801.668 8 -11256275.11347  22066509.325    22066516.8054
  20704501.233   -22252532.093 9 -17325911.89148  20704503.107    20704511.3964
  23826567.100    -3293152.652 8  -2546053.22045  23826569.177    23826578.2384
  22332781.155   -14148426.157 8 -11014292.34547  22332784.763    22332794.2834
 00  4 22  2 35  0.0000000  0  7 09 26 17 29 23 15 21
  20792478.707   -18960562.274 9 -14761958.40147  20792481.213    20792489.6274
  24118371.853    -2357897.667 8  -1537213.63145  24118374.801    24118385.2014
  21646520.125   -16923644.391 8 -13170708.65647  21646523.495    21646533.6154
  22055077.518   -14535858.379 8 -11303072.49947  22055080.495    22055089.0074
  20701660.352   -22267451.813 9 -17337537.59448  20701663.786    20701672.2434
  23807400.399    -3393866.160 8  -2624531.04545  23807403.485    23807415.4434
  22318281.037   -14224636.577 8 -11073676.97047  22318282.888    22318291.8084
 00  4 22  2 35 30.0000000  0  7 09 26 17 29 23 15 21
  20796265.696   -18940657.962 9 -14746448.53947  20796268.973    20796277.4864
  24136351.331    -2263410.516 8  -1463587.37745  24136354.651    24136364.3154
  21664495.436   -16829180.172 8 -13097100.25447  21664499.343    21664509.0754
  22043697.764   -14595672.126 8 -11349680.53347  22043697.683    22043706.5754
  20698871.425   -22282113.080 9 -17348961.92148  20698873.854    20698882.1074
  23788291.203    -3494314.821 8  -2702802.47345  23788288.538    23788300.0954
  22303795.370   -14300752.621 8 -11132987.96147  22303798.377    22303807.7204
 00  4 22  2 36  0.0000000  0  7 09 26 17 29 23 15 21
  20800173.437   -18920121.753 9 -14730446.29947  20800176.318    20800185.2624
  24154324.370    -2168951.387 8  -1389982.91345  24154330.288    24154340.3324
  21682557.506   -16734289.611 8 -13023159.62247  21682556.518    21682566.7304
  22032355.619   -14655252.998 8 -11396107.10247  22032359.741    22032369.0974
  20696128.280   -22296529.082 9 -17360195.17248  20696130.523    20696138.8094
  23769220.191    -3594496.209 7  -2780865.64145  23769222.045    23769234.3034
  22289333.237   -14376756.754 9 -11192211.75247  22289335.113    22289344.6214
 00  4 22  2 36 30.0000000  0  7 09 26 17 29 23 15 21
  20804203.292   -18898952.550 9 -14713950.82247  20804205.311    20804213.4104
  24172296.165    -2074512.204 8  -1316394.04845  24172300.538    24172312.5054
  21700689.133   -16638981.464 8 -12948893.63147  21700693.158    21700702.9654
  22021063.183   -14714594.930 8 -11442347.50546  22021066.335    22021075.8624
  20693430.703   -22310700.472 9 -17371237.81348  20693433.842    20693441.6834
  23750210.091    -3694407.415 8  -2858718.25245  23750210.936    23750224.0574
  22274890.892   -14452645.708 8 -11251345.80347  22274893.427    22274902.9114
 00  4 22  2 37  0.0000000  0  7 09 26 17 29 23 15 21
  20808350.607   -18877154.979 9 -14696965.68547  20808353.226    20808361.2924
  24190261.501    -1980110.563 8  -1242834.42545  24190264.274    24190276.1934
  21718910.282   -16543256.012 8 -12874302.43547  21718909.131    21718918.5564
  22009816.226   -14773697.730 8 -11488401.58747  22009820.386    22009828.1484
  20690782.137   -22324617.567 9 -17382082.28048  20690785.403    20690793.4234
  23731250.235    -3794045.180 8  -2936357.82045  23731251.832    23731263.5694
  22260469.669   -14528436.025 8 -11310403.01847  22260471.717    22260480.0954
 00  4 22  2 37 30.0000000  0  7 09 26 17 29 23 15 21
  20812617.948   -18854728.771 9 -14679490.70347  20812620.689    20812628.9234
  24208217.392    -1885754.994 7  -1169310.72845  24208219.099    24208230.7594
  21737200.185   -16447122.784 8 -12799393.50847  21737203.062    21737212.6764
  21998618.691   -14832546.887 8 -11534258.01147  21998622.019    21998630.8874
  20688185.208   -22338269.341 9 -17392720.01448  20688187.882    20688195.6244
  23712346.768    -3893406.654 8  -3013782.09745  23712342.763    23712354.4184
  22246061.486   -14604143.864 8 -11369396.02047  22246064.628    22246073.9524
 00  4 22  2 38  0.0000000  0  7 09 26 17 29 23 15 21
  20817003.268   -18831688.063 9 -14661536.89147  20817004.905    20817013.8124
  24226157.335    -1791440.791 7  -1095819.24545  24226167.041    24226178.2804
  21755570.450   -16350599.622 8 -12724180.73147  21755570.682    21755580.0964
  21987470.613   -14891129.491 8 -11579906.73147  21987474.355    21987482.8124
  20685639.970   -22351646.744 9 -17403143.94448  20685642.132    20685650.1494
  23693478.874    -3992489.021 8  -3090988.96545  23693486.658    23693497.1974
  22231666.324   -14679783.518 8 -11428335.99547  22231670.389    22231679.7524
 00  4 22  2 38 30.0000000  0  7 09 26 17 29 23 15 21
  20821503.888   -18808026.128 9 -14643098.99847  20821507.450    20821516.0994
  24244098.860    -1697163.641 8  -1022356.58545  24244107.945    24244118.8434
  21774005.352   -16253704.103 8 -12648677.80647  21774009.428    21774019.7124
  21976376.196   -14949449.857 8 -11625351.12547  21976376.716    21976384.6624
  20683149.236   -22364734.104 9 -17413341.93348  20683151.721    20683159.5154
  23674680.828    -4091289.524 8  -3167976.19245  23674686.607    23674698.3614
  22217286.021   -14755360.207 9 -11487226.83847  22217288.775    22217298.4644
 00  4 22  2 39  0.0000000  0  7 09 26 17 29 23 15 21
  20826127.739   -18783734.050 9 -14624170.10247  20826130.557    20826138.6984
  24262039.345    -1602915.917 8   -948916.85045  24262042.624    24262053.0714
  21792512.096   -16156449.834 8 -12572895.34247  21792515.889    21792526.3864
  21965323.659   -15007522.585 8 -11670602.53647  21965325.167    21965334.1644
  20680714.809   -22377527.433 9 -17423310.72448  20680717.153    20680724.8434
  23655933.712    -4189805.110 8  -3244741.35945  23655938.310    23655952.6814
  22202917.552   -14830864.812 8 -11546061.61347  22202920.601    22202930.2964
 00  4 22  2 39 30.0000000  0  7 09 26 17 29 23 15 21
  20830871.403   -18758806.791 9 -14604746.25648  20830874.142    20830882.3744
  24279972.929    -1508677.002 8   -875483.98745  24279976.328    24279986.1494
  21811091.256   -16058840.190 8 -12496835.97547  21811090.737    21811101.0884
  21954314.122   -15065363.057 8 -11715672.95947  21954318.374    21954327.0004
  20678334.214   -22390037.768 9 -17433059.01348  20678336.545    20678344.1734
  23637246.053    -4288032.913 8  -3321282.29145  23637247.163    23637259.0054
  22188569.086   -14906271.862 8 -11604820.27247  22188571.113    22188579.9774
 00  4 22  2 40  0.0000000  0  7 09 26 17 29 23 15 21
  20835735.509   -18733239.161 9 -14584823.41447  20835739.355    20835747.6054
  24297901.837    -1414448.475 8   -802059.21245  24297906.527    24297917.4744
  21829728.648   -15960878.048 8 -12420501.90847  21829732.439    21829742.9014
  21943350.738   -15122987.342 8 -11760574.92947  21943353.224    21943362.1484
  20676006.736   -22402270.497 9 -17442591.06848  20676008.792    20676016.1174
  23618606.841    -4385970.000 8  -3397596.77445  23618610.357    23618620.9244
  22174240.718   -14981563.241 8 -11663488.85347  22174243.173    22174252.9494
 00  4 22  2 40 30.0000000  0  7 09 26 17 29 23 15 21
  20840726.712   -18707021.760 9 -14564394.27548  20840728.691    20840736.8484
  24315831.356    -1320238.532 8   -728648.96145  24315834.672    24315845.8674
  21848439.788   -15862556.376 8 -12343887.71847  21848442.156    21848452.9714
  21932422.443   -15180407.299 8 -11805317.70047  21932425.922    21932434.7824
  20673729.710   -22414237.058 9 -17451915.58748  20673731.609    20673739.2414
  23600022.312    -4483613.605 7  -3473682.56045  23600027.317    23600040.0624
  22159937.357   -15056731.137 8 -11722061.20147  22159939.920    22159948.9344
 00  4 22  2 41  0.0000000  0  7 09 26 17 29 23 15 21
  20845835.190   -18680171.551 9 -14543472.03248  20845838.152    20845846.5104
  24333755.988    -1226047.259 8   -655253.22845  24333759.150    24333770.4354
  21867221.629   -15763868.224 8 -12266987.94447  21867222.588    21867232.2314
  21921536.121   -15237616.125 8 -11849895.93347  21921539.684    21921548.3414
  20671502.400   -22425944.179 9 -17461037.99048  20671503.988    20671511.6364
  23581496.120    -4580960.965 7  -3549537.46445  23581503.177    23581515.6324
  22145656.540   -15131776.795 8 -11780538.31547  22145658.178    22145668.6674
 00  4 22  2 41 30.0000000  0  7 09 26 17 29 23 15 21
  20851060.697   -18652713.804 9 -14522076.38448  20851063.280    20851071.5894
  24351670.858    -1131882.316 8   -581878.01645  24351678.351    24351688.8734
  21886071.944   -15664805.455 8 -12189796.25047  21886073.583    21886082.9944
  21910692.979   -15294601.847 8 -11894300.32847  21910695.991    21910703.6734
  20669322.150   -22437393.795 9 -17469959.78548  20669324.941    20669332.8584
  23563035.754    -4678008.755 8  -3625158.95945  23563036.359    23563048.6094
  22131397.671   -15206708.866 8 -11838926.92547  22131399.154    22131408.9784
 00  4 22  2 42  0.0000000  0  7 09 26 17 29 23 15 21
  20856398.471   -18624667.806 9 -14500222.34948  20856400.164    20856408.3204
  24369589.469    -1037754.578 8   -508531.79645  24369589.502    24369601.5174
  21904988.068   -15565368.465 8 -12112312.97147  21904995.554    21905006.4744
  21899896.848   -15351352.679 8 -11938521.68247  21899896.718    21899904.1184
  20667193.701   -22448585.058 9 -17478680.21648  20667195.491    20667203.3094
  23544624.132    -4774754.247 8  -3700544.90045  23544626.465    23544638.2084
  22117155.470   -15281541.166 8 -11897237.72747  22117158.909    22117169.3464
 00  4 22  2 42 30.0000000  0  7 09 26 17 29 23 15 21
  20861845.459   -18596035.933 9 -14477911.79648  20861848.473    20861856.3704
  24387488.109     -943660.262 8   -435211.61945  24387494.650    24387506.2334
  21923994.601   -15465544.985 8 -12034528.53447  21923991.775    21924002.1324
  21889139.933   -15407855.260 8 -11982549.59047  21889144.475    21889152.2344
  20665113.509   -22459512.775 9 -17487195.28448  20665115.767    20665123.7424
  23526275.875    -4871194.596 8  -3775693.08445  23526273.799    23526284.8374
  22102931.471   -15356286.357 8 -11955480.58647  22102935.085    22102945.2664
 00  4 22  2 43  0.0000000  0  7 09 26 17 29 23 15 21
  20867402.963   -18566830.924 9 -14455154.64648  20867406.252    20867414.4044
  24405392.269     -849596.233 8   -361915.08645  24405395.688    24405406.6414
  21943056.119   -15365324.886 8 -11956435.05446  21943062.686    21943074.0444
  21878436.518   -15464102.882 9 -12026378.84047  21878440.660    21878448.4714
  20663086.710   -22470160.135 9 -17495491.88748  20663089.342    20663097.6164
  23507970.428    -4967326.816 8  -3850601.17345  23507979.468    23507991.9374
  22088725.649   -15430946.689 8 -12013657.41247  22088727.772    22088736.9584
 00  4 22  2 43 30.0000000  0  7 09 26 17 29 23 15 21
  20873073.152   -18537040.718 9 -14431941.50348  20873075.296    20873082.5584
  24423284.334     -755581.628 7   -288657.05445  24423285.155    24423296.0554
  21962205.226   -15264709.872 8 -11878033.82647  21962209.666    21962219.9944
  21867782.565   -15520095.098 8 -12070009.10947  21867785.272    21867793.2464
  20661115.722   -22480520.181 9 -17503564.60048  20661118.132    20661126.2814
  23489748.379    -5063148.196 8  -3925266.96745  23489746.083    23489759.3884
  22074534.727   -15505517.139 8 -12071764.24247  22074536.975    22074546.8054
 00  4 22  2 44  0.0000000  0  7 09 26 17 29 23 15 21
  20878859.473   -18506637.672 9 -14408250.81348  20878860.903    20878868.4854
  24441153.287     -661621.795 7   -215441.68845  24441164.989    24441176.8014
  21981428.187   -15163700.962 8 -11799325.67047  21981430.763    21981442.1204
  21857174.381   -15575838.843 8 -12113445.73347  21857177.723    21857185.4514
  20659201.906   -22490579.628 9 -17511403.12548  20659203.669    20659211.9074
  23471568.347    -5158655.539 8  -3999688.14045  23471572.847    23471583.8964
  22060361.641   -15579998.567 8 -12129801.60247  22060363.897    22060374.0874
 00  4 22  2 44 30.0000000  0  8 09 26 17 29 23 15 05 21
  20884766.235   -18475603.625 9 -14384068.44348  20884766.187    20884774.2074
  24459036.134     -567715.441 7   -142267.98945  24459034.612    24459046.6554
  22000719.137   -15062308.241 8 -11720318.45047  22000725.511    22000736.2764
  21846613.102   -15631335.059 8 -12156689.47547  21846617.224    21846625.6714
  20657345.756   -22500330.572 9 -17519001.25748  20657348.239    20657356.3544
  23453450.474    -5253846.144 8  -4073862.47645  23453456.314    23453468.1124
  24531607.355      -50896.08317
  22046211.247   -15654380.958 8 -12187761.83547  22046210.137    22046219.3674
 00  4 22  2 45  0.0000000  0  8 09 26 17 29 23 15 05 21
  20890786.924   -18443946.519 9 -14359400.56847  20890790.025    20890798.6944
  24476887.349     -473864.993 7    -69137.92945  24476894.040    24476906.9834
  22020083.918   -14960560.468 8 -11641034.55046  22020086.925    22020098.2494
  21836097.545   -15686599.671 8 -12199752.74147  21836100.703    21836108.7434
  20655549.548   -22509772.407 9 -17526358.49848  20655551.622    20655559.6144
  23435403.160    -5348717.132 8  -4147787.74645  23435402.193    23435415.4584
  24516302.254     -131278.770 7    -92457.50454  24516315.190    24516331.2804
  22032077.077   -15728644.314 8 -12245629.33847  22032078.386    22032087.7764
 00  4 22  2 45 30.0000000  0  8 09 26 17 29 23 15 05 21
  20896930.436   -18411664.569 9 -14334245.79547  20896933.258    20896941.3154
  24494740.321     -380066.100 7      3951.95345  24494745.058    24494756.0074
  22039510.034   -14858478.575 8 -11561490.33446  22039512.281    22039523.3784
  21825624.071   -15741637.673 8 -12242639.43047  21825627.393    21825634.9124
  20653810.470   -22518914.533 9 -17533482.20848  20653812.024    20653819.6654
  23417409.922    -5443265.616 8  -4221461.70645  23417410.936    23417422.3624
  24501024.555     -211648.253 7   -155082.86145  24501023.375    24501038.1374
  22017966.122   -15802787.003 9 -12303402.82947  22017969.354    22017978.6204
 00  4 22  2 46  0.0000000  0  8 09 26 17 29 23 15 05 21
  20903191.467   -18378769.154 9 -14308613.00047  20903192.861    20903200.5154
  24512592.118     -286309.034 7     77009.26145  24512585.783    24512597.3294
  22058998.592   -14756074.226 8 -11481694.82646  22058999.679    22059010.3144
  21815195.033   -15796448.973 8 -12285349.45747  21815197.732    21815205.0154
  20652125.130   -22527769.052 9 -17540381.81348  20652126.883    20652134.5064
  23399479.325    -5537488.656 8  -4294882.13545  23399481.272    23399492.8284
  24485743.099     -292002.112 7   -217696.06145  24485732.518    24485746.9724
  22003881.300   -15876795.296 8 -12361071.54947  22003885.726    22003895.0574
 00  4 22  2 46 30.0000000  0  8 09 26 17 29 23 15 05 21
  20909563.306   -18345279.578 9 -14282517.22647  20909565.930    20909573.9664
  24530416.324     -192599.856 7    150029.25545  24530418.421    24530429.5094
  22078538.772   -14653362.697 8 -11401659.97946  22078544.895    22078556.2354
  21804806.157   -15851028.509 8 -12327878.89847  21804811.239    21804818.3694
  20650492.546   -22536348.887 9 -17547067.40548  20650494.568    20650502.1454
  23381617.384    -5631383.491 8  -4368046.75946  23381614.404    23381624.6314
  24470446.210     -372325.986 7   -280285.83044  24470444.657    24470460.4164
  21989829.811   -15950654.157 8 -12418623.93147  21989831.048    21989840.0754
 00  4 22  2 47  0.0000000  0  8 09 26 17 29 23 15 05 21
  20916044.527   -18311218.170 9 -14255975.87347  20916047.052    20916055.2724
  24548237.303      -98941.143 7    223010.01945  24548241.274    24548251.5604
  22098147.466   -14550345.911 8 -11321387.27046  22098148.313    22098159.1064
  21794467.044   -15905380.241 8 -12370230.82047  21794468.040    21794475.3874
  20648910.439   -22544654.125 9 -17553539.01048  20648913.847    20648921.8694
  23363802.475    -5724947.257 8  -4440953.40545  23363808.104    23363819.3224
  24455159.836     -452593.166 7   -342831.45345  24455170.540    24455185.6704
  21975802.288   -16024367.692 9 -12476063.04147  21975803.870    21975813.3514
 00  4 22  2 47 30.0000000  0  8 09 26 17 29 23 15 05 21
  20922637.095   -18276580.069 9 -14228985.14547  20922638.826    20922647.1604
  24566046.500       -5343.565 7    295943.09145  24566052.508    24566063.2564
  22117808.159   -14447010.194 8 -11240866.01446  22117812.869    22117823.5214
  21784166.302   -15959488.447 8 -12412393.00747  21784170.798    21784179.3924
  20647382.044   -22552692.712 9 -17559802.80448  20647383.852    20647391.8834
  23346066.847    -5818177.065 8  -4513599.83145  23346066.737    23346077.8564
  24439918.229     -532778.659 7   -405313.52645  24439912.416    24439928.9144
  21961799.751   -16097947.966 8 -12533398.28747  21961801.580    21961811.9184
 00  4 22  2 48  0.0000000  0  8 09 26 17 29 23 15 05 21
  20929338.714   -18241358.964 9 -14201540.12147  20929341.368    20929349.0904
  24583842.917       88187.860 7    368824.63945  24583851.316    24583861.6344
  22137534.153   -14343358.735 8 -11160098.75646  22137537.088    22137548.2924
  21773920.941   -16013348.147 8 -12454361.53547  21773922.262    21773930.2384
  20645902.336   -22560460.938 9 -17565855.95348  20645905.534    20645913.6674
  23328389.680    -5911069.707 8  -4585983.56045  23328391.722    23328401.7664
  24424670.728     -612860.929 7   -467715.06245  24424674.509    24424689.4004
  21947826.033   -16171385.963 8 -12590622.57347  21947827.213    21947837.0284
 00  4 22  2 48 30.0000000  0  8 09 26 17 29 23 15 05 21
  20936155.001   -18205548.765 9 -14173636.06947  20936156.096    20936163.6864
  24601639.018      181663.149 7    441662.43445  24601638.961    24601650.0764
  22157320.622   -14239386.248 8 -11079081.34046  22157322.722    22157332.7964
  21763716.078   -16066970.992 9 -12496145.50147  21763718.139    21763725.7344
  20644479.642   -22567946.030 9 -17571688.48148  20644481.501    20644489.3434
  23310778.714    -6003622.528 8  -4658102.49745  23310778.793    23310789.2544
  24409453.931     -692831.987 7   -530029.89045  24409453.810    24409469.9024
  21933871.886   -16244692.974 8 -12647744.83847  21933877.007    21933886.8314
 00  4 22  2 49  0.0000000  0  8 09 26 17 29 23 15 05 21
  20943082.339   -18169137.291 9 -14145263.49647  20943084.723    20943092.6084
  24619407.620      275093.002 7    514464.82545  24619417.570    24619429.1274
  22177163.144   -14135088.215 8 -10997810.22946  22177169.779    22177180.3624
  21753554.585   -16120370.428 8 -12537755.41647  21753556.738    21753564.4734
  20643109.677   -22575144.880 9 -17577297.99748  20643111.571    20643119.5834
  23293225.880    -6095832.706 8  -4729954.36445  23293229.540    23293242.2674
  24394245.791     -772693.458 7   -592259.43845  24394258.305    24394271.9924
  21919948.109   -16317881.154 9 -12704774.54747  21919950.059    21919959.0834
 00  4 22  2 49 30.0000000  0  8 09 26 17 29 23 15 05 21
  20950128.498   -18132107.109 9 -14116408.81447  20950131.307    20950139.3684
  24637188.097      368480.221 7    587233.97345  24637187.427    24637200.7314
  22197081.073   -14030460.453 8 -10916282.21246  22197080.658    22197090.7104
  21743436.350   -16173548.357 9 -12579192.74047  21743437.961    21743444.4134
  20641794.272   -22582056.058 9 -17582683.36148  20641796.391    20641804.5494
  23275744.965    -6187697.187 8  -4801536.90845  23275749.295    23275760.2444
  24379076.686     -852457.181 7   -654412.82545  24379079.756    24379092.7764
  21906043.791   -16390946.530 9 -12761708.61047  21906046.107    21906054.9224
 00  4 22  2 50  0.0000000  0  8 09 26 17 29 23 15 05 21
  20957289.216   -18094460.638 9 -14087073.90047  20957295.130    20957303.2914
  24654951.290      461839.531 7    659981.40045  24654953.561    24654966.1024
  22217051.335   -13925509.079 8 -10834502.03346  22217051.812    22217062.1404
  21733354.123   -16226518.928 8 -12620468.47647  21733356.891    21733364.7584
  20640536.813   -22588663.302 9 -17587831.85148  20640539.140    20640547.1414
  23258334.423    -6279213.009 8  -4872847.82045  23258335.744    23258345.4914
  24363917.745     -932126.690 7   -716492.76545  24363918.235    24363932.9314
  21892163.643   -16463885.722 9 -12818544.35547  21892166.180    21892175.0744
 00  4 22  2 50 30.0000000  0  8 09 26 17 29 23 15 05 21
  20964572.441   -18056204.039 9 -14057263.56347  20964575.148    20964583.6554
  24672720.137      555170.439 7    732706.71445  24672713.751    24672726.3794
  22237079.109   -13820228.691 8 -10752465.46846  22237085.700    22237096.0984
  21723313.356   -16279277.587 8 -12661579.06547  21723316.914    21723325.2824
  20639338.800   -22594962.327 9 -17592740.21948  20639340.269    20639348.4344
  23240977.542    -6370377.424 8  -4943884.85745  23240985.344    23240996.4544
  24348773.067    -1011706.532 7   -778502.79645  24348774.971    24348788.8784
  21878304.523   -16536709.498 8 -12875290.08847  21878307.876    21878317.1854
 00  4 22  2 51  0.0000000  0  8 09 26 17 29 23 15 05 21
  20971966.685   -18017348.079 9 -14026986.20347  20971969.089    20971976.7944
  24690467.014      648465.777 7    805404.28545  24690468.215    24690480.2564
  22257183.140   -13714616.833 8 -10670170.62546  22257183.223    22257194.0244
  21713319.063   -16331801.723 8 -12702506.85747  21713322.252    21713329.6414
  20638199.138   -22600960.452 9 -17597414.08048  20638198.951    20638207.0884
  23223702.030    -6461187.775 8  -5014646.01445  23223705.385    23223717.8304
  24333637.625    -1091198.520 7   -840444.40745  24333647.674    24333661.0804
  21864468.942   -16609419.624 8 -12931947.22147  21864472.061    21864480.7754
 00  4 22  2 51 30.0000000  0  8 09 26 17 29 23 15 05 21
  20979472.420   -17977908.735 9 -13996254.25247  20979474.399    20979482.4674
  24708204.674      741723.779 7    878072.73745  24708215.483    24708227.7964
  22277340.954   -13608671.826 8 -10587616.19246  22277344.170    22277355.3834
  21703372.625   -16384078.543 8 -12743241.92447  21703374.226    21703381.9934
  20637113.812   -22606652.845 9 -17601849.71948  20637116.097    20637123.8694
  23206495.970    -6551640.986 8  -5085128.84446  23206494.467    23206503.8994
  24318529.606    -1170610.881 7   -902323.95445  24318536.851    24318549.9814
  21850656.989   -16682003.611 8 -12988506.08047  21850659.308    21850668.2724
 00  4 22  2 52  0.0000000  0  8 09 26 17 29 23 15 05 21
  20987083.938   -17937897.253 9 -13965076.47447  20987088.498    20987096.3714
  24725958.982      834938.717 7    950707.70845  24725952.078    24725964.6464
  22297561.456   -13502403.238 8 -10504809.60446  22297566.614    22297577.1474
  21693471.639   -16436098.353 8 -12783776.83347  21693475.459    21693482.5334
  20636089.611   -22612033.237 9 -17606042.21648  20636092.039    20636099.9424
  23189341.471    -6641734.289 7  -5155331.35145  23189347.504    23189357.9074
  24303449.656    -1249943.688 7   -964141.48345  24303440.260    24303453.9974
  21836866.621   -16754461.721 9 -13044966.85647  21836871.295    21836880.0654
 00  4 22  2 52 30.0000000  0  8 09 26 17 29 23 15 05 21
  20994806.285   -17897323.144 9 -13933460.28747  20994809.080    20994817.2704
  24743684.470      928102.238 7   1023302.58745  24743681.560    24743692.4894
  22317845.795   -13395811.163 8 -10421750.97846  22317850.061    22317861.4604
  21683624.948   -16487849.763 8 -12824102.56847  21683626.997    21683634.6724
  20635121.971   -22617116.117 9 -17610002.89848  20635124.435    20635132.6004
  23172273.794    -6731464.691 8  -5225250.96446  23172273.677    23172284.7664
  24288351.838    -1329206.390 7  -1025904.36845  24288356.458    24288368.8734
  21823103.315   -16826789.583 9 -13101326.17047  21823107.546    21823116.3584
 00  4 22  2 53  0.0000000  0  8 09 26 17 29 23 15 05 21
  21002634.670   -17856190.655 9 -13901409.00847  21002636.204    21002644.8164
  24761391.384     1021205.799 7   1095850.67745  24761397.921    24761409.9124
  22338190.491   -13288895.836 8 -10338440.45046  22338195.364    22338205.9314
  21673824.090   -16539346.931 8 -12864230.17547  21673827.245    21673835.8414
  20634209.961   -22621907.412 9 -17613736.38348  20634212.872    20634220.9954
  23155261.117    -6820829.426 8  -5294885.65746  23155267.841    23155278.6164
  24273279.058    -1408389.034 7  -1087604.92445  24273286.252    24273303.2104
  21809368.622   -16898969.052 9 -13157569.72247  21809372.403    21809380.6894
 00  4 22  2 53 30.0000000  0  8 09 26 17 29 23 15 05 21
  21010567.282   -17814489.681 9 -13868914.74547  21010571.694    21010579.8094
  24779103.565     1114240.627 7   1168345.24045  24779102.185    24779113.9294
  22358597.258   -13181667.015 8 -10254885.63546  22358601.059    22358611.0694
  21664071.842   -16590608.751 8 -12904174.39947  21664072.471    21664080.8154
  20633356.602   -22626395.451 9 -17617233.55848  20633358.651    20633366.8424
  23138330.770    -6909825.705 8  -5364233.34145  23138332.060    23138341.8424
  24258225.372    -1487486.706 7  -1149239.26345  24258235.688    24258249.8814
  21795663.420   -16970992.312 9 -13213691.56147  21795666.364    21795675.2654
 00  4 22  2 54  0.0000000  0  8 09 26 17 29 23 15 05 21
  21018612.911   -17772216.550 9 -13835974.64447  21018616.357    21018624.6534
  24796792.892     1207193.705 7   1240776.10645  24796790.845    24796802.7434
  22379062.982   -13074136.972 8 -10171096.07546  22379063.486    22379073.3074
  21654359.808   -16641640.921 8 -12943939.68247  21654361.460    21654369.1224
  20632559.622   -22630584.834 9 -17620497.97348  20632561.627    20632569.4644
  23121465.496    -6998450.843 8  -5433291.77645  23121466.969    23121477.9654
  24243203.186    -1566491.250 7  -1210800.96745  24243201.630    24243215.6144
  21781986.906   -17042866.805 9 -13269697.49147  21781989.042    21781997.5884
 00  4 22  2 54 30.0000000  0  7 09 17 29 23 15 05 21
  21026768.879   -17729364.635 9 -13802583.54347  21026770.879    21026778.8194
  22399571.183   -12966296.739 8 -10087064.84946  22399584.307    22399595.5094
  21644690.196   -16692451.531 8 -12983532.32747  21644692.874    21644700.8634
  20631816.602   -22634490.410 9 -17623541.26248  20631818.311    20631826.2074
  23104671.696    -7086701.514 8  -5502058.38946  23104674.400    23104685.6184
  24228189.805    -1645393.874 7  -1272283.34045  24228187.631    24228200.5394
  21768336.837   -17114588.826 9 -13325584.75547  21768340.565    21768349.8224
 00  4 22  2 55  0.0000000  0  7 09 17 29 23 15 05 21
  21035032.729   -17685923.985 9 -13768733.68747  21035037.512    21035045.0974
  22420164.577   -12858157.741 8 -10002800.80046  22420162.318    22420173.9934
  21635058.894   -16743054.254 8 -13022962.97747  21635062.710    21635071.0554
  20631129.542   -22638100.532 9 -17626354.33848  20631131.598    20631139.4714
  23087952.764    -7174575.208 8  -5570531.23745  23087951.329    23087962.3004
  24213196.971    -1724188.981 7  -1333681.91545  24213192.847    24213205.1824
  21754719.755   -17186165.841 9 -13381359.05847  21754719.827    21754729.3674
 00  4 22  2 55 30.0000000  0  7 09 17 29 23 15 05 21
  21043411.799   -17641896.068 9 -13734426.22347  21043415.575    21043423.5404
  22440795.702   -12749742.853 8  -9918321.79346  22440794.056    22440804.2594
  21625473.279   -16793438.254 8 -13062223.18447  21625475.195    21625483.2704
  20630500.841   -22641407.634 9 -17628931.28248  20630502.196    20630510.2204
  23071302.672    -7262068.957 8  -5638708.07845  23071301.182    23071313.3864
  24198214.922    -1802886.325 8  -1395004.35345  24198217.326    24198229.2804
  21741119.760   -17257615.688 9 -13437034.31047  21741122.919    21741132.5884
 00  4 22  2 56  0.0000000  0  7 09 17 29 23 15 05 21
  21051897.040   -17597291.099 9 -13699669.10347  21051903.461    21051911.5294
  22461468.372   -12641064.433 8  -9833637.41346  22461474.349    22461485.3974
  21615927.959   -16843587.089 8 -13101300.17047  21615932.130    21615940.7624
  20629926.702   -22644420.306 9 -17631278.83648  20629928.782    20629936.5364
  23054717.737    -7349179.922 8  -5706586.65646  23054725.046    23054737.2894
  24183244.081    -1881482.481 7  -1456247.88845  24183259.466    24183275.2314
  21727545.876   -17328934.769 8 -13492607.47547  21727551.417    21727561.3644
 00  4 22  2 56 30.0000000  0  7 09 17 29 23 15 05 21
  21060499.125   -17552106.959 9 -13664460.69047  21060501.652    21060510.0664
  22482204.900   -12532126.787 8  -9748751.04846  22482204.756    22482215.7324
  21606432.095   -16893502.293 9 -13140195.10447  21606433.462    21606441.9424
  20629411.963   -22647126.821 9 -17633387.88748  20629413.984    20629421.6474
  23038216.693    -7435905.454 8  -5774164.88346  23038222.607    23038232.6394
  24168329.026    -1959963.588 7  -1517401.81045  24168325.057    24168339.2164
  21714002.439   -17400117.018 8 -13548074.13647  21714005.923    21714015.2844
 00  4 22  2 57  0.0000000  0  7 09 17 29 23 15 05 21
  21069204.946   -17506355.427 9 -13628810.14847  21069208.117    21069215.6404
  22502972.746   -12422944.184 8  -9663673.80846  22502981.890    22502992.4364
  21596976.466   -16943174.895 8 -13178900.98947  21596981.358    21596989.6014
  20628957.340   -22649508.238 9 -17635243.55348  20628960.710    20628968.5994
  23021792.523    -7522242.706 8  -5841440.56046  23021792.210    23021804.1264
  24153407.754    -2038326.950 7  -1578463.94745  24153413.399    24153427.2834
  21700484.172   -17471152.696 8 -13603426.75747  21700488.316    21700497.6044
 00  4 22  2 57 30.0000000  0  7 09 17 29 23 15 05 21
  21078018.095   -17460046.791 9 -13592725.50047  21078020.253    21078027.9024
  22523810.894   -12313502.729 8  -9578394.86146  22523807.751    22523818.9264
  21587576.071   -16992585.479 9 -13217402.71147  21587579.046    21587586.9584
  20628568.198   -22651559.609 9 -17636842.01048  20628570.167    20628578.1204
  23005435.333    -7608188.668 8  -5908411.26546  23005438.134    23005449.7614
  24138519.014    -2116564.876 7  -1639428.37145  24138525.135    24138537.6104
  21686999.361   -17542027.124 9 -13658653.64447  21687001.407    21687010.6284
 00  4 22  2 58  0.0000000  0  7 09 17 29 23 15 05 21
  21086935.576   -17413181.647 9 -13556207.21747  21086938.261    21086946.8314
  22544681.430   -12203775.920 8  -9492893.54746  22544687.860    22544699.2594
  21578221.485   -17041736.013 9 -13255701.81747  21578226.409    21578234.0114
  20628241.106   -22653270.880 9 -17638175.44548  20628244.296    20628252.4924
  22989153.456    -7693740.610 8  -5975075.02046  22989157.932    22989168.4064
  24123657.624    -2194657.624 7  -1700279.66845  24123663.232    24123675.9154
  21673543.681   -17612723.933 9 -13713741.98047  21673547.617    21673557.7334
 00  4 22  2 58 30.0000000  0  7 09 17 29 23 15 05 21
  21095961.275   -17365757.558 9 -13519253.39847  21095962.653    21095970.1594
  22565625.310   -12093735.224 8  -9407147.67246  22565628.102    22565639.4544
  21568917.765   -17090637.600 9 -13293806.91147  21568920.445    21568927.7474
  20627985.489   -22654630.181 9 -17639234.61748  20627986.015    20627993.8894
  22972950.447    -7778895.701 8  -6041429.52946  22972951.884    22972963.5784
  24108827.557    -2272599.617 7  -1761013.47745  24108832.679    24108847.6174
  21660122.859   -17683247.758 8 -13768695.64347  21660128.024    21660137.7414
 00  4 22  2 59  0.0000000  0  7 09 17 29 23 15 05 21
  21105088.770   -17317784.087 9 -13481871.48947  21105091.924    21105099.4584
  22586628.028   -11983368.834 8  -9321148.00846  22586630.745    22586641.2414
  21559661.803   -17139282.422 9 -13331711.94147  21559663.690    21559671.1534
  20627791.436   -22655641.815 9 -17640022.88448  20627793.094    20627801.5574
  22956827.597    -7863651.329 8  -6107472.68846  22956823.934    22956835.6484
  24094023.360    -2350400.919 7  -1821637.63045  24094027.386    24094042.0274
  21646738.195   -17753597.830 9 -13823513.89847  21646740.956    21646749.7994
 00  4 22  2 59 30.0000000  0  7 09 17 29 23 15 05 21
  21114323.223   -17269260.824 9 -13444061.15447  21114325.118    21114332.8644
  22607693.568   -11872679.874 8  -9234896.96846  22607694.227    22607704.9044
  21550448.136   -17187686.288 9 -13369429.21547  21550452.248    21550460.2574
  20627661.519   -22656322.563 9 -17640553.35248  20627663.675    20627671.9494
  22940764.923    -7948004.535 8  -6173202.33846  22940771.790    22940782.6984
  24079254.767    -2428048.435 7  -1882141.98845  24079249.305    24079264.4114
  21633385.075   -17823779.532 9 -13878200.92947  21633385.741    21633394.8464
 00  4 22  3  0  0.0000000  0  7 09 17 29 23 15 05 21
  21123661.702   -17220183.859 9 -13405819.37347  21123664.299    21123672.7544
  22628812.746   -11761696.273 8  -9148416.36746  22628814.130    22628825.0774
  21541278.390   -17235870.738 9 -13406975.49047  21541283.035    21541290.5524
  20627590.873   -22656689.519 9 -17640839.27748  20627594.052    20627602.0284
  22924796.971    -8031952.632 8  -6238616.30746  22924798.578    22924808.0154
  24064506.180    -2505527.683 7  -1942515.23845  24064506.164    24064519.9044
  21620058.449   -17893793.385 8 -13932757.17847  21620062.137    21620071.6224
 00  4 22  3  0 30.0000000  0  7 09 17 29 23 15 05 21
  21133102.717   -17170557.589 9 -13367149.55947  21133108.620    21133116.0274
  22649975.170   -11650452.404 8  -9061732.95346  22649982.289    22649994.0254
  21532150.247   -17283846.854 9 -13444359.38447  21532153.651    21532161.8554
  20627577.763   -22656759.234 9 -17640893.59348  20627581.093    20627588.5524
  22908891.411    -8115492.895 8  -6303712.50546  22908899.398    22908909.9934
  24049795.889    -2582845.928 8  -2002762.99645  24049792.754    24049808.0274
  21606768.326   -17963643.576 9 -13987185.87947  21606770.581    21606779.5934
 00  4 22  3  1  0.0000000  0  7 09 17 29 23 15 05 21
  21142653.784   -17120385.367 9 -13328054.34847  21142655.606    21142664.0834
  22671196.887   -11538988.102 8  -8974877.79846  22671193.788    22671204.9544
  21523058.133   -17331621.566 9 -13481586.35047  21523062.287    21523070.4834
  20627619.576   -22656544.880 9 -17640726.54348  20627622.138    20627629.5834
  22893079.355    -8198622.401 8  -6368488.61646  22893081.040    22893091.0224
  24035111.872    -2659993.393 8  -2062877.71945  24035113.019    24035125.9294
  21593507.579   -18033324.918 9 -14041482.97347  21593511.218    21593520.2614
 00  4 22  3  1 30.0000000  0  7 09 17 29 23 15 05 21
  21152303.383   -17069668.200 9 -13288534.48947  21152306.822    21152315.2584
  22692441.678   -11427323.159 8  -8887866.28146  22692442.806    22692454.1614
  21514001.885   -17379202.675 9 -13518662.47447  21514007.719    21514015.2364
  20627713.742   -22656043.677 9 -17640335.96148  20627717.420    20627724.9424
  22877339.170    -8281338.458 8  -6432942.57146  22877342.204    22877351.2874
  24020460.449    -2736960.775 7  -2122852.13045  24020465.889    24020479.4024
  21580281.618   -18102835.510 9 -14095647.03347  21580283.475    21580292.2554
 00  4 22  3  2  0.0000000  0  7 09 17 29 23 15 05 21
  21162058.384   -17018404.744 9 -13248588.94947  21162062.219    21162070.4514
  22713728.485   -11315456.391 8  -8800697.50646  22713730.752    22713742.4164
  21504989.734   -17426578.041 9 -13555578.28247  21504992.619    21504999.8764
  20627867.986   -22655236.914 9 -17639707.30148  20627870.498    20627878.1964
  22861673.766    -8363638.369 8  -6497072.22946  22861678.795    22861689.4774
  24005844.556    -2813762.742 7  -2182697.64045  24005851.972    24005864.2744
  21567087.177   -18172173.273 9 -14149676.37747  21567088.919    21567098.1104
 00  4 22  3  2 30.0000000  0  7 09 17 29 23 15 05 21
  21171915.748   -16966600.451 9 -13208221.98647  21171920.414    21171928.2744
  22735055.676   -11203363.930 8  -8713352.84846  22735061.115    22735072.1654
  21496014.648   -17473737.337 8 -13592325.75047  21496018.140    21496025.7014
  20628080.481   -22654113.212 9 -17638831.67248  20628084.035    20628091.8964
  22846093.871    -8445519.296 8  -6560875.47845  22846097.965    22846105.2934
  23991259.630    -2890418.305 8  -2242429.06545  23991264.076    23991277.4104
  21553924.085   -18241339.595 9 -14203572.13047  21553926.534    21553935.7564
 00  4 22  3  3  0.0000000  0  7 09 17 29 23 15 05 21
  21181879.276   -16914253.847 9 -13167432.43347  21181881.685    21181889.1044
  22756436.789   -11091027.724 8  -8625818.29646  22756437.784    22756449.5984
  21487086.877   -17520657.821 8 -13628887.09247  21487089.198    21487096.7284
  20628357.818   -22652668.080 9 -17637705.56748  20628359.181    20628366.9834
  22830592.298    -8526978.673 8  -6624350.22546  22830596.579    22830606.6034
  23976700.351    -2966931.899 8  -2302049.88345  23976704.595    23976717.9984
  21540795.969   -18310325.016 9 -14257326.94247  21540799.229    21540807.7794
 00  4 22  3  3 30.0000000  0  7 09 17 29 23 15 05 21
  21191940.826   -16861367.670 9 -13126222.43647  21191944.801    21191953.1494
  22777864.093   -10978434.748 8  -8538083.65846  22777863.751    22777874.1524
  21478206.153   -17567331.135 9 -13665255.85247  21478207.898    21478215.4684
  20628696.719   -22650887.739 9 -17636318.25148  20628698.020    20628705.8244
  22815172.029    -8608013.554 8  -6687494.12446  22815175.421    22815184.8734
  23962170.891    -3043317.419 8  -2361570.92145  23962169.936    23962181.5404
  21527707.118   -18379116.363 9 -14310930.63447  21527708.576    21527717.9874
 00  4 22  3  4  0.0000000  0  7 09 17 29 23 15 05 21
  21202107.898   -16807937.223 9 -13084588.34247  21202112.132    21202120.7614
  22799339.837   -10865583.966 8  -8450148.11246  22799338.709    22799350.0804
  21469369.371   -17613757.887 9 -13701432.49547  21469373.213    21469381.1174
  20629095.668   -22648780.464 9 -17634676.18348  20629098.752    20629106.6944
  22799836.622    -8688621.306 8  -6750305.24846  22799836.434    22799846.3884
  23947653.131    -3119574.990 8  -2420992.22245  23947657.372    23947670.7284
  21514651.531   -18447719.387 9 -14364387.50247  21514653.990    21514662.8784
 00  4 22  3  4 30.0000000  0  7 09 17 29 23 15 05 21
  21212379.846   -16753972.092 9 -13042537.60747  21212381.819    21212390.1534
  22820863.816   -10752480.598 8  -8362015.76246  22820861.738    22820872.2294
  21460582.863   -17659938.282 9 -13737417.21647  21460584.774    21460593.1254
  20629559.591   -22646351.815 9 -17632783.71048  20629560.817    20629569.0234
  22784577.424    -8768799.125 8  -6812781.31946  22784579.571    22784588.6984
  23933169.828    -3195689.246 8  -2480301.86345  23933172.991    23933184.8374
  21501633.806   -18516134.575 9 -14417697.95947  21501635.338    21501644.1164
 00  4 22  3  5  0.0000000  0  7 09 17 29 23 15 05 21
  21222750.332   -16699478.088 9 -13000074.76647  21222751.522    21222759.5704
  22842423.822   -10639149.914 8  -8273706.28146  22842427.652    22842438.8474
  21451842.209   -17705869.807 9 -13773207.96647  21451844.190    21451852.0044
  20630082.871   -22643592.209 9 -17630633.36848  20630085.941    20630094.3024
  22769406.278    -8848544.395 8  -6874920.40046  22769404.438    22769413.1574
  23918724.730    -3271640.308 8  -2539484.33145  23918720.834    23918732.1614
  21488651.982   -18584356.315 9 -14470857.72347  21488652.621    21488661.5754
 00  4 22  3  5 30.0000000  0  7 09 17 29 23 15 05 21
  21233218.967   -16644450.614 9 -12957196.22947  21233223.206    21233231.0504
  22864029.729   -10525609.135 8  -8185233.09846  22864034.440    22864045.8884
  21443144.023   -17751569.885 9 -13808818.31447  21443147.624    21443155.3844
  20630675.548   -22640489.921 9 -17628216.00048  20630676.729    20630684.4804
  22754305.372    -8927854.475 8  -6936720.36646  22754311.346    22754321.3674
  23904300.947    -3347404.192 8  -2598520.97845  23904302.522    23904314.8154
  21475701.901   -18652394.935 9 -14523874.80647  21475704.880    21475714.3534
 00  4 22  3  6  0.0000000  0  7 09 17 29 23 15 05 21
  21243792.759   -16588890.355 9 -12913902.53847  21243795.535    21243804.0174
  22885682.729   -10411855.089 8  -8096593.74046  22885681.134    22885692.3334
  21434489.687   -17797035.425 8 -13844245.98447  21434496.150    21434504.1934
  20631330.507   -22637046.867 9 -17625533.08448  20631332.213    20631339.9134
  22739303.544    -9006726.672 8  -6998179.06546  22739303.242    22739313.1484
  23889913.707    -3422976.739 8  -2657408.51945  23889920.762    23889934.0424
  21462787.213   -18720263.196 9 -14576759.24947  21462790.709    21462799.2274
 00  4 22  3  6 30.0000000  0  7 09 17 29 23 15 05 21
  21254460.905   -16532807.435 9 -12870201.57547  21254467.557    21254476.0964
  22907368.775   -10297881.203 8  -8007783.05046  22907370.358    22907380.8354
  21425889.216   -17842258.322 8 -13879484.57647  21425890.504    21425897.9284
  20632051.762   -22633249.171 9 -17622573.83648  20632054.797    20632062.4764
  22724377.243    -9085158.273 8  -7059294.48646  22724377.640    22724387.0174
  23875573.838    -3498357.334 8  -2716146.47345  23875576.510    23875589.5694
  21449908.022   -18787949.558 9 -14629501.77447  21449909.892    21449918.5024
 00  4 22  3  7  0.0000000  0  7 09 17 29 23 15 05 21
  21265238.976   -16476192.253 9 -12826085.85347  21265241.251    21265249.9024
  22929097.045   -10183684.262 8  -7918798.55046  22929101.040    22929112.3704
  21417325.908   -17887249.519 8 -13914542.68947  21417328.682    21417336.7564
  20632840.865   -22629099.907 9 -17619340.65248  20632844.005    20632851.9754
  22709534.447    -9163146.410 8  -7120064.36146  22709537.018    22709546.8434
  23861265.067    -3573543.595 8  -2774733.01045  23861268.842    23861280.5484
  21437064.176   -18855445.667 9 -14682096.05247  21437066.106    21437075.3294
 00  4 22  3  7 30.0000000  0  7 09 17 29 23 15 05 21
  21276110.809   -16419049.468 9 -12781559.03047  21276115.929    21276123.6994
  22950880.405   -10069239.463 8  -7829620.91846  22950879.276    22950889.6824
  21408804.865   -17932021.352 8 -13949429.80947  21408808.458    21408817.0294
  20633697.352   -22624606.611 9 -17615839.38748  20633699.079    20633707.0934
  22694774.826    -9240688.628 8  -7180486.79446  22694780.549    22694791.6174
  23846997.588    -3648552.817 8  -2833181.62345  23846994.625    23847006.8114
  21424255.847   -18922755.576 9 -14734545.21447  21424257.460    21424265.9884
 00  4 22  3  8  0.0000000  0  7 09 17 29 23 15 05 21
  21287083.101   -16361400.386 9 -12736637.68447  21287085.533    21287094.1434
  22972703.658    -9954531.187 8  -7740237.99246  22972707.027    22972718.3284
  21400330.020   -17976571.043 8 -13984143.79747  21400331.400    21400339.8804
  20634613.359   -22619783.253 9 -17612080.92448  20634616.759    20634625.0154
  22680107.915    -9317782.439 8  -7240559.74846  22680109.829    22680120.7514
  23832750.316    -3723391.359 8  -2891497.21745  23832753.385    23832765.3964
  21411480.136   -18989874.303 9 -14786845.38447  21411484.652    21411493.5714
 00  4 22  3  8 30.0000000  0  7 09 17 29 23 15 05 21
  21298149.481   -16303247.370 9 -12691323.67247  21298151.675    21298160.5804
  22994580.851    -9839569.905 8  -7650657.91446  22994583.323    22994594.9804
  21391890.492   -18020909.808 9 -14018693.45547  21391894.219    21391902.2974
  20635595.391   -22614629.295 9 -17608064.86148  20635597.526    20635605.5574
  22665527.884    -9394425.098 8  -7300281.18746  22665526.021    22665536.3024
  23818550.002    -3798032.677 8  -2949659.12046  23818549.574    23818562.5464
  21398749.189   -19056795.006 9 -14838991.20047  21398750.938    21398759.0654
 00  4 22  3  9  0.0000000  0  7 09 17 29 23 15 05 21
  21309312.829   -16244589.367 9 -12645616.15147  21309314.162    21309322.3744
  23016500.911    -9724373.534 8  -7560894.66246  23016504.387    23016515.5584
  21383492.610   -18065045.388 9 -14053084.79947  21383495.535    21383503.5754
  20636637.679   -22609147.849 9 -17603793.60648  20636640.574    20636648.6384
  22651024.040    -9470613.949 8  -7359649.01546  22651027.574    22651038.0314
  23804378.671    -3872473.851 8  -3007665.05846  23804383.294    23804396.9124
  21386052.248   -19123519.763 9 -14890984.38147  21386053.373    21386061.1334
 00  4 22  3  9 30.0000000  0  7 09 17 29 23 15 05 21
  21320568.490   -16185434.738 9 -12599521.65747  21320570.840    21320579.3984
  23038465.529    -9608956.705 8  -7470959.62646  23038468.018    23038480.0764
  21375137.615   -18108960.350 9 -14087304.22347  21375138.873    21375147.3154
  20637745.142   -22603330.076 9 -17599260.27848  20637747.707    20637755.7434
  22636616.526    -9546346.328 8  -7418661.16046  22636616.218    22636626.9364
  23790258.662    -3946723.800 8  -3065522.02246  23790254.437    23790266.1854
  21373387.092   -19190066.113 9 -14942838.61447  21373389.332    21373397.5254
 00  4 22  3 10  0.0000000  0  7 09 17 29 23 15 05 21
  21331920.994   -16125775.139 9 -12553033.67947  21331923.859    21331931.9804
  23060449.458    -9493357.149 8  -7380882.20946  23060465.572    23060478.0334
  21366822.841   -18152639.388 9 -14121339.80047  21366827.023    21366835.0664
  20638919.440   -22597168.903 9 -17594459.40848  20638920.509    20638928.1144
  22622285.403    -9621619.718 8  -7477315.63946  22622292.594    22622300.7364
  23776161.875    -4020759.172 8  -3123211.76546  23776166.206    23776178.6084
  21360757.731   -19256424.401 9 -14994546.31147  21360761.885    21360770.2304
 00  4 22  3 10 30.0000000  0  7 09 17 29 23 15 05 21
  21343372.094   -16065595.944 9 -12506140.81747  21343375.651    21343383.8144
  23082494.426    -9377594.658 8  -7290677.81946  23082494.551    23082507.2614
  21358558.101   -18196076.425 9 -14155186.86647  21358561.078    21358569.0694
  20640157.953   -22590651.932 9 -17589381.25048  20640160.712    20640168.2474
  22608054.514    -9696431.393 8  -7535610.36946  22608057.137    22608065.1454
  23762110.993    -4094583.999 8  -3180737.45446  23762116.808    23762128.6044
  21348169.460   -19322580.210 9 -15046096.21447  21348172.658    21348180.7374
 00  4 22  3 11  0.0000000  0  7 09 17 29 23 15 05 21
  21354919.986   -16004898.571 9 -12458844.18647  21354925.612    21354934.1844
  23104550.968    -9261664.011 8  -7200342.43646  23104556.358    23104568.8764
  21350340.446   -18239256.011 8 -14188833.29547  21350343.535    21350352.0584
  20641465.565   -22583788.734 9 -17584033.31048  20641466.890    20641474.8254
  22593906.025    -9770778.655 8  -7593543.22546  22593908.162    22593917.9494
  23748099.229    -4168221.547 8  -3238117.20946  23748104.137    23748116.3934
  21335615.057   -19388539.590 9 -15097493.10547  21335621.194    21335629.3854
 00  4 22  3 11 30.0000000  0  7 09 17 29 23 15 05 21
  21366572.635   -15943675.830 9 -12411138.18047  21366575.703    21366584.0514
  23126650.603    -9145562.929 8  -7109874.23746  23126649.760    23126662.2914
  21342173.968   -18282179.181 9 -14222279.89147  21342175.838    21342183.5404
  20642833.053   -22576585.185 9 -17578420.17048  20642837.131    20642845.5574
  22579846.851    -9844658.855 8  -7651112.12146  22579849.382    22579859.8684
  23734133.076    -4241649.368 8  -3295333.55846  23734130.939    23734144.0054
  21323106.354   -19454294.872 9 -15148731.04547  21323108.425    21323116.7604
 00  4 22  3 12  0.0000000  0  7 09 17 29 23 15 05 21
  21378323.579   -15881923.421 9 -12363019.42147  21378327.315    21378335.0644
  23148780.151    -9029282.409 8  -7019266.20846  23148776.719    23148789.4094
  21334051.731   -18324861.277 9 -14255538.61847  21334054.177    21334061.5384
  20644268.934   -22569053.470 9 -17572551.30548  20644270.698    20644278.7354
  22565874.585    -9918069.823 8  -7708315.39546  22565879.694    22565888.9474
  23720200.340    -4314844.123 8  -3352368.30046  23720203.035    23720216.3854
  21310638.581   -19519821.374 9 -15199790.55847  21310638.618    21310647.5524
 00  4 22  3 12 30.0000000  0  7 09 17 29 23 15 05 21
  21390176.179   -15819649.659 9 -12314494.42947  21390177.414    21390186.0204
  23170940.129    -8912801.979 8  -6928502.38346  23170942.037    23170955.2404
  21325974.371   -18367316.964 9 -14288620.93447  21325975.594    21325982.9734
  20645764.500   -22561196.595 9 -17566429.07748  20645766.065    20645773.6284
  22551999.391    -9991008.757 8  -7765150.85546  22552000.135    22552011.1234
  23706314.389    -4387816.196 8  -3409229.50946  23706316.210    23706328.4034
  21298205.972   -19585126.652 9 -15250677.68447  21298211.551    21298220.6114
 00  4 22  3 13  0.0000000  0  7 09 17 29 23 15 05 21
  21402120.073   -15756867.161 9 -12265573.01947  21402124.336    21402132.6724
  23193139.813    -8796124.025 8  -6837584.65746  23193145.730    23193157.9344
  21317937.398   -18409554.333 9 -14321533.14747  21317938.132    21317945.1724
  20647322.030   -22553010.955 9 -17560050.67348  20647323.554    20647331.2714
  22538208.233   -10063473.127 8  -7821616.49346  22538210.532    22538221.7374
  23692470.685    -4460554.538 8  -3465908.57646  23692473.620    23692487.2724
  21285820.793   -19650221.559 9 -15301400.90547  21285824.470    21285833.2324
 00  4 22  3 13 30.0000000  0  7 09 17 29 23 15 05 21
  21414162.056   -15693588.028 9 -12216264.62247  21414166.773    21414175.2204
  23215384.688    -8679264.096 8  -6746525.10846  23215384.032    23215395.1684
  21309936.523   -18451588.274 9 -14354286.84247  21309939.117    21309946.4714
  20648945.021   -22544473.523 9 -17553398.17248  20648947.938    20648955.7054
  22524509.058   -10135460.376 8  -7877710.44646  22524511.443    22524522.0284
  23678675.663    -4533041.832 8  -3522392.02946  23678679.894    23678692.2844
  21273478.082   -19715095.995 9 -15351952.32647  21273479.506    21273488.0734
 00  4 22  3 14  0.0000000  0  7 09 17 29 23 15 05 21
  21426295.778   -15629840.573 9 -12166591.29047  21426297.252    21426304.8924
  23237654.070    -8562220.790 8  -6655322.73046  23237656.806    23237667.5074
  21301975.908   -18493415.841 9 -14386879.71647  21301979.247    21301987.4234
  20650639.389   -22535570.229 9 -17546460.55448  20650641.758    20650649.8504
  22510902.701   -10206968.198 8  -7933430.73046  22510903.271    22510915.2564
  23664930.151    -4605305.267 8  -3578701.06046  23664929.996    23664942.0684
  21261174.259   -19779749.793 9 -15402331.84847  21261176.215    21261184.6084
 00  4 22  3 14 30.0000000  0  7 09 17 29 23 15 05 21
  21438508.862   -15565640.770 9 -12116565.47947  21438514.466    21438522.1294
  23259953.989    -8445012.703 8  -6563991.91345  23259960.668    23259971.7734
  21294058.800   -18535028.076 9 -14419304.82747  21294060.580    21294068.2284
  20652403.720   -22526295.556 9 -17539233.53448  20652407.019    20652414.8444
  22497386.217   -10277993.713 8  -7988775.20846  22497389.255    22497397.7714
  23651212.788    -4677357.637 8  -3634845.64446  23651217.973    23651231.5194
  21248910.769   -19844193.304 9 -15452547.51247  21248912.641    21248920.8604
 00  4 22  3 15  0.0000000  0  7 09 17 29 23 15 05 21
  21450812.866   -15500996.689 9 -12066193.48947  21450815.449    21450823.5734
  23282288.211    -8327653.347 8  -6472543.21745  23282293.133    23282304.0534
  21286182.981   -18576415.063 9 -14451554.42647  21286185.129    21286192.3324
  20654238.258   -22516656.862 9 -17531722.88048  20654241.185    20654249.3484
  22483959.413   -10348534.646 8  -8043742.13646  22483964.182    22483973.4474
  23637541.903    -4749184.346 8  -3690814.35146  23637548.934    23637562.2334
  21236689.633   -19908418.999 9 -15502593.51947  21236691.520    21236699.5264
 00  4 22  3 15 30.0000000  0  7 09 17 29 23 15 05 21
  21463200.916   -15435900.139 9 -12015468.90947  21463202.881    21463211.1464
  23304657.771    -8210137.224 8  -6380972.34945  23304656.953    23304668.0134
  21278349.058   -18617576.922 9 -14483628.54447  21278352.519    21278359.8604
  20656142.099   -22506657.359 9 -17523931.07148  20656144.482    20656152.3474
  22470632.559   -10418588.684 8  -8098329.62246  22470634.544    22470644.1424
  23623922.086    -4820791.981 8  -3746612.37146  23623923.471    23623935.2164
  21224509.976   -19972413.407 9 -15552459.26147  21224514.177    21224521.9104
 00  4 22  3 16  0.0000000  0  7 09 17 29 23 15 05 21
  21475675.638   -15370345.883 9 -11964387.68347  21475677.656    21475685.6034
  23327052.485    -8092461.175 8  -6289276.86545  23327049.414    23327060.7934
  21270562.126   -18658504.885 9 -14515520.47247  21270564.150    21270571.2834
  20658108.633   -22496323.152 9 -17515878.44648  20658110.908    20658118.9734
  22457394.492   -10488153.307 8  -8152535.75846  22457395.444    22457404.9754
  23610339.568    -4892180.478 8  -3802239.62646  23610338.831    23610349.5844
  21212377.522   -20036167.823 9 -15602137.99147  21212381.522    21212389.8944
 00  4 22  3 16 30.0000000  0  7 09 17 29 23 15 05 21
  21488238.247   -15304308.599 9 -11912930.08347  21488243.804    21488252.2204
  23349468.755    -7974625.599 8  -6197457.06745  23349472.659    23349484.2794
  21262816.873   -18699202.456 9 -14547232.79347  21262819.495    21262826.8504
  20660137.095   -22485660.129 9 -17507569.59348  20660139.956    20660147.9624
  22444250.220   -10557225.993 8  -8206358.59546  22444252.683    22444262.0544
  23596795.878    -4963326.728 8  -3857678.12946  23596800.188    23596812.4294
  21200294.531   -20099678.438 9 -15651626.72947  21200295.956    21200303.8704
 00  4 22  3 17  0.0000000  0  7 09 17 29 23 15 05 21
  21500902.183   -15237779.584 9 -11861089.29847  21500904.421    21500911.8184
  23371929.109    -7856611.041 8  -6105497.83245  23371930.531    23371942.1514
  21255113.992   -18739675.332 9 -14578770.04147  21255117.349    21255125.3254
  20662230.940   -22474657.865 9 -17498996.41348  20662233.610    20662241.5364
  22431199.293   -10625804.342 8  -8259796.19446  22431202.104    22431212.0094
  23583302.469    -5034227.950 8  -3912925.69746  23583306.924    23583319.3984
  21188257.948   -20162929.597 9 -15700913.27747  21188259.563    21188267.3524
 00  4 22  3 17 30.0000000  0  7 09 17 29 23 15 05 21
  21513656.972   -15170748.943 9 -11808857.64447  21513659.531    21513667.7364
  23394421.933    -7738407.485 8  -6013391.34045  23394424.000    23394436.4404
  21247455.464   -18779921.632 9 -14610130.76547  21247459.012    21247467.0034
  20664393.025   -22463305.401 9 -17490150.35448  20664393.707    20664401.7924
  22418244.364   -10693885.784 8  -8312846.58546  22418245.860    22418254.2404
  23569863.589    -5104881.059 8  -3967979.93046  23569863.095    23569873.7004
  21176271.621   -20225906.836 9 -15749986.46047  21176274.991    21176283.3034
 00  4 22  3 18  0.0000000  0  7 09 17 29 23 15 05 21
  21526506.850   -15103224.620 8 -11756241.30447  21526508.515    21526516.7684
  23416949.918    -7620018.607 8  -5921140.41145  23416952.829    23416964.0934
  21239843.017   -18819928.771 9 -14641305.15947  21239846.371    21239853.6764
  20666616.872   -22451608.409 9 -17481035.84548  20666619.868    20666627.8214
  22405387.233   -10761468.082 8  -8365508.12346  22405386.500    22405395.3134
  23556465.782    -5175274.833 8  -4022832.08146  23556466.659    23556478.8084
  21164337.334   -20288620.705 9 -15798854.44047  21164340.478    21164349.1184
 00  4 22  3 18 30.0000000  0  7 09 17 29 23 15 05 21
  21539448.240   -15035214.138 8 -11703246.14747  21539450.514    21539459.6454
  23439514.197    -7501446.519 8  -5828746.73445  23439516.175    23439528.4374
  21232276.880   -18859698.835 9 -14672294.85747  21232278.286    21232285.4694
  20668914.252   -22439542.115 9 -17471633.54548  20668916.047    20668923.9194
  22392617.828   -10828548.644 8  -8417778.60246  22392620.667    22392631.1134
  23543114.667    -5245417.245 8  -4077488.37646  23543118.073    23543130.3104
  21152451.688   -20351085.087 9 -15847528.00447  21152454.388    21152462.8924
 00  4 22  3 19  0.0000000  0  7 09 17 29 23 15 05 21
  21552478.873   -14966740.621 9 -11649890.18347  21552480.720    21552489.0314
  23462112.024    -7382705.216 8  -5736221.20345  23462112.151    23462125.1984
  21224753.633   -18899224.355 9 -14703094.02547  21224756.395    21224764.1434
  20671279.678   -22427099.740 9 -17461938.16748  20671283.804    20671291.7794
  22379949.533   -10895124.829 8  -8469656.13046  22379952.001    22379961.3904
  23529818.472    -5315303.176 8  -4131944.80946  23529820.010    23529832.1404
  21140610.395   -20413310.954 9 -15896015.64747  21140613.153    21140621.6184
 00  4 22  3 19 30.0000000  0  7 09 17 29 23 15 05 21
  21565595.261   -14897810.323 9 -11596178.27047  21565598.040    21565606.3314
  23484731.947    -7263824.344 8  -5643586.93945  23484735.156    23484746.4444
  21217275.275   -18938515.585 9 -14733710.59547  21217279.328    21217287.2974
  20673719.844   -22414287.911 9 -17451954.93348  20673721.697    20673729.8504
  22367371.800   -10961194.693 8  -8521139.09646  22367377.201    22367390.0444
  23516571.757    -5384926.820 8  -4186196.87446  23516570.890    23516584.0164
  21128810.302   -20475324.992 9 -15944338.27747  21128812.103    21128820.7374
 00  4 22  3 20  0.0000000  0  7 09 17 29 23 15 05 21
  21578796.445   -14828436.993 9 -11542121.14347  21578799.122    21578807.3834
  23507367.087    -7144827.890 8  -5550862.58345  23507378.813    23507391.7494
  21209841.777   -18977587.311 9 -14764156.08247  21209844.002    21209851.9224
  20676229.830   -22401101.439 9 -17441679.79348  20676230.918    20676238.7774
  22354901.827   -11026755.890 8  -8572225.69846  22354903.081    22354912.4134
  23503362.279    -5454295.730 8  -4240250.42846  23503369.970    23503381.9094
  21117044.788   -20537147.073 9 -15992511.32047  21117047.511    21117056.0234
 00  4 22  3 20 30.0000000  0  7 09 17 29 23 15 05 21
  21592082.419   -14758620.557 9 -11487718.74247  21592085.116    21592094.1244
  23530043.244    -7025725.035 8  -5458055.35145  23530043.059    23530055.4924
  21202444.325   -19016455.517 9 -14794442.90547  21202447.963    21202455.5954
  20678811.822   -22387531.626 9 -17431105.92248  20678813.330    20678820.9634
  22342518.221   -11091806.072 8  -8622914.14646  22342524.583    22342533.2224
  23490215.712    -5523407.089 8  -4294103.28646  23490219.583    23490231.5544
  21105316.963   -20598770.664 9 -16040529.60047  21105321.258    21105329.5404
 00  4 22  3 21  0.0000000  0  7 09 17 29 23 15 05 21
  21605454.664   -14688348.354 8 -11432961.21447  21605457.057    21605465.6134
  23552722.753    -6906522.667 8  -5365170.57945  23552728.219    23552740.3264
  21195085.772   -19055124.502 9 -14824574.55947  21195089.192    21195096.9884
  20681462.206   -22373598.885 9 -17420249.23748  20681464.349    20681472.2354
  22330238.537   -11156342.904 8  -8673202.53246  22330243.042    22330253.9014
  23477120.094    -5592250.196 8  -4347747.14546  23477118.841    23477129.0674
  21093633.637   -20660176.674 9 -16088378.33347  21093635.914    21093643.9864
 00  4 22  3 21 30.0000000  0  7 09 17 29 23 15 05 21
  21618912.379   -14617613.272 8 -11377842.98947  21618917.356    21618926.4784
  23575432.284    -6787214.129 8  -5272203.06245  23575431.496    23575443.7804
  21187766.961   -19093590.052 9 -14854547.73047  21187769.454    21187777.3164
  20684180.587   -22359313.393 9 -17409117.68348  20684182.608    20684190.9714
  22318059.532   -11220364.047 8  -8723089.11146  22318060.574    22318069.6524
  23464063.851    -5660830.743 8  -4401186.40145  23464067.920    23464079.4244
  21081996.089   -20721340.546 9 -16136038.45847  21081997.037    21082005.4094
 00  4 22  3 22  0.0000000  0  7 09 17 29 23 15 05 21
  21632462.376   -14546421.484 9 -11322368.88947  21632465.814    21632473.9114
  23598141.088    -6667781.602 7  -5179138.96545  23598157.022    23598170.2414
  21180489.432   -19131829.196 9 -14884344.48047  21180493.257    21180500.7924
  20686965.084   -22344676.447 9 -17397712.29748  20686967.863    20686976.1734
  22305976.101   -11283867.022 8  -8772571.91146  22305976.126    22305985.3704
  23451059.831    -5729143.055 8  -4454416.65045  23451067.493    23451080.0244
  21070407.553   -20782228.074 9 -16183483.23847  21070409.707    21070418.7504
 00  4 22  3 22 30.0000000  0  7 09 17 29 23 15 05 21
  21646093.444   -14474776.270 9 -11266541.46247  21646098.903    21646107.4794
  23620904.900    -6548209.003 7  -5085965.66045  23620912.439    23620925.2174
  21173260.127   -19169828.885 9 -14913954.60147  21173262.512    21173269.9094
  20689817.719   -22329699.545 9 -17386042.00448  20689818.434    20689826.2314
  22293988.460   -11346849.719 8  -8821649.27646  22293990.711    22293999.6884
  23438124.381    -5797176.112 8  -4507429.26646  23438121.599    23438134.3814
  21058875.604   -20842830.707 9 -16230706.04947  21058878.171    21058886.4504
 00  4 22  3 23  0.0000000  0  7 09 17 29 23 15 05 21
  21659815.446   -14402688.874 9 -11210369.50547  21659816.851    21659825.0654
  23643697.368    -6428491.759 8  -4992679.71945  23643694.856    23643707.8634
  21166076.818   -19207574.663 9 -14943366.81847  21166079.738    21166087.0134
  20692731.412   -22314379.618 9 -17374104.41148  20692733.501    20692741.3124
  22282103.168   -11409309.761 8  -8870319.34646  22282104.187    22282113.8744
  23425230.575    -5864921.156 8  -4560217.48846  23425231.855    23425241.6974
  21047398.595   -20903143.126 9 -16277702.75947  21047401.313    21047409.2244
 00  4 22  3 23 30.0000000  0  7 09 17 29 23 15 05 21
  21673614.031   -14330172.113 9 -11153862.96147  21673616.163    21673624.2234
  23666500.662    -6308629.774 8  -4899280.98145  23666503.655    23666516.0994
  21158942.202   -19245061.155 9 -14972576.96347  21158945.771    21158952.8634
  20695713.879   -22298695.898 9 -17361883.32348  20695718.004    20695725.8634
  22270310.661   -11471245.078 8  -8918580.57246  22270318.416    22270328.0324
  23412395.685    -5932372.664 8  -4612776.98146  23412396.625    23412406.7434
  21035973.077   -20963183.157 9 -16324487.22247  21035975.881    21035984.0884
 00  4 22  3 24  0.0000000  0  7 09 17 29 23 15 05 21
  21687495.652   -14257220.291 8 -11097017.40447  21687498.335    21687507.0754
  23689334.326    -6188631.673 8  -4805776.14145  23689338.298    23689351.2564
  21151855.522   -19282308.740 9 -15001601.12747  21151857.668    21151865.2314
  20698771.848   -22282637.617 9 -17349370.38948  20698774.033    20698781.5884
  22258631.459   -11532653.335 8  -8966431.09446  22258632.136    22258643.3694
  23399612.483    -5999526.995 8  -4665104.89446  23399614.807    23399627.3224
  21024596.442   -21022970.125 9 -16371074.51347  21024598.751    21024607.0754
 00  4 22  3 24 30.0000000  0  7 09 17 29 23 15 05 21
  21701463.375   -14183830.465 9 -11039830.56147  21701463.827    21701472.7474
  23712193.246    -6068502.464 8  -4712169.16845  23712197.609    23712209.9504
  21144806.695   -19319337.667 9 -15030454.93947  21144810.672    21144818.5294
  20701900.278   -22266198.652 9 -17336560.80948  20701902.397    20701909.9074
  22247047.260   -11593532.416 8  -9013869.22646  22247048.251    22247058.6994
  23386891.976    -6066378.321 8  -4717196.69846  23386893.986    23386906.8384
  21013266.188   -21082510.577 9 -16417469.71747  21013268.753    21013277.2594
 00  4 22  3 25  0.0000000  0  7 09 17 29 23 15 05 21
  21715511.106   -14109992.317 8 -10982294.36847  21715514.828    21715523.0134
  23735078.949    -5948257.355 8  -4618471.85145  23735080.204    23735092.1154
  21137803.189   -19356158.306 9 -15059146.41347  21137804.721    21137812.1904
  20705103.305   -22249364.071 9 -17323442.96148  20705105.909    20705113.8044
  22235560.572   -11653880.023 8  -9060893.25946  22235563.355    22235574.1464
  23374231.389    -6132931.147 8  -4769055.91046  23374230.117    23374240.8344
  21001983.714   -21141793.675 9 -16463664.33647  21001987.663    21001995.5114
 00  4 22  3 25 30.0000000  0  7 09 17 29 23 15 05 21
  21729650.825   -14035708.579 8 -10924410.96247  21729650.435    21729658.8704
  23757975.908    -5827912.414 8  -4524696.76045  23757980.259    23757994.1274
  21130830.661   -19392794.466 9 -15087694.12647  21130832.784    21130840.6234
  20708381.028   -22232148.165 9 -17310027.96948  20708381.743    20708389.9774
  22224178.138   -11713693.905 8  -9107501.39846  22224181.917    22224191.8004
  23361623.680    -6199189.904 8  -4820685.98246  23361621.262    23361632.6714
  20990753.190   -21200813.859 9 -16509654.00847  20990756.333    20990764.2034
 00  4 22  3 26  0.0000000  0  7 09 17 29 23 15 05 21
  21743863.355   -13961000.435 8 -10866196.85147  21743867.092    21743875.4954
  23780891.394    -5707471.174 8  -4430846.64345  23780899.817    23780914.3614
  21123893.278   -19429260.762 9 -15116109.37647  21123893.807    21123901.4864
  20711724.417   -22214563.097 9 -17296325.35448  20711727.951    20711736.1954
  22212897.680   -11772972.112 8  -9153692.12146  22212901.042    22212911.7644
  23349067.306    -6265144.406 8  -4872078.98046  23349070.380    23349081.5094
  20979576.434   -21259551.674 9 -16555423.58347  20979578.883    20979587.2024
 00  4 22  3 26 30.0000000  0  7 09 17 29 23 15 05 21
  21758154.921   -13885883.780 8 -10807664.43347  21758161.700    21758169.9864
  23803839.084    -5586935.413 8  -4336922.90246  23803837.503    23803851.7444
  21116988.398   -19465535.612 9 -15144375.46947  21116990.886    21116998.7834
  20715142.145   -22196614.466 9 -17282339.41548  20715143.755    20715151.5814
  22201725.429   -11831712.366 8  -9199463.64846  22201723.720    22201733.9454
  23336571.191    -6330788.412 8  -4923230.03146  23336578.334    23336589.3964
  20968454.553   -21317993.316 9 -16600962.59747  20968458.202    20968465.9184
 00  4 22  3 27  0.0000000  0  7 09 17 29 23 15 05 21
  21772531.661   -13810363.714 8 -10748817.65647  21772532.306    21772540.9094
  23826789.636    -5466329.108 8  -4242944.17246  23826788.591    23826802.7904
  21110124.248   -19501605.850 9 -15172482.15447  21110127.569    21110134.4814
  20718624.180   -22178309.830 9 -17268076.06848  20718626.986    20718635.1354
  22190647.817   -11889912.611 8  -9244814.40946  22190648.113    22190659.7364
  23324144.368    -6396123.648 8  -4974140.47146  23324144.893    23324156.1034
  20957388.659   -21376148.674 9 -16646278.43347  20957391.221    20957399.0034
 00  4 22  3 27 30.0000000  0  7 09 17 29 23 15 05 21
  21786976.718   -13734451.520 9 -10689665.34647  21786978.371    21786987.0844
  23849745.479    -5345645.572 8  -4148905.27446  23849753.542    23849767.5064
  21103301.677   -19537455.523 9 -15200416.90547  21103305.097    21103312.0734
  20722174.130   -22159655.240 9 -17253540.04148  20722176.516    20722184.6864
  22179675.874   -11947570.527 8  -9289742.56946  22179676.845    22179686.3524
  23311765.849    -6461147.459 8  -5024808.24646  23311771.844    23311783.4284
  20946375.249   -21434025.389 9 -16691377.18547  20946377.985    20946385.3664
 00  4 22  3 28  0.0000000  0  7 09 17 29 23 15 05 21
  21801497.146   -13658126.400 9 -10630191.28847  21801502.177    21801511.0684
  23872737.794    -5224868.408 8  -4054793.42446  23872737.260    23872751.2144
  21096528.430   -19573051.534 9 -15228154.01947  21096530.965    21096538.4014
  20725793.159   -22140631.658 9 -17238716.48648  20725796.681    20725804.8654
  22168805.381   -12004684.103 8  -9334246.57346  22168807.560    22168817.1704
  23299455.931    -6525860.292 8  -5075233.70146  23299456.465    23299468.0244
  20935411.332   -21491632.505 9 -16736265.78747  20935415.372    20935423.2524
 00  4 22  3 28 30.0000000  0  7 09 17 29 23 15 05 21
  21816107.083   -13581361.638 9 -10570374.64847  21816110.700    21816118.7904
  23895737.967    -5104004.855 8  -3960614.24346  23895737.485    23895751.4074
  21089804.250   -19608377.987 9 -15255681.10147  21089808.553    21089816.1474
  20729487.210   -22121228.893 9 -17223597.48048  20729489.148    20729496.9744
  22158041.930   -12061251.116 8  -9378324.65546  22158042.855    22158053.8634
  23287197.590    -6590283.960 8  -5125433.84546  23287197.906    23287208.2274
  20924498.522   -21548983.402 9 -16780954.74747  20924501.519    20924509.4714
 00  4 22  3 29  0.0000000  0  7 09 17 29 23 15 05 21
  21830799.821   -13504163.397 8 -10510220.20547  21830800.143    21830809.6084
  23918751.575    -4983050.737 8  -3866364.49845  23918753.637    23918767.0204
  21083131.917   -19643451.052 9 -15283010.69047  21083134.761    21083142.5054
  20733255.310   -22101435.352 9 -17208173.95148  20733255.800    20733263.6534
  22147380.827   -12117269.781 8  -9421975.48546  22147384.262    22147392.4594
  23274991.511    -6654424.639 8  -5175413.48746  23274992.627    23275003.8744
  20913633.906   -21606086.832 9 -16825450.82347  20913635.556    20913643.2284
 00  4 22  3 29 30.0000000  0  7 09 17 29 23 15 05 21
  21845566.167   -13426537.535 8 -10449732.55047  21845572.429    21845580.1524
  23941790.557    -4861979.605 8  -3772023.57545  23941794.034    23941806.8574
  21076503.270   -19678281.290 9 -15310151.26047  21076506.806    21076514.5934
  20737095.349   -22081238.913 9 -17192436.46648  20737098.869    20737106.8204
  22136828.574   -12172738.096 8  -9465197.48446  22136828.791    22136838.4844
  23262834.495    -6718276.532 8  -5225168.09546  23262840.420    23262853.5504
  20902816.964   -21662927.048 9 -16869741.87847  20902819.094    20902827.2684
 00  4 22  3 30  0.0000000  0  7 09 17 29 23 15 05 21
  21860421.707   -13348496.671 8 -10388921.53247  21860423.987    21860431.6714
  23964846.373    -4740804.573 8  -3677601.66145  23964852.170    23964865.2054
  21069916.949   -19712895.176 9 -15337123.14747  21069920.744    21069927.7934
  20741015.801   -22060637.753 9 -17176383.63248  20741018.970    20741027.1614
  22126373.830   -12227653.905 8  -9507988.93046  22126378.313    22126387.8504
  23250743.536    -6781833.438 8  -5274692.82746  23250746.680    23250758.6984
  20892051.571   -21719494.641 9 -16913820.53247  20892054.617    20892062.4134
 00  4 22  3 30 30.0000000  0  7 09 17 29 23 15 05 21
  21875344.307   -13270080.093 9 -10327817.74547  21875345.970    21875353.9014
  23987931.081    -4619535.962 8  -3583106.84545  23987929.906    23987943.3284
  21063365.443   -19747325.544 9 -15363952.05747  21063368.445    21063375.9364
  20745012.731   -22039643.633 9 -17160024.58048  20745014.023    20745022.2634
  22116030.609   -12282015.302 8  -9550348.39346  22116033.103    22116042.9014
  23238704.163    -6845091.936 8  -5323985.04846  23238708.000    23238719.6094
  20881340.365   -21775778.396 9 -16957677.89147  20881343.749    20881351.9024
 00  4 22  3 31  0.0000000  0  7 09 17 29 23 15 05 21
  21890334.900   -13191306.277 8 -10266435.57847  21890335.788    21890343.9564
  24011025.563    -4498170.997 8  -3488536.95845  24011024.003    24011037.9934
  21056848.484   -19781577.794 9 -15390642.17547  21056850.086    21056857.8014
  20749078.466   -22018269.159 9 -17143369.16648  20749081.384    20749089.6424
  22105792.328   -12335820.274 8  -9592274.28846  22105794.087    22105804.5014
  23226728.797    -6908029.764 8  -5373027.40246  23226731.905    23226743.0374
  20870689.642   -21831761.624 9 -17001301.07347  20870690.337    20870699.1784
 00  4 22  3 31 30.0000000  0  7 09 17 29 23 15 05 21
  21905390.095   -13112167.350 8 -10204768.90047  21905395.992    21905403.8104
  24034130.075    -4376722.132 8  -3393901.70645  24034135.111    24034149.6264
  21050365.039   -19815641.351 9 -15417185.18947  21050368.491    21050375.7964
  20753218.022   -21996528.391 9 -17126428.33348  20753218.743    20753227.0994
  22095659.154   -12389067.025 8  -9633765.21346  22095662.628    22095671.3784
  23214818.451    -6970640.696 8  -5421815.01046  23214818.168    23214828.2014
  20860093.799   -21887432.748 9 -17044681.11747  20860096.302    20860104.7884
 00  4 22  3 32  0.0000000  0  7 09 17 29 23 15 05 21
  21920523.012   -13032663.654 8 -10142818.00147  21920524.166    21920532.7314
  24057255.825    -4255210.709 8  -3299217.66345  24057259.041    24057270.7944
  21043922.275   -19849502.964 9 -15443570.85747  21043924.360    21043931.9024
  20757420.552   -21974432.875 9 -17109211.05048  20757423.401    20757431.3884
  22085633.355   -12441753.335 8  -9674819.44246  22085636.285    22085646.5644
  23202968.297    -7032925.740 8  -5470348.72646  23202965.091    23202976.5604
  20849557.778   -21942799.558 9 -17087824.04947  20849560.139    20849568.9624
 00  4 22  3 32 30.0000000  0  7 09 17 29 23 15 05 21
  21935726.866   -12952777.365 8 -10080568.98847  21935726.110    21935735.2484
  24080384.666    -4133638.395 8  -3204486.18645  24080392.248    24080406.7694
  21037520.648   -19883137.187 9 -15469779.31347  21037523.613    21037531.2954
  20761693.974   -21951983.422 9 -17091718.00248  20761695.780    20761703.4894
  22075713.554   -12493877.357 8  -9715435.52246  22075717.451    22075726.3004
  23191172.705    -7094868.996 8  -5518616.07946  23191178.298    23191188.7384
  20839079.092   -21997857.525 9 -17130726.29947  20839083.021    20839091.7364
 00  4 22  3 33  0.0000000  0  7 09 17 29 23 15 05 21
  21951000.639   -12872483.394 8 -10018002.28447  21951005.212    21951013.8264
  24103529.708    -4012020.422 7  -3109719.13045  24103535.640    24103548.6824
  21031167.498   -19916525.922 9 -15495796.38247  21031170.389    21031177.6404
  20766033.616   -21929176.521 9 -17073946.39548  20766035.466    20766043.6584
  22065904.455   -12545437.190 8  -9755611.97446  22065906.131    22065914.6374
  23179458.321    -7156456.919 8  -5566606.55446  23179457.269    23179468.7624
  20828662.343   -22052606.613 9 -17173387.87347  20828664.925    20828672.9104
 00  4 22  3 33 30.0000000  0  7 09 17 29 23 15 05 21
  21966360.047   -12791774.698 8  -9955112.42047  21966363.952    21966371.4014
  24126684.556    -3890355.303 7  -3014915.32845  24126688.660    24126701.2034
  21024859.221   -19949673.407 9 -15521625.51847  21024862.763    21024869.8804
  20770444.317   -21906002.658 9 -17055888.85048  20770445.029    20770453.3184
  22056202.696   -12596431.075 8  -9795347.43146  22056202.615    22056211.2424
  23167802.940    -7217681.842 8  -5614314.17246  23167806.686    23167818.1614
  20818300.896   -22107048.490 9 -17215810.07147  20818304.505    20818313.0414
 00  4 22  3 34  0.0000000  0  7 09 17 29 23 15 05 21
  21981803.742   -12710653.462 8  -9891901.10947  21981801.013    21981809.3364
  24149844.205    -3768640.016 7  -2920072.43045  24149849.204    24149865.0454
  21018594.662   -19982594.799 9 -15547278.59147  21018597.967    21018605.2744
  20774922.492   -21882450.651 9 -17037536.66847  20774926.786    20774935.2174
  22046601.448   -12646857.150 8  -9834640.46546  22046606.381    22046615.7144
  23156226.041    -7278532.057 8  -5661729.81446  23156228.048    23156238.4494
  20808001.847   -22161175.181 9 -17257986.75147  20808004.916    20808013.1434
 00  4 22  3 34 30.0000000  0  7 09 17 29 23 15 05 21
  21997309.926   -12629117.000 8  -9828366.24447  21997316.344    21997325.1184
  24173011.522    -3646871.515 7  -2825188.10445  24173021.526    24173035.9534
  21012370.783   -20015296.060 9 -15572759.97747  21012374.801    21012382.2504
  20779481.532   -21858506.503 9 -17018878.94847  20779483.597    20779491.6294
  22037118.158   -12696713.565 8  -9873489.61246  22037119.228    22037128.6934
  23144718.739    -7339001.212 8  -5708848.53146  23144720.391    23144732.0164
  20797761.721   -22214986.302 9 -17299917.47248  20797765.144    20797773.1214
 00  4 22  3 35  0.0000000  0  7 09 17 29 23 15 05 21
  22012906.572   -12547175.257 8  -9764515.54647  22012909.705    22012918.1944
  24196202.234    -3525044.387 7  -2730258.05244  24196201.676    24196219.4084
  21006190.182   -20047778.967 9 -15598071.30147  21006193.713    21006201.2354
  20784113.169   -21834166.210 9 -16999912.47548  20784115.495    20784123.3704
  22027737.872   -12745998.292 8  -9911893.29246  22027740.884    22027749.4484
  23133280.815    -7399108.753 8  -5755685.44846  23133281.746    23133293.6104
  20787580.996   -22268487.946 9 -17341606.98148  20787583.666    20787592.3044
 00  4 22  3 35 30.0000000  0  8 30 09 17 29 23 15 05 21
  24342246.924      -94660.83417
  22028575.640   -12464843.554 8  -9700361.01747  22028576.503    22028585.2304
  24219410.075    -3403154.325 7  -2635279.01245  24219402.316    24219413.5824
  21000050.740   -20080041.001 9 -15623210.46847  21000054.218    21000061.7354
  20788821.796   -21809421.629 9 -16980630.98848  20788824.265    20788832.2844
  22018465.555   -12794709.630 8  -9949850.17646  22018470.336    22018480.6494
  23121906.949    -7458867.164 8  -5802250.34946  23121909.535    23121921.8004
  20777460.075   -22321675.052 9 -17383051.59148  20777462.743    20777471.1554
 00  4 22  3 36  0.0000000  0  8 30 09 17 29 23 15 05 21
  24324253.097     -189124.487 7   -138046.03855  24324271.117    24324283.2964
  22044316.511   -12382127.073 8  -9635906.61447  22044317.306    22044326.0074
  24242605.942    -3281218.931 7  -2540264.63144  24242602.475    24242617.9984
  20993957.246   -20112071.378 9 -15648169.08147  20993959.282    20993966.6124
  20793608.007   -21784269.986 9 -16961032.30248  20793609.990    20793618.3274
  22009309.542   -12842845.942 8  -9987358.97746  22009310.554    22009320.2424
  23110597.683    -7518280.226 8  -5848546.11246  23110603.974    23110615.2714
  20767398.796   -22374552.989 9 -17424255.10748  20767400.350    20767408.4544
 00  4 22  3 36 30.0000000  0  8 30 09 17 29 23 15 05 21
  24306303.289     -283565.604 7   -211636.31645  24306300.953    24306312.6894
  22060124.175   -12299035.072 8  -9571159.60447  22060129.326    22060138.2714
  24265813.668    -3159251.606 7  -2445225.35044  24265813.569    24265829.5964
  20987907.707   -20143858.064 9 -15672937.78547  20987910.069    20987917.5124
  20798471.089   -21758713.780 9 -16941118.40747  20798473.406    20798481.7814
  22000260.806   -12890405.463 8 -10024418.34046  22000260.537    22000270.6864
  23099358.338    -7577355.139 8  -5894578.43146  23099363.010    23099373.6674
  20757391.164   -22427134.150 9 -17465227.35847  20757394.453    20757402.7314
 00  4 22  3 37  0.0000000  0  8 30 09 17 29 23 15 05 21
  24288328.148     -377981.806 7   -285207.19545  24288331.984    24288345.9824
  22076009.231   -12215577.083 8  -9506127.42447  22076010.183    22076019.3164
  24289023.150    -3037261.774 7  -2350168.48144  24289027.250    24289043.0484
  20981901.908   -20175410.264 9 -15697523.81547  20981905.371    20981913.2054
  20803407.963   -21732761.764 9 -16920896.08447  20803411.664    20803420.0554
  21991315.465   -12937386.252 8 -10061026.73846  21991320.605    21991329.9654
  23088185.751    -7636097.328 8  -5940351.46746  23088185.294    23088194.6204
  20747446.362   -22479406.933 9 -17505959.29548  20747447.293    20747455.1364
 00  4 22  3 37 30.0000000  0  8 30 09 17 29 23 15 05 21
  24270372.409     -472363.947 7   -358751.55945  24270372.495    24270384.9124
  22091960.747   -12131757.396 8  -9440813.49747  22091961.657    22091969.8394
  24312249.993    -2915260.882 7  -2255103.05944  24312243.769    24312259.3104
  20975938.813   -20206752.689 9 -15721946.60747  20975941.560    20975949.4174
  20808424.777   -21706413.356 9 -16900364.85947  20808425.765    20808434.1334
  21982491.491   -12983786.675 8 -10097182.89147  21982491.648    21982500.0564
  23077070.208    -7694485.482 8  -5985848.63346  23077073.339    23077084.1544
  20737557.609   -22531368.363 9 -17546448.70947  20737559.260    20737566.5124
 00  4 22  3 38  0.0000000  0  9 30 09 17 29 23 15 05 21 25
  24252415.669     -566709.463 7   -432267.29445  24252418.598    24252431.0774
  22107975.498   -12047574.401 8  -9375216.42947  22107980.720    22107989.6414
  24335475.382    -2793248.825 7  -2160028.91944  24335461.259    24335475.9414
  20970011.524   -20237901.754 9 -15746218.62647  20970014.136    20970021.7134
  20813513.590   -21679675.174 9 -16879529.96547  20813513.849    20813521.9224
  21973768.885   -13029605.099 8 -10132885.53546  21973772.089    21973780.8134
  23066029.747    -7752507.365 8  -6031060.40846  23066032.045    23066042.9114
  20727729.446   -22583017.111 9 -17586694.38547  20727730.903    20727738.3284
  24717639.609    -1562557.13318  -1198559.74255  24717645.322    24717656.0964
 00  4 22  3 38 30.0000000  0  9 30 09 17 29 23 15 05 21 25
  24234480.235     -661026.046 7   -505760.56845  24234469.627    24234483.8194
  22124068.082   -11963036.027 8  -9309342.38447  22124068.353    22124076.2774
  24358685.833    -2671208.185 7  -2064932.52144  24358686.791    24358698.7154
  20964121.022   -20268865.649 9 -15770346.37547  20964122.388    20964129.4624
  20818671.063   -21652555.681 9 -16858397.92647  20818674.441    20818682.9554
  21965159.592   -13074839.768 8 -10168133.32246  21965163.699    21965172.4824
  23055054.477    -7810173.803 8  -6075995.17546  23055058.693    23055069.5004
  20717959.257   -22634346.589 9 -17626691.27747  20717963.296    20717970.6154
  24697828.067    -1666668.123 7  -1279685.10745  24697833.587    24697843.7864
 00  4 22  3 39  0.0000000  0  9 30 09 17 29 23 15 05 21 25
  24216536.636     -755301.303 8   -579221.61045  24216531.204    24216543.1844
  22140222.252   -11878142.550 8  -9243191.66847  22140222.709    22140231.3134
  24381912.397    -2549130.785 7  -1969807.46444  24381918.080    24381932.8994
  20958260.925   -20299648.495 9 -15794332.96947  20958264.467    20958271.7914
  20823902.939   -21625065.108 9 -16836976.74747  20823906.203    20823914.3774
  21956665.554   -13119489.390 8 -10202925.21547  21956667.383    21956676.1654
  23044153.530    -7867474.112 8  -6120644.67246  23044154.557    23044166.1934
  20708256.422   -22685348.345 9 -17666432.89648  20708258.224    20708265.5094
  24678043.137    -1770694.508 7  -1360744.51345  24678035.810    24678049.2224
 00  4 22  3 39 30.0000000  0  9 30 09 17 29 23 15 05 21 25
  24198596.734     -849532.504 8   -652648.38245  24198599.401    24198610.6914
  22156441.371   -11792902.992 8  -9176771.31747  22156443.402    22156452.5244
  24405163.727    -2427005.820 7  -1874645.37844  24405155.127    24405170.4694
  20952439.582   -20330239.628 9 -15818170.11547  20952442.994    20952450.3414
  20829207.151   -21597200.916 9 -16815264.41547  20829208.510    20829216.6394
  21948278.001   -13163552.095 8 -10237259.76546  21948282.041    21948291.3464
  23033322.128    -7924389.559 8  -6164994.25846  23033324.066    23033334.3754
  20698612.667   -22736026.674 9 -17705922.50648  20698614.086    20698621.5734
  24658251.468    -1874651.465 7  -1441749.79645  24658253.050    24658265.4584
 00  4 22  3 40  0.0000000  0  8 30 09 29 23 15 05 21 25
  24180683.720     -943724.552 8   -726044.67045  24180675.404    24180686.7614
  22172728.189   -11707324.034 8  -9110086.45447  22172729.164    22172737.1394
  20946660.139   -20360616.087 9 -15841840.00747  20946662.432    20946669.6754
  20834577.548   -21568968.103 9 -16793264.82147  20834581.041    20834588.9844
  21940008.355   -13207026.266 8 -10271135.72047  21940010.415    21940017.9434
  23022562.202    -7980930.098 8  -6209051.73446  23022564.332    23022575.2434
  20689029.559   -22786386.446 9 -17745163.89548  20689031.000    20689038.8094
  24638462.313    -1978535.948 7  -1522698.63745  24638482.027    24638497.3224
 00  4 22  3 40 30.0000000  0  8 30 09 29 23 15 05 21 25
  24162756.320    -1037867.262 8   -799402.43645  24162760.136    24162772.7504
  22189071.738   -11621414.366 8  -9043143.87647  22189076.587    22189084.7024
  20940920.990   -20390774.869 9 -15865340.28147  20940923.491    20940930.1174
  20840022.729   -21540364.698 9 -16770976.45747  20840024.429    20840032.1884
  21931847.058   -13249910.225 8 -10304551.75047  21931849.464    21931857.8644
  23011877.835    -8037091.077 8  -6252813.45546  23011877.216    23011887.2464
  20679501.959   -22836437.087 9 -17784164.46248  20679506.317    20679514.5934
  24618728.727    -2082333.450 7  -1603579.69445  24618729.998    24618742.9954
 00  4 22  3 41  0.0000000  0  8 30 09 29 23 15 05 21 25
  24144849.021    -1131962.453 8   -872723.19745  24144853.716    24144865.5884
  22205486.020   -11535179.222 8  -8975947.69146  22205486.549    22205495.3954
  20935222.033   -20420725.907 9 -15888678.71247  20935223.972    20935230.6844
  20845538.485   -21511376.775 9 -16748388.49147  20845540.690    20845548.6534
  21923796.441   -13292202.365 8 -10337506.62547  21923801.210    21923810.5564
  23001262.896    -8092853.418 8  -6296264.54646  23001265.849    23001276.2124
  20670040.976   -22886171.140 9 -17822918.31548  20670042.477    20670050.3024
  24598996.453    -2186028.217 7  -1684380.69345  24598998.379    24599013.5784
 00  4 22  3 41 30.0000000  0  8 30 09 29 23 15 05 21 25
  24126951.514    -1226021.325 8   -946015.64045  24126954.413    24126966.7814
  22221953.330   -11448618.702 8  -8908497.97946  22221958.291    22221967.3094
  20929563.869   -20450463.484 9 -15911850.80747  20929565.067    20929571.7574
  20851130.854   -21481985.149 9 -16725485.93647  20851133.198    20851141.5004
  21915863.553   -13333901.305 8 -10369999.23447  21915866.114    21915875.9664
  22990722.490    -8148225.518 8  -6339411.53246  22990728.605    22990740.0614
  20660637.896   -22935584.546 9 -17861422.39248  20660639.664    20660647.7004
  24579277.884    -2289605.313 7  -1765089.96745  24579290.472    24579303.1104
 00  4 22  3 42  0.0000000  0  8 30 09 29 23 15 05 21 25
  24109068.531    -1320039.839 8  -1019276.64045  24109063.574    24109075.8084
  22238494.272   -11361724.842 8  -8840788.52646  22238494.050    22238501.8494
  20923942.383   -20479994.633 9 -15934862.09647  20923944.985    20923952.5844
  20856803.883   -21452182.990 9 -16702263.49147  20856804.814    20856812.8624
  21908043.383   -13375005.427 8 -10402028.33547  21908044.337    21908053.9264
  22980264.184    -8203212.946 8  -6382258.80646  22980265.226    22980276.1954
  20651299.720   -22984660.907 9 -17899663.77048  20651300.900    20651308.7514
  24559609.139    -2393053.530 7  -1845698.82245  24559604.295    24559617.3374
 00  4 22  3 42 30.0000000  0  8 30 09 29 23 15 05 21 25
  24091177.741    -1414020.413 8  -1092508.06445  24091179.492    24091192.2924
  22255087.608   -11274502.544 8  -8772823.16146  22255091.685    22255100.3164
  20918363.433   -20509311.126 9 -15957706.07447  20918366.298    20918373.2854
  20862552.753   -21421962.413 9 -16678714.98047  20862555.408    20862563.9344
  21900333.945   -13415513.325 8 -10433592.86047  21900335.787    21900345.0834
  22969870.813    -8257803.689 8  -6424796.96046  22969876.205    22969888.5704
  20642027.342   -23033380.104 9 -17937626.72548  20642029.695    20642037.6444
  24539947.219    -2496371.939 8  -1926206.53145  24539944.917    24539956.4684
 00  4 22  3 43  0.0000000  0  8 30 09 29 23 15 05 21 25
  24073300.091    -1507966.025 8  -1165712.22945  24073302.637    24073313.8414
  22271750.230   -11186949.642 8  -8704600.22546  22271752.193    22271761.4054
  20912831.038   -20538388.418 9 -15980363.61947  20912832.947    20912840.3344
  20868383.247   -21391324.192 9 -16654841.06047  20868385.552    20868393.8734
  21892737.984   -13455423.948 8 -10464692.00847  21892740.841    21892749.8184
  22959564.226    -8311993.328 8  -6467022.52446  22959565.238    22959575.9764
  20632831.218   -23081713.847 9 -17975289.26048  20632831.857    20632839.9134
  24520303.524    -2599569.874 8  -2006620.36945  24520306.297    24520318.3744
 00  4 22  3 43 30.0000000  0  8 30 09 29 23 15 05 21 25
  24055432.963    -1601868.481 8  -1238882.75445  24055432.580    24055445.2654
  22288471.857   -11099064.674 8  -8636118.51046  22288476.491    22288484.6374
  20907347.261   -20567214.313 9 -16002825.29747  20907347.764    20907354.9684
  20874291.840   -21360277.334 9 -16630648.73547  20874293.634    20874301.7124
  21885254.596   -13494735.322 8 -10495324.20146  21885259.623    21885269.2674
  22949323.414    -8365785.378 8  -6508938.34446  22949328.863    22949338.8834
  20623706.312   -23129659.069 9 -18012649.07648  20623708.370    20623716.2264
  24500686.756    -2702655.217 8  -2086946.46545  24500688.808    24500701.5494
 00  4 22  3 44  0.0000000  0  8 30 09 29 23 15 05 21 25
  24037565.154    -1695720.478 8  -1312014.01345  24037572.691    24037585.4544
  22305259.975   -11010851.370 8  -8567380.95046  22305262.272    22305272.0704
  20901905.916   -20595795.521 9 -16025096.43147  20901909.080    20901916.5434
  20880272.918   -21328827.676 9 -16606142.54847  20880278.078    20880286.4034
  21877891.601   -13533445.945 8 -10525488.28447  21877892.952    21877902.4324
  22939169.400    -8419165.286 8  -6550533.02446  22939170.635    22939180.3314
  20614655.138   -23177218.060 9 -18049707.97048  20614658.062    20614666.2894
  24481093.278    -2805635.650 8  -2167190.80845  24481093.140    24481105.2664
 00  4 22  3 44 30.0000000  0  8 30 09 29 23 15 05 21 25
  24019721.182    -1789518.195 8  -1385102.95845  24019724.673    24019735.9574
  22322111.753   -10922307.549 8  -8498385.84046  22322112.146    22322120.7584
  20896515.584   -20624131.525 9 -16047176.56747  20896516.753    20896524.3384
  20886335.169   -21296985.155 9 -16581330.23047  20886337.947    20886346.0694
  21870638.465   -13571554.948 8 -10555183.57646  21870642.072    21870649.7424
  22929089.776    -8472135.214 8  -6591808.21446  22929090.379    22929100.4584
  20605675.631   -23224400.962 9 -18086473.82548  20605679.282    20605687.2154
  24461514.794    -2908514.028 7  -2247355.58145  24461515.937    24461527.1684
 00  4 22  3 45  0.0000000  0  8 30 09 29 23 15 05 21 25
  24001888.236    -1883255.249 8  -1458144.62745  24001886.982    24001898.3254
  22339021.905   -10833421.425 8  -8429123.97346  22339026.830    22339036.0684
  20891162.315   -20652254.578 9 -16069090.64947  20891164.760    20891172.7414
  20892469.071   -21264755.335 9 -16556216.11447  20892471.121    20892479.3464
  21863503.272   -13609060.748 8 -10584408.81847  21863504.600    21863514.0834
  22919083.962    -8524703.309 8  -6632770.27646  22919086.842    22919097.3424
  20596768.487   -23271220.768 9 -18122956.70548  20596770.221    20596777.9954
  24441951.034    -3011286.951 7  -2327438.17345  24441956.776    24441969.6704
 00  4 22  3 45 30.0000000  0  8 30 09 29 23 15 05 21 25
  23984057.801    -1976921.327 8  -1531131.00445  23984061.449    23984074.6544
  22356004.458   -10744189.323 8  -8359592.52646  22356007.130    22356016.7374
  20885847.469   -20680182.670 9 -16090852.82347  20885850.842    20885858.5034
  20898675.948   -21232130.415 9 -16530794.13747  20898679.697    20898687.4934
  21856480.740   -13645961.925 8 -10613162.93947  21856481.965    21856492.0144
  22909158.198    -8576875.640 8  -6673423.94246  22909158.792    22909169.5154
  20587922.234   -23317708.029 9 -18159180.53648  20587923.882    20587931.7544
  24422419.036    -3113949.646 8  -2407434.89445  24422421.571    24422434.6094
 00  4 22  3 46  0.0000000  0  8 30 09 29 23 15 05 21 25
  23966254.829    -2070510.099 8  -1604057.16145  23966252.040    23966264.4684
  22373052.721   -10654603.505 8  -8289785.43946  22373055.261    22373062.8084
  20880569.735   -20707917.082 9 -16112463.90047  20880573.476    20880579.7364
  20904956.310   -21199119.448 9 -16505071.33847  20904961.088    20904969.4984
  21849571.313   -13682256.882 8 -10641444.68147  21849575.609    21849585.7054
  22899302.011    -8628651.884 8  -6713768.95146  22899306.313    22899317.5214
  20579135.934   -23363872.228 9 -18195152.59148  20579138.841    20579146.9114
  24402909.414    -3216493.929 8  -2487339.32745  24402908.019    24402920.2114
 00  4 22  3 46 30.0000000  0  8 30 09 29 23 15 05 21 25
  23948449.815    -2164018.002 8  -1676920.28246  23948458.414    23948470.1304
  22390168.590   -10564674.146 8  -8219710.66646  22390168.031    22390176.6744
  20875329.809   -20735455.729 9 -16133922.43947  20875332.600    20875339.3524
  20911311.867   -21165733.681 9 -16479056.48947  20911314.161    20911322.6534
  21842780.333   -13717944.664 8 -10669253.33247  21842783.560    21842793.7014
  22889527.748    -8680040.822 8  -6753812.19146  22889527.861    22889538.2774
  20570412.956   -23409709.055 9 -18230869.57148  20570416.189    20570424.2124
  24383417.590    -3318905.530 8  -2567140.35145  24383420.153    24383431.2344
 00  4 22  3 47  0.0000000  0  8 30 09 29 23 15 05 21 25
  23930682.203    -2257440.082 8  -1749716.51246  23930681.160    23930691.8694
  22407338.102   -10474410.237 8  -8149375.21446  22407344.462    22407353.4004
  20870130.047   -20762792.344 9 -16155223.59047  20870130.351    20870137.3024
  20917739.558   -21131964.356 9 -16452742.74747  20917740.081    20917748.4854
  21836107.626   -13753023.897 8 -10696587.75046  21836108.522    21836117.3714
  22879821.702    -8731042.413 8  -6793553.59446  22879822.354    22879832.4654
  20561755.343   -23455215.400 9 -18266329.05448  20561756.900    20561764.7364
  24363955.364    -3421180.695 8  -2646835.08145  24363957.424    24363969.8984
 00  4 22  3 47 30.0000000  0  8 30 09 29 23 15 05 21 25
  23912923.746    -2350767.241 8  -1822438.80746  23912921.265    23912933.4364
  22424577.784   -10383832.087 8  -8078794.93146  22424582.000    22424590.4794
  20864968.057   -20789905.936 9 -16176350.87547  20864970.167    20864977.0464
  20924235.738   -21097812.153 9 -16426130.68647  20924239.123    20924248.0014
  21829548.983   -13787493.439 8 -10723447.08847  21829549.858    21829558.1354
  22870191.469    -8781647.646 8  -6832986.16746  22870191.750    22870201.7644
  20553161.267   -23500375.336 9 -18301518.63048  20553163.167    20553170.6734
  24344513.552    -3523316.157 7  -2726420.93945  24344520.542    24344533.3684
 00  4 22  3 48  0.0000000  0  8 30 09 29 23 15 05 21 25
  23895180.637    -2444002.019 8  -1895089.10246  23895178.898    23895191.0994
  22441869.193   -10292960.899 8  -8007986.25046  22441873.492    22441881.8004
  20859848.974   -20816804.934 9 -16197311.07447  20859851.825    20859859.0814
  20930809.154   -21063284.802 9 -16399226.32847  20930809.752    20930818.5264
  21823104.127   -13821352.058 8 -10749830.41746  21823106.396    21823115.5154
  22860640.581    -8831844.701 8  -6872100.70346  22860639.401    22860650.0394
  20544639.074   -23545161.891 9 -18336417.26248  20544640.690    20544648.3484
  24325104.722    -3625312.020 7  -2805898.01745  24325111.433    24325123.8764
 00  4 22  3 48 30.0000000  0  8 30 09 29 23 15 05 21 25
  23877450.163    -2537150.933 8  -1967672.51246  23877454.279    23877465.3634
  22459217.413   -10201815.465 8  -7936963.91446  22459217.740    22459227.0284
  20854770.945   -20843494.387 9 -16218108.17747  20854772.840    20854780.2214
  20937451.968   -21028366.881 9 -16372017.58747  20937454.362    20937462.7584
  21816778.867   -13854598.696 8 -10775736.84447  21816780.678    21816788.7034
  22851158.110    -8881616.966 8  -6910884.19646  22851168.171    22851178.7284
  20536189.174   -23589562.186 9 -18371014.94248  20536191.443    20536199.1154
  24305732.170    -3727168.454 8  -2885266.47645  24305730.325    24305740.3264
 00  4 22  3 49  0.0000000  0  8 30 09 29 23 15 05 21 25
  23859743.526    -2630202.642 8  -2040180.14446  23859746.490    23859758.4484
  22476612.330   -10110394.877 8  -7865727.21546  22476614.239    22476623.6764
  20849731.743   -20869978.078 9 -16238744.78747  20849732.839    20849740.6314
  20944174.131   -20993046.872 9 -16344495.55147  20944175.846    20944184.2154
  21810568.611   -13887232.050 8 -10801165.39547  21810570.753    21810578.5054
  22841778.656    -8930952.905 8  -6949327.70046  22841780.173    22841790.5744
  20527816.540   -23633570.742 9 -18405307.32048  20527817.395    20527824.3634
  24286370.390    -3828891.128 8  -2964530.72045  24286371.972    24286382.9864
 00  4 22  3 49 30.0000000  0  8 30 09 29 23 15 05 21 25
  23842057.472    -2723150.070 8  -2112606.54146  23842058.688    23842070.9514
  22494060.722   -10018710.296 8  -7794284.69046  22494061.927    22494070.6124
  20844726.762   -20896271.753 9 -16259233.41947  20844730.093    20844737.4424
  20950971.719   -20957326.227 9 -16316661.30347  20950972.947    20950981.6234
  21804477.161   -13919250.830 8 -10826115.05947  21804477.646    21804485.3064
  22832479.112    -8979839.700 8  -6987421.20446  22832477.612    22832487.7384
  20519515.035   -23677185.038 9 -18439292.48448  20519517.737    20519524.9154
  24267039.584    -3930483.930 8  -3043693.79145  24267038.420    24267049.9264
 00  4 22  3 50  0.0000000  0  8 30 09 29 23 15 05 21 25
  23824388.319    -2815991.391 8  -2184950.23646  23824390.288    23824402.7464
  22511552.024    -9926751.327 8  -7722628.39746  22511560.447    22511570.0914
  20839759.198   -20922379.401 9 -16279577.04948  20839762.158    20839769.1694
  20957845.426   -20921197.206 9 -16288508.85047  20957848.017    20957856.6944
  21798498.330   -13950654.106 8 -10850585.14747  21798500.759    21798509.7024
  22823257.301    -9028277.582 8  -7025164.91846  22823259.496    22823270.3994
  20511287.770   -23720412.787 9 -18472976.42248  20511291.218    20511298.6274
  24247725.724    -4031949.512 8  -3122757.73845  24247730.475    24247742.5184
 00  4 22  3 50 30.0000000  0  8 30 09 29 23 15 05 21 25
  23806748.765    -2908720.198 8  -2257206.27945  23806745.564    23806757.9074
  22529111.410    -9834505.682 8  -7650748.70146  22529115.066    22529123.7494
  20834827.965   -20948292.318 9 -16299768.86247  20834830.468    20834838.0474
  20964799.848   -20884651.790 9 -16260031.96747  20964802.553    20964811.0454
  21792640.303   -13981440.920 8 -10874574.89847  21792642.864    21792651.3864
  22814122.325    -9076282.723 8  -7062571.44546  22814124.119    22814134.6204
  20503135.341   -23763262.148 9 -18506365.52548  20503137.479    20503145.2164
  24228435.090    -4133275.527 7  -3201712.92145  24228447.581    24228460.4754
 00  4 22  3 51  0.0000000  0  8 30 09 29 23 15 05 21 25
  23789120.872    -3001330.091 8  -2329369.66446  23789121.833    23789135.0514
  22546726.207    -9741973.421 8  -7578645.67346  22546723.116    22546732.8434
  20829935.222   -20974006.900 9 -16319806.13048  20829937.541    20829944.2294
  20971833.639   -20847687.335 9 -16231228.51747  20971836.664    20971845.1444
  21786898.178   -14011610.058 8 -10898083.29547  21786901.516    21786910.8744
  22805065.325    -9123869.372 8  -7099651.86646  22805069.056    22805079.6574
  20495052.809   -23805736.596 9 -18539462.47848  20495055.338    20495062.6624
  24209191.811    -4234471.308 8  -3280566.57945  24209190.671    24209203.3954
 00  4 22  3 51 30.0000000  0  8 30 09 29 23 15 05 21 25
  23771507.353    -3093845.635 8  -2401459.51946  23771516.784    23771528.1054
  22564377.878    -9649158.343 8  -7506322.28546  22564385.019    22564394.5144
  20825079.174   -20999522.758 9 -16339688.70047  20825081.859    20825089.2724
  20978948.341   -20810309.775 9 -16202103.18847  20978949.697    20978957.7024
  21781276.865   -14041160.454 8 -10921109.58947  21781278.033    21781287.1604
  22796092.509    -9171033.940 8  -7136403.39446  22796094.514    22796103.4484
  20487039.514   -23847845.516 9 -18572274.60948  20487041.682    20487049.4824
  24189959.406    -4335531.752 8  -3359314.81445  24189959.763    24189971.8054
 00  4 22  3 52  0.0000000  0  8 30 09 29 23 15 05 21 25
  23753924.929    -3186282.254 8  -2473487.89145  23753926.042    23753937.6394
  22582101.180    -9556051.578 8  -7433771.66946  22582102.616    22582111.8844
  20820263.902   -21024819.703 9 -16359400.56148  20820267.970    20820275.1464
  20986138.471   -20772527.301 9 -16172662.35347  20986139.110    20986147.6834
  21775770.754   -14070090.808 8 -10943652.71747  21775773.921    21775782.0184
  22787192.618    -9217771.126 8  -7172821.87046  22787198.948    22787209.7734
  20479097.390   -23889586.681 9 -18604800.15348  20479098.763    20479106.3194
  24170762.082    -4436437.957 8  -3437942.84845  24170758.116    24170770.5234
 00  4 22  3 52 30.0000000  0  8 30 09 29 23 15 05 21 25
  23736346.694    -3278635.979 8  -2545451.69546  23736352.309    23736363.6884
  22599874.528    -9462655.423 8  -7360995.53346  22599876.617    22599885.3974
  20815494.898   -21049892.802 9 -16378937.95448  20815497.182    20815503.9744
  20993402.112   -20734351.021 9 -16142914.67947  20993403.824    20993412.2874
  21770384.128   -14098400.442 8 -10965712.15347  21770386.224    21770393.7414
  22778381.301    -9264075.679 8  -7208903.25446  22778387.709    22778398.1934
  20471223.884   -23930959.056 9 -18637038.39648  20471226.139    20471233.5344
  24151581.450    -4537186.270 8  -3516447.89045  24151587.234    24151598.5674
 00  4 22  3 53  0.0000000  0  8 30 09 29 23 15 05 21 25
  23718793.112    -3370897.212 8  -2617343.40946  23718795.764    23718807.5614
  22617698.166    -9368977.261 8  -7287999.62046  22617702.193    22617710.2624
  20810767.925   -21074734.372 9 -16398295.01648  20810769.558    20810776.8494
  21000740.021   -20695786.817 9 -16112864.71447  21000742.305    21000750.4424
  21765112.155   -14126088.480 8 -10987287.25347  21765117.022    21765125.6554
  22769663.833    -9309925.273 8  -7244630.12846  22769663.476    22769674.8214
  20463421.586   -23971960.764 9 -18668987.75348  20463423.247    20463431.1244
  24132447.107    -4637786.201 8  -3594837.30745  24132442.736    24132454.1504
 00  4 22  3 53 30.0000000  0  8 30 09 29 23 15 05 21 25
  23701254.710    -3463050.499 8  -2689150.98946  23701259.846    23701270.6724
  22635583.653    -9275007.584 8  -7214776.51346  22635583.864    22635593.0844
  20806083.917   -21099339.729 9 -16417468.10248  20806087.157    20806094.7034
  21008149.647   -20656843.001 9 -16082518.95247  21008153.158    21008161.7794
  21759967.979   -14153153.966 8 -11008377.21747  21759966.999    21759975.6144
  22761024.633    -9355312.431 8  -7279996.69346  22761025.921    22761037.3104
  20455691.760   -24012581.109 9 -18700640.05048  20455693.579    20455701.4864
  24113328.281    -4738218.922 8  -3673096.41945  24113331.699    24113342.9504
 00  4 22  3 54  0.0000000  0  8 30 09 29 23 15 05 21 25
  23683749.330    -3555062.885 8  -2760848.79446  23683749.852    23683761.0714
  22653513.890    -9180748.874 8  -7141328.23446  22653520.689    22653530.2774
  20801451.678   -21123698.907 9 -16436449.17248  20801452.084    20801459.0794
  21015635.150   -20617514.688 9 -16051873.57047  21015637.328    21015645.8624
  21754934.334   -14179596.034 8 -11028981.35947  21754935.136    21754942.8794
  22752471.317    -9400247.939 8  -7315011.27646  22752475.509    22752486.3264
  20448035.666   -24052805.788 9 -18731983.97948  20448039.165    20448047.2604
  24094249.056    -4838490.895 7  -3751230.29045  24094249.087    24094259.5094
 00  4 22  3 54 30.0000000  0  8 30 09 29 23 15 05 21 25
  23666266.425    -3646915.657 8  -2832422.18646  23666270.412    23666282.0544
  22671514.699    -9086215.274 8  -7067665.72546  22671510.761    22671518.8034
  20796858.905   -21147825.016 9 -16455248.55548  20796860.632    20796867.8394
  21023191.211   -20577792.837 9 -16020921.50247  21023196.100    21023204.2824
  21750017.691   -14205413.965 8 -11049099.17747  21750021.208    21750031.0904
  22744004.895    -9444737.038 8  -7349678.02546  22744010.098    22744020.1094
  20440457.644   -24092633.052 9 -18763018.22048  20440460.155    20440468.4764
  24075184.969    -4938611.454 7  -3829246.14145  24075195.987    24075209.0554
 00  4 22  3 55  0.0000000  0  8 30 09 29 23 15 05 21 25
  23648817.964    -3738615.149 8  -2903876.17946  23648821.673    23648832.0114
  22689550.920    -8991416.727 8  -6993796.81546  22689550.165    22689559.4934
  20792309.828   -21171735.071 9 -16473879.71948  20792310.505    20792317.9604
  21030829.428   -20537666.368 9 -15989654.15147  21030831.947    21030840.1074
  21745225.073   -14230606.547 8 -11068729.76547  21745227.777    21745237.5874
  22735630.088    -9488773.556 8  -7383992.11946  22735630.600    22735640.0244
  20432956.171   -24132058.205 9 -18793739.05748  20432958.096    20432965.8114
  24056167.744    -5038579.012 8  -3907142.75246  24056174.116    24056186.6324
 00  4 22  3 55 30.0000000  0  8 30 09 29 23 15 05 21 25
  23631390.302    -3830173.991 8  -2975220.55246  23631396.537    23631408.7024
  22707633.403    -8896355.833 8  -6919723.47646  22707640.086    22707647.6544
  20787795.756   -21195441.797 9 -16492352.45347  20787799.085    20787806.3164
  21038544.418   -20497131.720 9 -15958068.77347  21038545.735    21038553.8744
  21740549.404   -14255172.773 8 -11087872.28647  21740553.037    21740562.2144
  22727331.873    -9532362.391 8  -7417957.35546  22727335.723    22727345.0064
  20425531.053   -24171075.246 9 -18824141.85248  20425533.398    20425541.0064
  24037179.807    -5138398.523 8  -3984924.05146  24037179.576    24037191.4974
 00  4 22  3 56  0.0000000  0  8 30 09 29 23 15 05 21 25
  23614002.177    -3921599.538 8  -3046461.06646  23613999.335    23614011.0194
  22725770.921    -8801048.873 8  -6845458.41846  22725775.607    22725784.6364
  20783321.667   -21218959.624 9 -16510678.00948  20783324.379    20783331.2624
  21046337.103   -20456180.735 9 -15926158.94547  21046338.645    21046346.6194
  21735994.587   -14279112.266 8 -11106526.37347  21735997.485    21736006.2634
  22719124.934    -9575495.066 8  -7451567.14146  22719126.746    22719137.6354
  20418182.270   -24209683.565 9 -18854226.22548  20418186.091    20418194.2824
  24018203.597    -5238073.774 8  -4062592.89946  24018211.210    24018223.5754
 00  4 22  3 56 30.0000000  0  8 30 09 29 23 15 05 21 25
  23596624.956    -4012901.581 8  -3117605.33146  23596625.531    23596636.3724
  22743953.152    -8705489.317 8  -6770996.57546  22743960.548    22743968.8264
  20778880.669   -21242300.128 9 -16528865.32448  20778882.872    20778889.9284
  21054207.248   -20414813.677 9 -15893924.88947  21054210.553    21054218.6654
  21731559.085   -14302424.234 8 -11124691.47547  21731561.011    21731570.4144
  22711006.957    -9618159.966 8  -7484812.40746  22711008.283    22711017.5814
  20410914.536   -24247887.514 9 -18883995.41648  20410916.223    20410924.2734
  23999269.995    -5337605.097 8  -4140149.64046  23999270.721    23999282.0974
 00  4 22  3 57  0.0000000  0  8 30 09 29 23 15 05 21 25
  23579267.947    -4104086.978 8  -3188658.72546  23579273.114    23579283.3944
  22762189.721    -8609673.887 8  -6696335.27046  22762192.406    22762201.4054
  20774471.970   -21265460.762 9 -16546912.57348  20774475.245    20774482.0894
  21062161.014   -20373031.178 9 -15861367.14447  21062161.155    21062170.3294
  21727240.675   -14325107.815 8 -11142366.92447  21727244.254    21727253.3624
  22702975.614    -9660356.411 8  -7517692.65146  22702978.193    22702988.2534
  20403720.774   -24285680.038 9 -18913444.02748  20403724.200    20403732.2394
  23980354.813    -5437001.660 8  -4217601.36045  23980355.597    23980366.7514
 00  4 22  3 57 30.0000000  0  8 30 09 29 23 15 05 21 25
  23561938.733    -4195150.204 8  -3259616.88446  23561944.254    23561955.5394
  22780470.972    -8513608.423 8  -6621479.10946  22780473.783    22780483.2544
  20770100.535   -21288429.747 9 -16564810.51447  20770103.824    20770111.1374
  21070185.817   -20330844.754 9 -15828494.68147  21070188.987    21070197.9444
  21723047.165   -14347162.179 8 -11159552.08847  21723048.072    21723055.5304
  22695034.447    -9702087.307 8  -7550210.16746  22695036.338    22695046.6654
  20396607.415   -24323059.867 9 -18942571.24248  20396610.985    20396619.3494
  23961466.730    -5536254.424 8  -4294940.97945  23961467.827    23961479.9764
 00  4 22  3 58  0.0000000  0  8 30 09 29 23 15 05 21 25
  23544640.335    -4286081.887 8  -3330472.56446  23544640.137    23544651.1754
  22798796.011    -8417286.058 8  -6546422.75546  22798802.863    22798812.2024
  20765765.899   -21311212.008 9 -16582562.94947  20765768.731    20765775.8934
  21078288.807   -20288263.549 9 -15795314.53947  21078292.320    21078300.5364
  21718968.322   -14368586.986 8 -11176246.67047  21718971.452    21718978.1904
  22687182.011    -9743348.974 8  -7582362.04046  22687184.597    22687194.8794
  20389572.888   -24360035.674 9 -18971383.67448  20389574.659    20389583.0624
  23942611.153    -5635343.171 8  -4372152.86745  23942613.922    23942622.6994
 00  4 22  3 58 30.0000000  0  8 30 09 29 23 15 05 21 25
  23527361.175    -4376876.970 8  -3401221.84546  23527362.177    23527372.8964
  22817176.620    -8320700.116 8  -6471161.03746  22817182.788    22817192.0784
  20761467.388   -21333795.456 9 -16600160.44347  20761471.467    20761478.4424
  21086468.661   -20245287.815 9 -15761826.98847  21086470.095    21086478.7324
  21715010.783   -14389381.512 8 -11192450.11647  21715013.918    21715022.0054
  22679421.796    -9784147.383 8  -7614152.91846  22679421.086    22679431.1434
  20382610.723   -24396615.072 9 -18999887.01048  20382613.671    20382621.9254
  23923786.434    -5734265.186 8  -4449234.84845  23923788.751    23923799.2194
 00  4 22  3 59  0.0000000  0  8 30 09 29 23 15 05 21 25
  23510111.940    -4467523.609 8  -3471855.39446  23510113.324    23510123.4664
  22835611.242    -8223854.928 8  -6395697.29646  22835612.071    22835621.3594
  20757210.143   -21356176.757 9 -16617600.46348  20757212.764    20757219.8894
  21094721.403   -20201920.672 9 -15728034.46747  21094722.188    21094731.2244
  21711174.509   -14409545.018 8 -11208161.84747  21711176.836    21711185.0674
  22671740.486    -9824486.757 8  -7645586.11546  22671744.954    22671754.3344
  20375728.098   -24432790.933 9 -19028075.95548  20375730.147    20375737.4764
  23904995.438    -5833002.292 8  -4526172.70346  23905000.175    23905010.2744
 00  4 22  3 59 30.0000000  0  8 30 09 29 23 15 05 21 25
  23492893.239    -4557998.308 8  -3542354.97346  23492895.371    23492905.8634
  22854085.771    -8126738.940 8  -6320022.53646  22854092.510    22854102.4924
  20752988.892   -21378350.887 9 -16634879.19948  20752993.098    20753000.2984
  21103046.052   -20158160.073 9 -15693935.35747  21103049.651    21103058.2534
  21707455.763   -14429076.658 8 -11223381.27147  21707460.017    21707467.3784
  22664153.543    -9864361.845 8  -7676657.50346  22664156.867    22664166.3144
  20368919.142   -24468564.766 9 -19055951.58048  20368922.247    20368930.3964
  23886246.209    -5931548.472 8  -4602961.75946  23886247.175    23886257.2464
 00  4 22  4  0  0.0000000  0  8 30 09 29 23 15 05 21 25
  23475711.750    -4648288.850 8  -3612711.09546  23475713.936    23475724.4104
  22872624.121    -8029354.384 8  -6244138.52146  22872624.419    22872633.3634
  20748812.705   -21400307.400 9 -16651988.05548  20748814.730    20748821.8834
  21111453.507   -20113994.001 9 -15659520.28547  21111454.563    21111462.8544
  21703858.955   -14447975.924 8 -11238107.93847  21703862.387    21703871.6504
  22656653.270    -9903773.914 8  -7707368.10846  22656657.087    22656666.5754
  20362190.996   -24503927.538 9 -19083506.98948  20362193.206    20362201.1084
  23867522.753    -6029918.911 8  -4679613.92245  23867528.571    23867537.5444
 00  4 22  4  0 30.0000000  0  8 30 09 29 23 15 05 21 25
  23458568.233    -4738388.989 8  -3682918.81845  23458568.247    23458578.6234
  22891202.078    -7931716.694 8  -6168057.29646  22891204.353    22891214.4174
  20744680.102   -21422023.364 9 -16668909.32248  20744681.983    20744689.0584
  21119934.009   -20069425.168 9 -15624791.36047  21119935.620    21119943.9564
  21700383.873   -14466242.402 8 -11252341.50747  21700386.652    21700396.2924
  22649242.135    -9942723.035 8  -7737718.01746  22649245.297    22649254.7844
  20355543.258   -24538864.651 9 -19110730.73248  20355544.747    20355552.4644
  23848835.848    -6128135.257 8  -4756145.99845  23848836.952    23848847.7374
 00  4 22  4  1  0.0000000  0  8 30 09 29 23 15 05 21 25
  23441453.667    -4828292.999 8  -3752973.73145  23441459.783    23441470.6194
  22909829.504    -7833842.167 8  -6091791.51446  22909829.734    22909839.2134
  20740593.624   -21443497.144 9 -16685642.07948  20740595.741    20740602.6834
  21128487.759   -20024466.744 9 -15589758.86047  21128490.934    21128499.6884
  21697030.509   -14483875.673 8 -11266081.69947  21697032.124    21697040.6864
  22641918.531    -9981199.579 8  -7767699.66846  22641923.249    22641932.2554
  20348975.048   -24573371.026 9 -19137618.78048  20348978.350    20348986.1304
  23830179.480    -6226203.991 8  -4832563.07745  23830175.563    23830185.6494
 00  4 22  4  1 30.0000000  0  8 30 09 29 23 15 05 21 25
  23424381.698    -4918008.588 8  -3822881.82045  23424386.816    23424397.5144
  22928490.561    -7735755.059 8  -6015360.06046  22928494.752    22928504.0454
  20736548.747   -21464736.413 9 -16702192.12048  20736553.558    20736560.8874
  21137119.079   -19979114.109 9 -15554419.18847  21137121.234    21137130.1284
  21693791.071   -14500875.324 8 -11279328.13647  21693796.558    21693805.7504
  22634692.838   -10019192.102 8  -7797304.12246  22634693.703    22634702.4384
  20342490.161   -24607453.090 9 -19164176.22648  20342492.932    20342500.6294
  23811531.835    -6324128.427 8  -4908867.71045  23811541.063    23811551.2014
 00  4 22  4  2  0.0000000  0  8 30 09 29 23 15 05 21 25
  23407342.196    -5007555.882 8  -3892658.75146  23407347.220    23407357.9894
  22947196.018    -7637470.462 8  -5938774.71846  22947197.909    22947207.5384
  20732552.547   -21485748.907 9 -16718565.36347  20732555.195    20732562.4794
  21145822.356   -19933374.131 9 -15518777.68847  21145825.522    21145834.1184
  21690680.835   -14517240.823 8 -11292080.44947  21690682.843    21690691.3564
  22627550.016   -10056703.078 8  -7826533.39446  22627554.933    22627564.8844
  20336084.357   -24641119.782 9 -19190410.13048  20336086.669    20336094.0824
  23792937.569    -6421891.264 8  -4985046.43146  23792937.395    23792947.7284
 00  4 22  4  2 30.0000000  0  8 30 09 29 23 15 05 21 25
  23390336.469    -5096936.361 8  -3962305.72046  23390339.369    23390349.7744
  22965935.294    -7538987.237 8  -5862034.64846  22965938.467    22965948.3654
  20728594.155   -21506551.405 9 -16734775.15648  20728596.921    20728604.1324
  21154603.530   -19887248.004 9 -15482835.26647  21154603.313    21154612.0224
  21687687.200   -14532971.600 8 -11304338.20447  21687689.223    21687698.3594
  22620508.475   -10093732.701 8  -7855387.57246  22620509.089    22620518.7244
  20329754.934   -24674376.729 9 -19216324.62848  20329757.965    20329765.6834
  23774361.026    -6519470.788 8  -5061082.26646  23774368.495    23774379.6224
 00  4 22  4  3  0.0000000  0  8 30 09 29 23 15 05 21 25
  23373364.579    -5186146.630 8  -4031820.05546  23373362.309    23373373.5874
  22984716.649    -7440302.651 8  -5785137.65646  22984717.723    22984727.3964
  20724672.544   -21527169.050 9 -16750841.00848  20724673.588    20724680.6924
  21163455.544   -19840710.695 9 -15446572.44747  21163458.824    21163467.6864
  21684816.868   -14548067.473 8 -11316101.20247  21684816.561    21684825.7144
  22613552.057   -10130283.322 8  -7883868.48846  22613553.268    22613563.0914
  20323502.124   -24707230.406 9 -19241924.85848  20323506.048    20323513.5604
  23755846.600    -6616835.623 8  -5136950.88846  23755841.261    23755851.5244
 00  4 22  4  3 30.0000000  0  8 30 09 29 23 15 05 21 25
  23356412.188    -5275191.346 8  -4101205.43046  23356418.135    23356426.6374
  23003538.899    -7341411.442 8  -5708079.65046  23003535.667    23003545.6174
  20720783.273   -21547599.827 9 -16766761.09848  20720785.664    20720792.7524
  21172394.625   -19793746.837 9 -15409977.26347  21172395.753    21172404.2714
  21682061.957   -14562527.943 8 -11327369.11447  21682064.690    21682073.4904
  22606684.318   -10166363.402 8  -7911982.77146  22606687.456    22606697.5684
  20317331.808   -24739671.929 9 -19267203.91748  20317332.446    20317339.8554
  23737349.377    -6713974.023 8  -5212643.05846  23737355.631    23737366.4684
 00  4 22  4  4  0.0000000  0  8 30 09 29 23 15 05 21 25
  23339506.706    -5364066.850 8  -4170458.93246  23339505.086    23339515.3544
  23022398.323    -7242297.627 8  -5630848.18446  23022397.063    23022406.5344
  20716935.194   -21567825.523 9 -16782521.29548  20716936.961    20716943.7384
  21181410.226   -19746358.332 9 -15373051.19847  21181413.734    21181422.3744
  21679430.311   -14576352.515 8 -11338141.51147  21679433.882    21679443.2024
  22599905.236   -10201971.277 8  -7939729.07946  22599910.950    22599921.2844
  20311240.016   -24771683.876 9 -19292148.25548  20311240.778    20311248.7394
  23718913.979    -6810888.743 8  -5288160.87846  23718913.520    23718924.3134
 00  4 22  4  4 30.0000000  0  8 30 09 29 23 15 05 21 25
  23322619.563    -5452764.317 8  -4239573.69046  23322625.531    23322637.2984
  23041294.676    -7142971.302 8  -5553451.11546  23041298.514    23041307.5834
  20713124.974   -21587840.883 9 -16798117.48048  20713127.802    20713134.9444
  21190512.247   -19698540.837 9 -15335790.86147  21190512.902    21190521.2414
  21676922.511   -14589540.759 8 -11348418.03247  21676924.668    21676932.2994
  22593227.938   -10237094.578 8  -7967097.78746  22593227.295    22593237.9994
  20305231.298   -24803249.775 9 -19316745.07648  20305233.941    20305241.7274
  23700504.566    -6907591.880 8  -5363513.83746  23700510.875    23700522.2934
 00  4 22  4  5  0.0000000  0  8 30 09 29 23 15 05 21 25
  23305786.261    -5541282.490 8  -4308548.76346  23305782.968    23305792.3854
  23060236.589    -7043432.605 8  -5475888.52746  23060239.464    23060249.4924
  20709357.527   -21607639.256 9 -16813544.81948  20709360.230    20709367.8754
  21199691.932   -19650303.870 9 -15298203.66247  21199692.156    21199700.6154
  21674534.934   -14602092.541 8 -11358198.62547  21674535.682    21674544.2824
  22586636.364   -10271723.315 8  -7994081.14446  22586637.667    22586647.8244
  20299313.047   -24834358.947 9 -19340985.88748  20299314.106    20299321.4034
  23682148.049    -7004099.952 8  -5438714.77946  23682146.450    23682157.8004
 00  4 22  4  5 30.0000000  0  8 30 09 29 23 15 05 21 25
  23288970.334    -5629622.785 8  -4377385.24646  23288970.909    23288981.9344
  23079219.849    -6943681.429 8  -5398160.40546  23079221.578    23079230.8714
  20705631.586   -21627219.216 9 -16828802.05648  20705634.343    20705641.7664
  21208945.643   -19601667.687 9 -15260305.36647  21208947.576    21208955.9754
  21672263.986   -14614007.720 8 -11367483.16147  21672268.128    21672277.2924
  22580141.758   -10305851.848 8  -8020674.71946  22580143.853    22580153.1814
  20293481.023   -24864998.198 9 -19364860.52848  20293483.190    20293491.2004
  23663813.478    -7100438.265 8  -5513783.44246  23663813.733    23663824.6374
 00  4 22  4  6  0.0000000  0  8 30 09 29 23 15 05 21 25
  23272193.582    -5717771.247 8  -4446072.20946  23272196.357    23272207.8764
  23098243.790    -6843706.492 8  -5320257.86046  23098246.338    23098256.4994
  20701944.393   -21646593.576 9 -16843899.01748  20701947.516    20701954.8624
  21218276.009   -19552641.749 9 -15222103.39847  21218277.139    21218285.5424
  21670116.969   -14625286.025 8 -11376271.44747  21670121.882    21670131.2044
  22573740.760   -10339476.262 8  -8046875.52246  22573745.030    22573754.1934
  20287739.862   -24895173.901 9 -19388374.00248  20287741.292    20287749.0744
  23645508.783    -7196619.316 8  -5588729.58546  23645511.079    23645521.5354
